GFSSW_850_thetae_000.txt.gz
Theta_e
308 308 309 310 310 310 310 310 310 310 310 310 311 312 313 314 316 316 318 322 323 323 323 324 326 326 327 326 326 327 322 324 323 316 315 317 315 317 318 318 318 319 318 318 317
308 308 308 309 309 309 309 310 310 311 311 310 310 311 313 313 315 316 317 319 322 323 323 323 326 326 325 324 325 323 321 323 320 315 316 316 315 317 318 318 316 317 317 316 316
308 308 308 308 308 309 309 309 310 310 311 311 310 310 311 313 314 316 317 318 319 323 322 323 324 323 323 323 323 322 323 320 322 320 318 316 315 317 317 317 317 317 316 315 315
307 308 308 308 308 308 309 309 309 310 310 311 311 310 311 311 314 321 321 322 318 321 322 322 322 322 320 320 322 322 322 321 322 322 317 314 316 318 318 318 319 318 317 316 315
307 307 308 308 308 308 308 309 309 309 310 310 311 311 310 310 313 318 323 321 321 321 322 322 323 322 320 320 321 321 320 319 319 318 318 318 317 317 318 319 319 318 316 316 315
307 308 308 308 307 308 308 308 308 309 309 310 311 311 310 311 314 314 316 317 318 322 323 323 323 324 322 322 321 323 319 318 317 317 317 316 316 318 319 319 318 317 316 315 315
304 305 307 308 308 308 308 308 308 309 309 310 311 310 310 311 313 315 319 317 317 322 322 323 323 323 323 321 322 319 319 317 317 316 316 317 316 316 318 318 317 316 316 315 315
301 301 302 305 307 308 309 308 308 309 309 310 310 311 311 312 313 314 314 321 319 320 323 323 324 323 322 323 320 319 316 318 317 316 317 316 316 316 317 317 316 316 315 315 315
303 301 300 301 303 306 308 309 309 309 309 310 311 313 312 313 313 315 314 315 320 322 322 323 322 322 319 319 318 316 320 318 318 315 316 315 316 316 317 317 316 315 314 315 315
306 305 304 301 300 302 306 309 310 309 312 311 313 311 312 313 314 314 315 316 317 320 322 322 322 317 314 316 319 320 319 319 318 318 315 315 314 314 317 317 316 315 314 315 315
307 307 304 301 301 300 302 308 310 317 317 313 312 311 316 315 316 318 317 316 322 322 319 320 318 317 317 317 319 319 319 319 319 318 317 316 315 317 316 316 315 315 314 315 315
306 304 306 304 302 300 301 305 310 309 310 314 315 314 313 313 314 315 319 321 321 319 318 318 319 317 317 318 318 318 318 318 317 317 316 317 316 315 315 316 316 315 314 315 315
307 305 304 305 304 303 301 303 309 308 310 315 315 315 315 314 315 315 318 321 319 318 318 319 320 318 319 319 319 318 319 318 318 318 315 316 315 316 315 316 317 316 316 315 315
307 306 305 303 305 303 301 304 307 310 313 314 315 316 317 317 316 315 315 322 320 320 318 319 319 320 319 320 319 320 318 318 318 318 317 315 316 315 316 316 317 315 315 315 315
306 307 305 303 305 302 304 305 310 313 308 312 316 317 317 317 316 316 315 321 319 320 319 322 319 319 320 320 318 320 319 318 318 317 316 317 314 315 318 319 316 315 314 315 315
305 306 306 304 303 305 303 306 312 314 316 314 316 316 315 316 316 317 318 319 320 318 318 320 320 318 319 319 318 319 318 315 314 313 315 315 315 315 316 318 318 316 315 316 315
303 305 306 305 303 304 303 305 314 315 313 313 314 315 316 316 316 316 317 317 318 319 319 319 318 319 320 320 317 316 314 316 316 316 318 316 316 316 317 316 317 318 315 316 315
302 304 306 306 304 304 303 309 315 314 313 314 313 315 316 315 316 315 315 318 316 318 318 320 321 319 318 319 318 314 314 315 317 315 315 318 320 319 318 321 321 321 319 316 316
302 303 306 306 305 303 304 310 312 313 313 313 314 315 316 316 316 316 315 317 317 317 320 319 320 319 318 318 318 317 315 314 315 317 318 317 319 321 324 323 320 317 316 315 316
303 303 305 307 305 303 302 308 312 313 313 313 314 313 315 315 316 316 315 316 316 317 317 318 320 318 319 318 317 318 315 317 313 318 319 318 321 323 321 324 321 317 315 316 316
303 304 305 306 304 303 302 304 307 313 313 313 313 313 314 314 315 315 316 317 317 316 318 316 318 320 319 320 319 318 318 317 313 314 316 316 320 318 323 325 325 319 316 317 317
302 304 304 306 304 304 304 304 306 309 314 313 312 312 313 313 314 315 316 316 318 317 317 316 316 318 323 321 321 318 317 319 318 318 318 317 320 320 323 325 325 322 318 318 317
303 303 304 305 306 305 303 305 304 307 311 312 312 313 313 314 315 315 316 316 317 317 316 315 315 317 318 326 324 324 323 319 319 319 324 324 321 321 324 325 324 323 319 318 317
300 303 301 302 305 304 304 304 304 305 307 309 311 311 312 314 313 315 317 316 317 317 317 318 314 317 320 319 325 326 327 323 321 322 322 325 324 324 325 327 323 321 320 318 318
300 301 302 304 305 303 302 303 305 304 306 309 310 311 312 313 313 313 314 314 315 316 319 315 316 317 317 317 322 322 324 325 323 321 324 323 325 323 324 326 324 323 318 317 317
300 301 301 300 304 305 304 304 303 305 303 307 309 311 310 311 311 313 313 313 314 310 315 316 317 316 318 318 318 321 321 325 324 323 325 323 324 322 325 327 326 324 319 318 319
299 301 302 302 305 305 305 305 306 305 306 306 308 308 307 309 309 310 310 310 310 311 309 316 320 319 319 323 322 323 321 325 324 323 322 325 323 322 326 326 326 326 323 322 320

GFSSW_850_thetae_003.txt.gz
Theta_e
308 309 308 308 308 309 309 309 310 310 311 311 311 311 312 312 314 315 316 317 320 322 322 322 323 325 326 327 327 328 329 328 328 328 328 318 319 317 317 318 318 319 318 318 318
307 307 307 308 308 308 308 309 310 310 311 312 312 311 311 312 313 314 315 317 317 320 322 323 323 325 326 325 325 326 328 328 328 326 325 320 319 319 319 319 318 318 318 317 317
307 308 308 308 308 308 309 308 309 309 310 310 311 311 310 311 311 315 316 316 317 317 321 322 322 325 324 323 324 325 325 324 324 324 322 321 317 318 320 320 320 319 317 317 317
307 307 307 308 308 308 308 308 308 309 309 310 310 311 311 310 314 320 319 319 319 317 317 321 323 323 323 323 322 324 324 324 324 321 318 318 317 318 319 321 319 319 318 317 317
307 307 307 308 308 308 308 308 308 308 309 309 310 310 310 310 312 317 321 321 319 319 317 321 322 323 324 323 322 324 324 321 320 318 317 317 318 319 319 318 319 319 317 317 316
302 304 305 306 307 308 308 308 308 308 308 309 309 309 309 310 313 314 314 315 317 317 318 320 322 323 323 323 323 323 322 320 317 317 316 318 318 318 319 318 318 319 318 317 316
300 300 300 302 304 306 308 309 308 308 308 308 309 309 308 312 313 313 314 318 315 316 321 321 322 323 324 324 322 321 322 320 318 318 319 318 319 320 319 318 319 318 317 316 315
305 303 301 300 300 302 304 307 309 309 308 308 309 309 309 313 313 313 312 313 319 319 320 322 322 323 323 322 322 321 321 323 320 317 317 318 322 323 318 318 319 317 316 315 315
307 307 306 304 303 302 301 303 306 308 309 309 309 310 312 312 313 313 313 313 317 317 322 322 323 323 320 323 323 321 325 324 323 318 318 319 321 321 317 318 319 317 315 315 315
307 307 306 306 305 306 303 301 304 308 309 311 312 313 312 312 313 313 314 313 314 319 323 322 321 323 322 323 324 324 323 322 323 321 318 319 319 321 319 318 319 317 316 316 315
307 307 306 304 306 305 306 301 307 314 313 311 312 311 313 312 314 315 316 314 318 322 324 321 324 325 325 323 323 323 323 324 322 322 321 322 322 322 321 318 318 317 316 317 316
307 307 307 305 304 306 303 302 308 306 309 311 313 313 312 314 313 314 316 318 322 323 322 321 325 324 323 322 321 322 323 323 322 321 321 323 322 322 321 320 319 319 317 317 317
304 306 306 306 305 305 303 304 308 307 310 311 310 313 313 313 314 314 319 318 321 322 323 325 325 321 322 321 322 322 323 323 324 321 320 320 322 322 322 318 318 318 318 317 317
303 304 305 306 304 303 303 301 303 306 314 314 315 314 313 314 315 314 314 320 321 323 322 324 321 322 322 323 323 325 322 323 323 322 324 321 324 323 323 323 321 319 317 317 317
302 303 305 307 305 304 303 305 305 308 312 313 316 315 315 315 316 316 314 317 322 322 323 324 322 322 323 323 322 324 322 322 322 324 321 322 322 322 321 323 324 324 319 317 317
301 302 304 306 305 303 304 303 308 316 315 315 317 317 316 316 316 315 316 317 320 322 321 324 320 323 323 323 322 323 321 320 320 321 323 323 322 321 323 324 324 324 321 318 317
302 301 302 306 304 304 304 303 316 317 313 315 316 317 317 317 317 318 317 317 321 323 325 323 323 321 322 324 320 322 324 325 326 326 324 320 321 323 324 324 323 323 322 318 317
302 301 301 302 304 305 303 309 315 313 314 314 314 317 317 317 317 316 317 317 319 322 324 324 324 322 321 324 324 323 325 324 326 323 324 320 323 322 325 323 324 323 323 318 317
301 302 301 302 306 305 304 311 312 312 314 314 314 317 317 317 318 317 318 318 319 323 323 324 323 320 321 322 323 321 322 323 324 321 322 322 323 324 326 327 326 323 319 318 317
300 302 302 303 305 304 305 308 310 313 314 314 315 316 318 317 318 318 318 318 318 320 323 322 324 322 322 321 321 323 321 323 321 324 325 323 324 325 325 325 328 325 321 318 318
300 303 302 303 305 303 306 306 307 311 313 315 315 316 317 317 318 318 318 317 319 318 321 323 323 322 321 323 323 321 322 322 322 322 325 326 325 326 328 330 332 328 322 319 318
300 304 303 304 303 303 306 305 305 308 309 313 314 315 316 317 318 318 318 318 317 320 320 322 324 325 323 322 323 323 323 324 324 325 323 324 325 325 328 331 331 329 322 320 319
301 301 303 304 305 306 305 306 305 306 308 312 314 314 315 318 319 319 318 318 317 319 323 323 327 326 323 328 326 323 323 324 325 325 326 325 325 326 329 330 328 327 322 319 319
300 303 301 304 304 306 306 306 306 305 306 306 309 313 314 315 316 318 318 317 316 319 320 322 326 326 325 324 325 327 325 323 325 325 325 325 325 327 330 330 328 327 322 320 319
300 301 301 302 303 303 304 306 305 306 306 308 311 313 314 316 315 317 316 316 316 319 322 324 325 324 323 323 325 324 325 327 326 325 326 326 327 327 329 330 330 327 322 320 320
299 301 300 300 300 304 305 305 306 305 306 307 309 311 311 314 314 316 316 316 317 316 322 320 326 324 323 322 322 323 323 324 326 325 326 325 327 328 327 329 328 324 321 320 320
299 301 301 302 303 305 306 305 305 305 305 306 307 308 310 313 312 313 312 312 313 315 316 324 326 323 324 322 322 324 323 323 325 326 325 326 327 328 330 331 330 325 323 322 322

GFSSW_850_thetae_006.txt.gz
Theta_e
308 308 309 309 309 309 309 309 310 310 310 311 311 312 312 313 313 313 313 317 317 321 323 323 325 326 327 328 329 329 329 330 331 331 331 330 328 324 321 322 321 322 322 322 320
308 308 308 308 308 308 308 308 309 309 310 310 311 311 312 312 312 313 315 315 317 317 321 326 327 327 328 328 329 328 327 328 329 330 331 329 328 327 323 323 322 321 321 319 319
307 307 308 308 308 308 308 308 308 308 308 308 309 310 311 311 313 316 317 315 316 317 321 325 326 327 327 328 327 326 327 327 327 328 328 327 327 325 324 325 324 323 322 320 320
305 307 307 307 307 307 308 308 308 308 308 308 310 310 311 311 316 317 319 317 316 315 320 324 324 327 327 329 326 327 325 326 327 327 325 326 325 324 323 324 323 322 322 321 320
302 303 305 306 307 308 308 308 308 308 308 308 309 310 310 314 313 315 320 320 318 317 319 321 324 325 326 327 326 326 325 326 326 325 324 324 324 324 323 323 322 321 321 321 321
303 301 301 302 304 305 307 308 308 308 308 308 308 308 309 313 313 313 313 314 316 320 320 320 324 324 325 327 326 325 326 326 325 324 323 323 324 321 323 322 322 321 321 321 321
307 307 304 302 302 303 303 305 307 308 308 308 308 308 309 312 313 312 316 322 319 320 321 320 323 324 324 327 326 326 326 326 325 324 324 322 324 324 324 323 322 322 322 321 321
308 307 307 307 307 305 304 303 303 306 308 309 308 308 312 312 312 313 313 316 319 322 321 322 322 324 324 326 325 325 326 327 327 323 322 322 325 324 324 322 322 323 322 321 321
309 307 306 306 307 307 308 306 303 302 305 308 308 311 314 313 312 313 314 313 314 317 318 323 323 324 325 327 328 327 327 328 328 325 325 324 326 325 324 323 323 323 322 321 321
308 308 308 307 305 305 308 307 305 302 304 308 315 315 313 315 314 314 314 313 316 316 323 323 324 326 327 328 330 328 327 327 327 327 325 326 326 325 323 323 324 323 323 321 321
305 307 308 307 306 304 306 307 311 318 317 314 316 313 314 313 313 315 316 314 316 322 325 324 326 327 327 328 328 327 326 327 327 327 325 327 327 325 324 324 324 324 323 322 321
304 305 306 307 307 305 305 306 308 308 310 312 314 315 314 315 316 315 318 317 318 323 325 326 327 327 327 327 327 327 327 328 327 326 325 326 325 325 325 324 324 325 324 323 322
302 303 304 306 306 306 306 307 305 308 311 312 312 313 314 315 316 317 317 317 320 323 325 327 326 327 327 327 327 327 327 328 327 327 325 325 325 326 325 324 324 324 324 324 323
303 302 303 305 305 307 306 305 305 304 314 315 314 313 313 314 316 315 318 318 321 322 325 326 326 327 327 327 327 327 326 326 326 326 326 326 327 325 325 325 325 325 324 324 323
300 303 303 304 308 307 306 305 305 308 318 319 318 316 314 315 316 315 316 319 321 322 325 326 327 327 327 326 326 326 325 326 326 326 326 326 327 325 324 324 324 324 326 325 323
299 302 302 303 306 307 306 304 307 317 317 317 318 318 318 316 317 317 316 318 320 322 325 325 325 326 326 324 324 324 325 325 326 326 327 326 325 324 323 324 324 325 327 326 323
297 300 302 302 305 306 306 306 314 317 317 318 319 319 319 318 318 319 318 318 320 323 325 325 326 326 325 325 325 325 326 328 329 328 327 325 324 324 324 324 325 325 325 326 323
297 299 302 303 303 305 305 308 314 316 318 318 318 320 320 320 318 319 319 319 320 322 324 325 326 326 325 324 325 325 327 327 328 328 327 325 325 324 324 325 327 328 329 326 323
300 299 303 303 301 303 306 310 313 315 317 318 317 320 320 320 320 319 320 319 319 322 324 326 326 325 325 324 325 326 326 326 327 327 327 325 325 325 325 326 328 328 327 325 323
302 300 302 304 303 302 306 310 310 313 315 317 318 319 321 321 320 321 320 320 319 321 324 325 327 324 325 324 324 325 325 326 326 328 329 326 326 325 325 326 332 331 328 325 323
301 302 303 304 303 302 307 308 309 310 314 316 317 318 319 321 321 321 321 320 320 319 323 325 326 326 324 325 325 325 326 326 326 326 327 328 327 326 325 328 331 333 329 325 324
301 303 303 304 304 302 307 308 307 309 308 311 315 318 319 319 321 322 321 321 319 320 322 324 325 327 325 324 324 325 325 327 327 328 327 326 327 326 327 330 332 333 329 326 324
301 302 303 304 305 305 307 308 309 308 308 311 313 317 318 319 321 322 321 320 319 320 322 324 324 325 324 327 326 324 325 325 327 327 328 328 327 327 329 331 333 333 329 326 325
302 303 302 303 303 306 306 307 308 307 308 307 309 312 316 319 320 321 321 320 319 320 320 325 324 326 327 327 325 326 324 325 327 329 327 327 327 326 327 330 332 332 329 326 325
301 302 303 306 302 306 305 307 308 308 307 307 310 312 317 318 319 320 321 321 320 320 324 327 327 324 323 323 325 325 324 325 326 327 328 326 326 326 327 328 329 332 330 327 325
300 302 300 304 304 305 305 305 306 306 308 308 309 310 315 318 319 319 320 322 321 322 322 327 325 324 325 323 323 324 324 325 325 326 326 326 326 327 326 326 330 332 330 327 325
300 300 300 303 304 305 305 306 306 307 307 307 308 310 312 315 315 316 317 318 320 323 325 325 325 325 325 323 322 325 324 325 326 326 326 327 326 326 327 329 330 331 329 328 327

GFSSW_850_thetae_009.txt.gz
Theta_e
308 308 308 308 308 309 308 309 309 309 310 310 310 311 312 312 313 313 316 318 319 322 324 330 330 330 329 329 329 330 332 333 332 331 332 330 331 330 327 327 325 324 324 324 325
308 308 308 308 308 308 308 309 309 309 309 309 310 310 311 311 312 316 317 318 317 318 323 330 330 329 329 329 328 330 332 330 329 330 330 330 330 329 329 328 326 325 324 323 323
307 308 308 308 308 308 308 308 308 309 309 309 309 310 311 311 316 317 319 318 318 316 322 328 328 329 329 329 330 330 332 330 328 327 328 329 328 328 328 328 327 326 324 324 323
303 304 305 307 308 308 308 309 309 309 308 309 309 309 310 310 317 320 318 318 316 314 320 323 326 328 331 331 329 331 329 328 326 326 328 329 328 328 327 327 325 324 323 323 323
309 307 304 304 304 306 307 308 308 308 308 308 308 308 308 316 316 316 317 319 317 315 321 322 325 327 331 330 329 330 329 327 326 326 328 328 327 328 326 325 324 323 323 323 323
308 307 308 308 305 304 304 305 306 307 308 308 308 307 308 314 314 315 315 318 325 322 321 322 325 327 328 329 328 328 328 327 327 327 328 327 328 326 326 325 323 324 324 323 323
308 308 308 306 309 309 306 303 303 304 305 307 308 308 312 313 314 315 314 315 316 319 323 322 322 324 326 328 326 328 329 328 328 327 328 327 327 328 325 325 325 324 324 323 323
309 309 308 308 305 306 309 309 306 303 303 304 307 308 314 313 314 313 316 320 321 322 319 322 322 322 326 326 327 329 329 330 329 329 327 326 328 329 326 326 326 325 325 324 324
307 308 308 308 308 306 306 309 309 308 305 302 305 312 314 315 314 313 314 315 315 318 321 322 323 322 324 328 328 329 330 330 329 329 328 327 328 328 327 326 326 325 325 325 324
304 306 307 307 307 308 304 306 308 309 307 305 312 318 316 315 314 315 315 314 316 317 320 320 324 326 326 328 329 330 331 330 329 330 330 328 328 328 328 327 326 325 326 326 325
304 303 304 306 307 307 306 309 312 318 316 315 316 315 316 315 315 315 316 316 316 316 319 321 326 327 327 328 328 329 330 329 329 329 329 329 329 329 328 327 327 326 325 326 326
302 304 303 304 306 307 306 310 312 311 314 319 318 317 316 316 318 316 318 317 317 320 320 326 327 327 327 327 328 329 330 329 329 329 330 330 329 329 327 326 326 326 326 327 327
295 303 303 303 304 306 309 310 310 310 312 313 313 316 316 316 317 317 316 318 319 319 323 326 327 327 327 328 329 329 329 329 329 329 330 329 329 328 328 327 326 325 326 327 327
299 299 302 303 304 309 310 309 308 309 315 317 317 315 315 316 318 316 318 319 320 320 323 326 327 328 327 328 329 330 328 328 328 329 330 328 329 328 328 327 326 326 326 326 327
304 297 301 303 307 311 310 308 308 310 318 321 320 317 317 317 318 317 317 319 321 321 322 324 326 327 327 328 329 329 328 327 328 328 329 328 329 328 328 326 326 326 326 327 327
305 300 300 304 305 308 310 308 308 317 317 320 320 319 319 317 318 319 316 318 320 321 323 323 325 327 327 328 328 328 327 327 327 328 329 328 328 328 327 326 325 326 326 329 328
303 303 299 305 307 307 308 309 313 316 318 320 321 321 320 319 319 320 319 319 322 322 324 323 325 327 328 328 328 326 327 328 330 331 330 328 328 328 326 325 325 326 327 329 328
303 304 300 302 305 306 308 311 314 315 318 321 321 321 321 321 320 320 320 320 322 323 324 325 326 327 328 328 327 326 326 328 330 331 330 329 328 328 326 325 325 326 329 330 328
303 304 303 304 305 305 307 312 313 315 318 319 321 321 322 322 322 321 322 321 322 324 325 325 327 326 327 327 327 327 327 327 328 328 329 329 329 327 325 325 327 329 330 331 328
303 304 303 303 305 305 306 309 310 312 314 318 320 321 323 322 322 322 322 322 322 322 324 327 328 326 326 327 326 327 327 328 328 330 332 330 329 327 327 327 331 332 332 330 327
304 302 303 304 305 305 306 308 309 309 312 314 317 320 322 323 323 323 323 323 323 322 323 325 328 328 327 328 327 325 326 328 329 328 330 331 329 329 327 328 330 333 332 328 327
301 306 305 304 306 305 306 307 307 309 309 312 313 314 318 322 323 323 324 324 323 323 322 326 328 330 328 328 327 327 326 328 329 330 329 330 330 328 327 327 330 332 331 328 327
304 306 306 306 308 308 307 307 306 309 309 310 312 313 316 319 323 324 324 324 323 323 325 327 328 331 330 328 328 327 326 326 329 330 330 330 329 328 328 328 329 331 331 328 327
301 308 305 305 304 307 309 308 307 307 308 310 311 312 313 316 320 324 324 323 323 322 324 328 330 330 330 330 327 327 326 327 328 331 329 329 329 329 328 329 330 330 331 329 327
304 305 304 306 305 306 306 308 308 307 308 309 310 311 314 319 321 323 323 324 323 322 326 330 332 328 328 327 327 327 326 325 327 328 330 329 329 329 328 329 329 331 331 330 328
302 304 303 304 303 305 306 307 307 307 308 310 310 311 312 316 320 322 322 324 324 322 323 331 331 328 327 326 326 327 327 326 325 327 327 328 329 328 328 327 329 331 331 331 329
303 303 301 302 306 306 305 307 306 307 307 308 309 311 311 313 313 315 317 320 325 324 328 328 330 330 328 325 325 328 327 327 326 325 327 328 329 328 328 328 328 330 330 331 329

GFSSW_850_thetae_012.txt.gz
Theta_e
308 308 308 308 308 308 308 308 308 309 309 309 309 310 310 311 311 312 315 318 318 320 324 328 329 332 332 332 331 331 332 333 333 332 331 331 331 331 330 329 328 327 325 326 327
307 308 308 308 308 308 308 308 308 308 308 309 309 309 310 310 310 312 317 319 319 320 319 329 332 332 332 331 330 330 332 332 332 331 329 329 329 330 329 330 330 327 325 324 325
304 304 305 306 307 308 308 308 308 308 308 309 309 309 309 309 312 315 319 319 319 318 318 326 330 332 331 331 330 331 332 331 331 331 328 328 328 328 329 329 328 327 326 325 324
308 307 305 304 304 305 306 308 308 308 308 309 309 309 309 309 315 324 318 318 317 317 319 322 326 330 331 332 331 332 331 331 331 330 328 327 327 329 328 328 327 326 325 325 325
309 309 308 308 308 306 305 305 306 307 308 308 308 309 309 312 314 316 316 316 318 316 319 320 324 329 331 330 330 332 332 330 330 329 328 327 328 329 328 327 326 325 324 323 323
309 308 308 308 307 308 309 307 305 305 306 307 308 308 309 313 312 313 315 319 318 318 318 320 322 324 326 328 329 330 331 329 329 329 328 328 328 328 328 327 325 324 324 324 324
306 307 308 309 308 307 306 309 310 307 305 305 306 307 309 311 313 315 316 318 322 324 321 320 321 324 325 328 329 329 330 329 329 329 328 328 328 329 327 327 327 326 325 325 324
305 306 308 308 309 308 307 305 308 309 308 305 302 302 310 311 312 313 315 316 316 317 321 324 324 323 323 325 326 328 328 328 329 329 329 329 329 329 327 328 328 327 326 325 325
304 305 306 307 307 308 307 307 305 307 309 308 303 302 310 313 314 313 315 315 319 321 322 321 320 324 323 324 326 328 329 328 329 330 329 329 329 328 328 328 328 327 327 326 326
297 304 304 304 304 306 307 306 305 307 308 310 309 312 315 317 315 316 316 315 316 317 317 319 322 324 325 325 326 328 328 328 330 330 330 330 330 329 328 328 329 329 328 327 326
299 298 303 303 304 305 306 309 313 317 311 315 316 313 317 318 318 316 316 317 315 316 318 318 325 326 326 327 325 327 328 329 331 331 330 331 332 330 330 329 330 330 328 327 327
303 300 297 303 303 303 305 309 312 313 314 315 316 316 315 316 317 316 317 317 317 317 318 319 324 324 325 327 326 326 328 329 329 329 329 329 330 330 330 330 329 328 328 327 328
305 304 298 301 302 302 306 308 311 313 313 313 315 319 319 317 318 318 316 317 319 318 318 320 320 322 325 327 326 327 329 330 329 329 329 329 331 331 330 329 328 327 326 327 329
304 305 302 298 305 310 312 311 313 311 312 313 315 315 316 320 320 319 318 318 320 319 319 319 320 322 326 326 327 329 328 328 329 329 329 329 332 332 330 330 329 326 327 326 329
305 304 305 297 302 308 311 310 310 310 317 319 317 317 317 319 320 319 318 319 320 320 320 320 321 322 327 327 327 328 328 329 329 329 330 328 329 329 330 331 329 326 326 327 329
304 304 304 300 304 306 308 311 310 314 315 318 322 320 319 318 320 320 319 318 319 320 321 320 321 324 325 327 327 327 328 329 328 328 331 329 330 330 330 328 326 326 327 328 329
304 304 304 303 305 308 309 310 313 314 315 319 321 321 320 320 319 320 320 321 321 321 323 321 321 323 325 327 328 328 331 330 331 329 330 328 329 331 331 327 326 326 328 330 329
303 304 304 305 303 306 307 310 313 311 313 320 321 322 321 321 320 320 321 321 321 321 322 323 322 322 325 327 328 329 331 330 330 331 329 331 330 329 328 327 326 325 328 330 329
303 304 304 304 304 304 307 310 310 311 313 315 317 319 322 322 322 321 322 322 321 323 324 324 323 324 324 326 328 329 330 328 329 328 329 330 332 330 328 326 326 327 331 332 330
303 304 305 305 304 305 308 309 309 310 311 312 314 317 319 323 322 322 323 323 322 322 325 326 327 325 325 327 328 330 328 328 328 330 332 329 330 329 329 327 329 333 332 332 330
303 304 304 305 304 305 308 307 308 308 308 309 311 314 316 317 321 322 322 323 322 322 323 327 330 327 327 328 328 328 329 328 329 328 331 333 331 334 331 331 335 334 333 332 330
303 305 305 305 306 305 308 308 307 307 306 308 310 311 313 316 319 321 324 325 323 324 324 326 328 330 328 327 328 329 329 330 330 333 330 331 330 332 332 330 330 333 333 330 328
302 303 306 306 307 307 308 307 307 308 307 307 309 310 313 315 317 321 324 324 324 324 326 326 328 332 331 330 329 329 329 329 333 334 334 330 330 332 330 328 329 332 332 329 328
303 307 307 306 306 308 308 308 307 308 309 307 308 309 312 314 315 318 322 325 324 325 325 328 328 330 333 331 331 332 329 328 329 333 330 330 330 332 330 329 329 330 331 330 328
304 307 306 308 307 306 306 308 307 307 308 308 309 309 310 313 315 318 320 319 323 326 329 331 328 330 329 328 329 329 328 328 329 330 330 330 329 330 332 330 330 331 332 330 329
303 305 305 304 305 305 304 308 307 306 307 309 310 310 311 313 314 316 317 319 321 323 328 332 329 328 327 326 328 328 328 328 327 327 328 329 330 331 330 330 329 332 332 331 329
303 304 304 304 306 307 307 306 307 308 307 307 309 310 310 311 311 312 313 314 317 320 325 332 331 331 329 328 328 331 330 329 328 328 329 329 330 330 330 330 329 333 332 331 330

GFSSW_850_thetae_015.txt.gz
Theta_e
306 307 307 308 308 308 308 308 308 309 309 309 309 309 309 309 310 310 312 318 318 316 323 327 327 329 330 332 330 333 329 330 330 330 330 330 326 328 329 329 329 328 325 326 326
304 304 305 305 306 307 308 308 308 308 308 308 308 309 309 309 309 311 315 315 317 318 317 324 326 328 330 332 332 331 328 330 329 329 328 329 327 327 328 328 329 327 325 326 326
309 308 306 305 304 305 306 306 307 308 308 308 308 309 308 308 308 312 316 319 318 319 319 319 323 330 331 331 332 330 329 328 329 330 330 330 327 327 326 327 328 326 325 325 324
307 308 309 309 309 307 305 305 305 305 307 307 308 308 308 308 310 319 318 317 318 318 319 318 321 325 329 331 331 331 329 330 330 330 330 327 329 327 327 328 327 326 325 325 324
307 307 308 307 307 308 309 309 307 305 305 305 306 307 307 309 310 313 318 315 316 317 317 317 319 321 322 327 330 330 330 330 331 331 329 329 327 327 326 328 327 325 324 325 325
305 305 306 306 306 306 307 306 308 309 306 304 304 304 304 310 312 311 312 313 315 318 316 318 320 320 322 324 328 329 329 329 330 330 328 328 328 327 327 328 326 325 324 324 324
298 304 304 306 307 307 308 306 306 306 310 308 304 302 302 306 311 313 313 314 314 317 318 318 318 320 322 321 323 324 325 326 328 328 326 328 327 327 328 328 327 325 325 324 324
297 298 304 304 305 306 306 305 306 306 306 309 308 305 306 306 309 311 313 315 316 320 321 322 321 319 320 322 323 322 323 326 326 326 327 326 327 326 328 328 327 327 327 325 325
303 300 298 301 303 303 304 301 302 305 305 307 308 306 307 308 310 313 311 312 316 317 319 318 324 321 321 321 321 322 323 324 326 326 326 326 327 327 328 327 327 327 328 327 326
305 303 303 299 299 301 302 300 301 305 305 307 309 309 309 313 313 313 313 312 314 316 317 317 317 317 317 320 323 322 323 325 326 327 326 327 329 327 328 327 327 327 328 327 327
305 304 304 302 299 301 302 302 311 314 310 313 313 310 315 316 317 317 315 314 314 316 314 319 316 317 321 320 323 322 323 325 327 327 327 329 329 329 328 327 328 329 328 328 329
303 303 303 304 302 300 302 302 307 310 311 313 313 314 313 314 315 318 316 317 315 314 315 315 315 316 322 322 322 325 324 324 325 326 329 329 329 328 328 327 328 328 328 328 328
302 302 303 304 303 307 309 310 312 309 311 313 313 313 315 315 315 315 317 316 317 315 314 315 316 317 321 323 324 325 326 325 325 326 327 327 326 327 329 328 328 328 328 328 327
302 303 304 303 303 308 309 311 311 311 312 310 312 313 313 316 319 317 316 317 317 317 315 314 316 318 319 322 323 324 326 325 325 327 327 328 326 327 326 325 326 327 328 328 326
302 303 304 304 304 302 309 309 310 312 312 313 313 314 314 318 320 320 317 318 316 317 317 316 316 317 318 320 322 323 326 325 326 327 326 326 325 325 327 327 326 325 327 328 327
302 302 304 304 304 305 308 309 311 312 312 313 317 315 315 317 320 321 319 318 317 317 318 318 318 317 317 319 322 324 325 326 326 327 327 327 326 326 326 327 325 325 328 329 327
302 303 303 305 305 304 306 308 312 313 310 312 317 316 316 316 319 321 320 318 318 317 318 319 318 318 319 319 320 325 324 325 326 325 325 326 326 325 326 327 324 326 329 329 328
302 303 303 304 304 304 305 309 310 309 309 311 311 312 313 318 317 319 320 318 318 317 317 318 319 319 319 319 321 322 324 325 328 329 326 326 326 326 326 326 326 329 329 329 329
302 303 303 304 305 305 304 308 309 307 308 310 309 311 315 313 317 318 319 319 318 318 318 317 319 320 320 320 321 323 325 324 325 327 325 325 329 328 325 324 323 329 330 329 329
303 303 304 304 305 305 305 307 306 307 307 308 308 309 309 310 314 316 318 318 319 318 318 319 320 320 320 320 321 322 325 327 324 326 326 327 328 330 326 324 328 330 330 329 329
304 304 304 305 305 304 306 306 307 306 306 307 307 307 308 310 311 313 317 320 320 320 318 318 322 323 321 320 320 321 324 325 322 322 324 327 327 326 324 327 329 330 331 330 329
303 305 304 305 305 305 306 305 307 307 307 307 307 307 307 309 311 313 316 320 320 320 318 318 321 321 324 322 321 322 324 324 325 327 324 325 328 326 328 330 329 331 331 330 329
303 303 304 306 305 305 305 306 306 306 307 308 309 309 308 309 313 314 317 317 318 319 320 318 319 323 326 323 322 324 325 325 324 324 327 328 327 326 327 328 332 331 331 330 328
302 304 305 304 302 306 306 306 306 306 307 307 308 309 308 308 310 312 314 316 317 320 323 322 318 319 325 325 324 324 326 325 325 326 326 329 326 329 327 327 329 331 330 329 328
303 304 305 306 306 306 306 305 305 305 306 305 307 308 309 308 310 312 313 314 316 318 315 321 319 323 322 324 325 326 327 326 325 327 327 326 328 326 325 325 328 330 329 329 328
302 304 304 304 305 305 305 305 305 305 306 306 307 308 309 310 310 312 312 312 314 314 313 315 322 320 322 324 324 326 327 326 326 325 326 326 325 325 328 328 329 330 329 328 328
303 303 304 304 304 305 306 307 307 306 307 308 308 308 309 310 309 310 310 310 311 312 312 315 326 322 321 322 324 324 327 326 326 325 324 324 324 327 328 326 326 330 329 328 328

GFSSW_850_thetae_018.txt.gz
Theta_e
305 306 306 306 307 307 308 308 308 308 308 309 309 309 309 309 310 310 312 317 316 317 316 326 324 327 329 330 330 332 328 330 329 328 329 329 326 329 327 327 327 326 326 327 327
309 308 307 305 305 305 305 306 307 307 308 308 309 309 308 308 309 312 319 317 316 314 317 316 327 327 327 329 330 330 328 332 331 328 327 328 326 327 326 325 327 327 325 326 326
305 306 307 308 309 308 307 305 305 305 306 307 308 308 308 308 309 317 316 316 317 315 316 317 321 328 328 328 329 330 331 330 330 329 328 328 328 328 326 324 326 326 325 326 326
303 304 305 305 306 307 308 309 309 307 305 305 305 307 307 307 309 314 317 317 317 317 317 318 317 321 327 327 328 329 330 330 330 330 329 328 329 327 328 327 327 327 326 325 326
297 299 301 302 303 304 305 305 307 309 310 308 305 304 305 305 307 316 317 318 315 317 318 318 319 320 318 323 328 329 330 330 330 330 329 329 327 327 327 329 327 326 325 325 325
299 297 296 298 300 302 303 304 305 306 306 308 309 306 303 304 312 313 313 311 312 315 316 318 318 318 318 319 320 325 326 328 329 329 329 327 327 326 328 328 328 325 325 325 325
303 303 300 298 299 301 302 303 304 305 306 306 307 307 308 305 310 310 311 313 312 312 313 316 317 319 319 317 319 320 320 321 322 324 324 326 325 325 327 327 327 324 324 324 324
306 304 303 303 301 300 300 299 299 300 302 306 306 308 311 310 310 309 309 313 313 312 313 317 317 318 319 319 319 319 319 321 322 322 325 324 326 324 327 327 326 325 325 324 324
304 304 303 303 303 301 301 302 302 300 300 305 307 307 309 309 310 314 312 310 313 314 315 318 321 319 318 316 316 318 321 320 321 321 323 324 325 324 326 326 325 326 326 326 325
302 302 302 303 303 303 302 302 302 301 301 307 308 310 307 309 311 312 312 310 309 313 313 317 321 319 314 317 321 322 319 321 322 323 323 323 323 324 326 326 325 326 327 327 327
302 302 302 302 303 303 303 306 308 312 309 310 308 309 313 312 313 314 314 311 310 313 314 315 318 318 320 318 319 321 321 321 322 323 324 324 324 326 326 326 324 326 327 327 327
302 302 302 302 302 302 305 308 310 307 306 308 310 311 309 310 312 313 315 313 312 313 313 314 315 316 316 317 317 318 320 322 322 322 322 323 325 326 325 325 325 326 327 326 326
302 302 302 302 303 302 308 310 308 307 307 310 310 311 312 311 313 312 314 315 313 313 313 314 315 318 318 317 320 320 320 320 324 324 323 323 324 325 326 326 327 327 326 325 327
302 302 302 302 303 304 305 308 308 308 309 311 311 312 312 313 315 313 314 316 315 313 313 313 315 317 317 316 316 321 322 322 323 325 324 323 325 322 324 324 324 325 325 326 327
302 301 302 303 304 304 303 307 309 308 309 309 310 311 312 313 316 316 316 315 316 315 314 313 314 315 315 315 316 320 322 322 324 325 323 324 323 322 322 325 324 323 325 327 327
301 301 303 303 303 303 304 307 309 309 310 309 310 310 312 313 314 320 317 316 316 316 315 315 315 314 314 316 316 318 321 321 322 323 323 324 324 326 323 325 325 322 326 326 325
301 301 302 303 303 303 304 306 309 312 309 309 308 308 309 313 314 317 318 316 316 316 315 316 315 316 315 315 317 318 318 320 322 324 326 324 325 326 323 323 324 324 326 326 326
301 301 302 302 302 304 305 306 311 307 308 308 308 308 311 308 310 316 318 317 316 315 315 315 317 317 317 316 315 315 317 321 325 325 325 323 324 325 323 323 325 327 327 326 326
302 303 302 303 303 305 305 308 306 307 306 307 307 308 308 308 309 311 317 318 316 316 315 315 316 318 318 318 316 316 316 319 322 324 323 323 324 325 324 324 325 326 327 327 327
303 303 303 304 304 305 305 305 306 306 306 306 307 307 307 307 308 310 313 317 318 317 316 316 316 317 318 317 317 316 319 322 319 325 325 324 325 327 323 326 326 326 325 327 327
302 303 304 305 305 305 306 305 304 304 306 307 307 306 307 307 307 309 311 315 316 318 316 316 316 319 317 317 317 316 317 321 321 321 324 324 324 321 323 322 327 326 326 327 328
302 303 303 304 305 304 304 304 305 305 305 306 307 307 308 309 308 310 311 313 312 314 318 316 314 316 318 318 318 317 316 320 324 323 321 322 322 323 321 326 327 326 327 328 328
301 302 304 304 306 304 303 304 305 306 306 306 307 307 308 309 308 311 313 313 312 313 315 317 316 316 320 319 320 317 318 321 319 320 322 322 322 323 325 326 329 328 327 328 328
301 301 303 301 302 304 305 306 305 305 306 306 306 305 308 308 309 308 309 310 310 311 314 313 317 316 319 321 320 320 319 322 322 322 322 323 324 325 326 329 327 328 328 328 328
301 303 304 302 303 303 304 304 305 305 304 305 304 305 306 307 309 309 308 308 310 312 310 310 317 316 317 319 321 322 321 322 324 322 324 323 323 324 323 329 328 329 328 327 328
301 303 302 302 303 302 303 303 305 306 306 306 306 307 307 308 309 311 309 309 311 311 310 309 314 318 317 318 318 319 321 323 324 323 322 323 324 323 323 329 329 328 327 326 327
302 302 302 303 300 300 301 305 305 306 306 306 307 307 307 307 309 309 310 310 310 310 309 310 314 317 318 318 318 318 320 323 324 324 324 323 321 321 324 326 329 327 327 327 327

GFSSW_850_thetae_021.txt.gz
Theta_e
309 308 307 307 306 306 305 305 306 307 308 308 309 309 309 310 311 313 317 322 316 314 314 315 324 325 328 328 329 330 327 328 328 328 328 328 327 329 328 327 326 326 326 326 326
305 305 306 306 308 308 308 307 306 306 306 307 308 308 308 309 311 314 325 321 321 316 312 315 320 325 328 328 330 328 326 328 327 327 327 328 327 327 326 327 326 326 327 326 326
299 301 302 304 305 305 306 308 309 308 306 306 306 306 307 308 308 316 320 321 323 317 313 312 317 326 326 327 328 328 329 328 327 329 330 327 328 328 326 325 327 326 327 326 325
299 297 297 298 300 302 304 305 305 307 309 309 308 305 305 305 307 316 318 318 317 317 314 312 315 327 326 325 326 328 328 329 329 329 330 328 329 328 328 328 329 328 327 326 325
303 303 302 299 297 297 299 301 303 304 305 307 308 308 308 303 305 314 316 316 316 317 315 313 316 319 318 321 325 327 326 327 328 329 329 329 328 328 329 329 328 327 326 326 325
306 305 304 303 302 300 299 300 300 302 304 306 308 307 309 306 307 310 315 315 313 317 317 315 318 318 318 318 317 321 322 324 325 327 328 327 326 325 325 326 327 326 326 326 326
302 305 304 303 303 303 302 300 300 300 301 304 306 307 310 311 309 309 310 312 312 311 314 316 317 318 318 316 318 317 316 318 319 321 322 323 322 324 325 325 326 326 325 326 325
301 302 302 302 302 302 303 302 302 301 301 300 302 309 310 309 310 311 310 311 311 311 311 311 314 318 317 318 318 317 317 318 320 321 322 322 323 323 325 325 325 326 326 325 325
301 301 301 301 302 302 302 302 302 303 302 302 305 307 309 307 309 312 311 311 312 312 312 313 316 318 316 316 314 315 317 317 318 319 320 321 322 322 324 325 324 325 326 324 325
302 301 301 301 301 302 302 302 305 308 304 304 306 308 308 309 309 309 310 311 309 309 309 311 316 315 312 313 317 317 317 318 319 320 319 320 320 322 323 324 324 324 326 325 324
301 301 302 302 301 302 302 303 308 309 307 308 307 307 310 310 310 311 310 309 308 310 309 312 313 319 318 319 319 318 319 320 320 321 321 320 321 322 322 323 323 324 325 326 325
302 302 302 302 302 301 302 304 308 306 306 307 307 309 308 309 310 311 313 309 309 308 311 312 313 316 320 319 319 318 317 319 320 321 320 320 321 321 321 322 324 325 326 324 324
303 303 302 301 301 301 303 304 304 304 305 307 307 308 308 307 311 311 312 312 311 310 311 312 314 315 319 319 319 318 317 318 319 320 322 321 323 322 322 322 324 326 326 326 326
303 303 301 301 302 304 303 303 304 305 306 308 311 309 309 309 311 309 312 314 312 311 310 310 312 315 316 318 315 316 317 318 319 320 320 321 323 322 321 322 321 323 324 325 325
302 301 301 301 303 303 302 303 306 306 307 307 309 310 312 311 312 311 311 314 315 312 312 312 312 313 315 316 316 317 318 320 321 321 322 323 322 322 320 323 321 320 324 324 325
302 301 301 301 301 302 303 304 307 308 309 308 308 307 310 312 312 314 314 312 314 315 312 312 314 313 314 317 317 316 318 318 319 319 322 322 322 322 321 322 323 322 323 325 325
303 302 301 301 302 302 303 305 307 309 307 308 307 306 307 308 312 313 314 313 313 315 315 313 313 313 314 313 314 314 313 315 318 319 323 321 322 323 321 321 322 322 323 325 325
301 301 302 302 302 302 304 305 307 307 308 307 306 306 307 307 307 309 313 315 314 314 314 314 314 314 314 313 313 314 315 318 321 323 323 321 324 324 322 322 323 324 323 325 324
301 301 303 304 303 304 304 305 305 307 306 306 306 307 307 307 307 308 309 314 315 314 313 314 314 316 315 315 314 313 315 316 318 321 321 321 322 322 323 323 322 324 324 325 325
300 301 303 304 303 304 305 304 305 305 305 306 307 307 306 306 307 307 309 312 315 314 313 314 313 315 315 315 314 312 313 315 315 322 324 323 323 324 324 324 325 324 323 325 326
301 302 303 304 303 304 305 303 304 304 304 305 306 305 306 307 308 308 309 311 312 312 313 314 314 317 315 315 315 313 314 314 314 317 321 323 323 319 321 323 325 323 324 325 326
301 300 302 303 304 302 301 303 303 304 304 305 306 306 307 308 308 307 308 310 310 310 312 312 312 315 315 315 316 315 314 314 319 319 319 320 322 321 319 320 323 323 325 326 326
300 300 302 302 305 304 304 303 304 304 305 305 306 306 307 307 308 308 309 310 309 309 312 312 315 316 314 317 316 315 315 315 314 317 320 323 323 319 321 320 324 323 325 326 326
300 301 302 301 301 303 305 304 305 304 304 304 306 305 305 306 307 308 308 307 308 308 311 310 314 317 316 317 317 316 316 315 315 317 319 321 322 324 325 325 325 325 325 326 327
301 301 303 302 302 303 302 304 304 305 304 304 304 304 305 306 307 308 309 309 308 308 310 308 311 316 318 316 316 319 316 316 318 318 320 321 321 322 323 324 325 326 326 326 326
302 302 301 301 302 301 302 304 305 305 306 306 305 305 306 307 308 308 310 310 308 308 310 307 309 314 319 318 316 316 318 317 318 319 320 320 320 319 321 326 326 326 325 325 326
301 302 301 301 300 298 298 302 304 305 306 306 306 306 306 307 308 308 308 309 309 309 309 309 310 309 317 318 316 316 316 317 318 320 321 322 320 319 322 327 326 326 326 326 327

GFSSW_850_thetae_024.txt.gz
Theta_e
303 304 305 306 307 308 308 308 307 306 307 307 307 308 309 309 310 311 315 323 319 316 313 316 320 321 325 328 328 329 326 326 327 327 326 327 327 327 329 329 327 328 327 328 326
298 299 299 300 301 303 304 306 307 308 308 307 306 306 307 307 308 309 319 320 320 317 317 313 315 319 327 327 328 327 325 327 324 324 325 326 327 328 327 327 328 327 328 327 327
302 302 301 299 298 299 299 301 303 305 306 308 309 308 306 305 305 310 314 316 319 322 321 314 312 322 327 326 328 327 329 327 326 326 327 328 328 329 328 326 328 327 330 330 328
304 303 303 302 302 300 298 298 298 300 302 304 305 307 309 308 305 313 315 316 317 320 319 315 312 325 323 323 327 327 327 328 327 327 327 327 328 328 329 328 329 329 329 327 326
302 302 303 302 302 302 302 302 300 300 301 303 304 305 307 309 306 312 314 316 317 317 317 314 317 325 323 323 325 324 325 326 327 327 327 327 328 328 328 329 329 328 326 327 326
301 301 301 302 302 302 302 302 302 302 300 300 303 306 308 309 310 311 310 314 312 317 315 313 313 317 318 317 318 322 325 323 323 324 323 325 324 325 326 326 325 326 327 326 325
300 301 301 301 301 301 302 302 302 302 302 301 300 304 307 308 309 310 309 310 310 312 311 315 312 316 317 316 317 317 315 315 316 317 318 320 319 321 322 323 324 325 326 326 326
299 300 301 301 301 301 301 301 301 301 302 302 301 306 306 306 307 309 310 310 308 309 310 310 316 317 316 316 316 317 315 317 317 318 318 319 319 320 321 322 323 324 325 325 325
299 299 300 301 301 301 301 301 301 302 305 305 305 306 305 303 306 309 309 310 311 309 309 311 311 315 315 315 314 314 315 314 315 316 317 319 319 320 322 322 322 323 324 325 325
299 300 300 301 301 301 301 301 303 308 307 305 306 305 304 305 308 308 309 308 310 309 308 310 315 313 311 313 314 315 314 315 315 317 316 316 317 319 320 320 321 323 323 324 324
302 302 302 301 301 301 301 301 307 307 305 305 304 304 303 309 309 309 308 308 307 308 306 309 311 316 314 314 314 315 314 315 317 318 318 318 318 319 320 320 320 321 322 324 325
302 302 302 302 301 301 301 302 305 303 304 306 307 307 305 305 307 309 310 308 308 309 308 310 311 313 315 315 316 316 316 317 318 319 319 318 319 318 319 319 320 322 323 324 325
302 302 302 301 301 302 303 303 303 304 303 306 306 307 306 306 308 307 309 309 309 308 308 309 311 313 317 316 317 318 318 318 318 318 317 317 318 318 319 321 322 323 324 325 325
302 302 301 301 302 302 302 303 303 305 305 307 308 308 308 307 308 306 309 310 310 309 309 308 310 312 315 317 318 317 319 320 320 318 317 318 320 319 319 320 320 322 323 324 324
303 303 303 302 302 302 302 302 303 305 306 305 309 310 308 308 308 308 307 311 312 310 309 309 310 310 313 317 319 318 318 319 318 317 318 320 320 321 319 320 320 320 323 324 323
302 301 301 302 303 301 303 303 306 307 307 307 306 306 307 311 310 311 308 309 313 310 310 310 312 311 313 315 318 317 316 315 315 316 317 317 320 319 320 321 321 320 323 324 324
300 300 301 302 303 302 302 304 304 306 306 306 306 306 307 306 310 311 312 308 312 314 312 311 310 312 312 314 314 313 312 313 314 315 318 318 318 319 319 319 320 320 321 323 325
300 300 301 303 303 302 303 303 305 305 305 306 306 306 306 307 306 307 310 312 310 311 313 313 312 312 312 312 314 314 312 313 315 319 321 318 322 321 320 321 322 323 322 323 325
300 301 304 303 303 302 303 303 303 306 305 306 306 306 305 306 306 307 307 313 313 311 312 314 314 313 313 313 314 312 315 312 315 318 319 319 320 320 319 320 320 320 322 323 325
301 301 303 303 303 303 303 302 303 304 304 304 306 306 305 305 305 306 307 311 311 310 310 312 314 314 314 313 313 313 312 314 312 318 321 320 322 322 322 322 324 323 321 323 324
300 300 302 304 303 303 301 302 303 303 304 304 305 305 305 305 306 305 308 309 310 308 310 312 312 315 313 313 312 310 313 311 312 314 318 321 321 318 321 321 323 322 323 324 324
299 297 302 303 303 300 301 303 303 303 303 304 304 304 304 306 307 305 305 307 308 309 308 311 311 314 314 313 314 313 312 312 314 314 315 318 319 319 319 318 320 321 323 324 325
300 300 301 302 303 304 304 304 303 304 304 305 305 305 306 307 306 308 308 308 307 308 308 311 312 314 314 314 314 314 312 312 312 313 315 316 317 318 319 321 319 321 324 325 325
300 299 301 303 301 304 303 303 304 304 304 304 304 305 304 306 306 307 308 307 307 308 309 310 310 314 315 315 313 314 314 313 311 311 317 318 319 321 322 321 321 322 324 324 325
301 300 302 300 300 302 301 302 303 304 305 304 303 304 305 307 307 308 309 309 308 309 310 308 308 312 312 315 316 315 315 314 314 314 315 317 319 319 319 320 321 324 324 324 325
301 301 300 300 301 300 300 303 303 304 304 305 305 305 305 305 307 307 308 310 310 308 310 309 308 309 310 314 316 318 315 315 315 314 314 316 317 317 319 323 323 324 324 325 325
301 301 301 301 300 298 296 302 302 302 303 305 305 305 304 305 306 305 305 307 308 309 309 309 308 308 309 310 314 316 317 315 315 315 316 317 317 318 322 323 323 324 325 326 326

GFSSW_850_thetae_027.txt.gz
Theta_e
300 300 299 300 301 302 303 305 306 307 308 308 308 307 308 310 311 311 313 319 320 317 314 317 320 318 324 326 327 329 330 328 327 328 328 328 329 327 328 329 328 327 328 328 328
302 302 302 302 301 300 300 300 301 303 305 305 307 308 309 308 308 308 317 316 317 314 313 314 313 317 324 327 328 329 330 328 327 327 327 327 327 328 329 328 328 329 328 328 329
302 302 302 303 303 302 302 302 300 299 300 302 304 306 307 309 308 310 313 315 316 315 313 312 312 319 325 327 328 329 331 329 328 327 326 327 328 328 328 329 328 328 328 329 329
301 301 301 301 302 302 302 302 302 302 301 300 300 301 304 306 311 310 311 313 315 316 313 312 318 323 324 327 327 328 328 328 328 328 328 328 328 328 328 328 328 328 328 329 329
300 300 300 300 301 301 301 302 302 302 302 302 301 300 302 307 308 310 313 314 315 317 316 313 319 319 321 323 325 328 327 327 328 328 328 328 327 327 326 324 325 327 327 326 325
299 299 300 300 300 300 300 301 301 301 301 302 302 300 303 306 308 309 310 312 314 311 315 313 315 319 320 322 323 323 325 325 326 326 326 326 325 323 323 322 323 323 323 323 324
297 298 299 299 300 300 300 300 300 300 301 301 303 304 306 305 307 309 309 310 310 309 309 312 315 316 318 319 319 319 322 322 321 322 321 319 319 320 320 320 321 321 323 323 324
297 298 298 298 299 300 300 300 301 300 300 301 305 306 305 303 304 307 308 310 310 309 308 309 310 315 316 316 317 319 319 320 320 319 319 319 320 321 321 321 322 323 323 323 323
299 301 301 301 301 300 300 300 300 301 302 304 306 305 305 303 303 304 305 307 309 310 307 309 309 314 316 318 319 318 320 319 319 318 318 320 321 321 320 321 321 322 323 323 324
302 302 302 301 301 301 300 300 303 306 307 304 305 305 303 305 306 307 308 308 308 309 309 308 312 314 314 317 320 319 318 318 318 318 318 318 320 321 321 322 322 322 323 323 323
302 302 302 301 301 301 301 301 306 306 304 306 305 305 304 304 305 306 309 308 309 308 311 309 312 316 316 315 317 319 320 321 318 319 318 321 322 323 322 322 322 322 322 322 322
302 302 302 301 301 301 302 303 303 304 304 304 303 305 303 304 306 305 306 309 309 310 311 310 313 315 316 316 314 315 316 318 318 318 320 322 322 322 322 322 321 322 323 324 325
302 302 303 304 302 302 300 302 303 303 305 305 305 306 306 306 307 306 307 308 309 310 311 313 314 313 314 316 316 316 317 317 319 321 320 321 322 322 322 322 321 321 324 324 324
301 301 301 302 302 301 302 302 302 304 307 306 307 307 307 307 308 307 306 309 309 310 310 312 313 313 313 315 317 318 318 318 318 319 323 321 325 323 322 322 323 323 325 325 323
300 300 300 301 302 303 301 303 303 304 303 305 309 308 307 308 308 310 308 308 311 311 311 311 311 312 313 314 316 317 318 318 318 320 321 322 322 322 323 322 323 322 324 326 322
301 301 300 301 302 302 302 302 305 307 303 306 307 307 308 308 308 308 309 307 309 312 311 313 311 312 314 314 316 317 319 320 320 321 323 323 322 323 321 322 322 323 325 323 324
302 300 300 301 302 302 302 303 305 305 304 307 307 306 306 307 308 308 309 309 310 313 314 312 312 312 312 313 316 319 319 321 322 323 326 321 321 322 322 322 323 325 326 324 324
301 301 303 302 302 302 302 304 304 303 304 305 306 305 306 306 306 306 309 313 309 313 316 314 314 313 313 313 316 319 321 322 323 322 322 320 319 319 322 322 321 324 324 324 325
301 302 302 302 302 302 303 304 302 305 305 305 305 304 306 305 305 306 308 314 312 309 312 316 316 315 313 314 315 318 319 319 320 321 321 321 322 324 325 325 325 324 324 326 327
300 302 302 303 302 302 304 303 303 304 304 304 305 306 305 304 305 305 307 309 311 311 311 314 317 316 314 314 316 318 318 317 319 318 318 321 325 323 326 327 327 327 326 326 326
300 301 302 302 303 303 305 304 304 303 303 304 304 304 304 303 306 306 305 306 309 309 310 313 315 316 315 314 315 316 318 318 318 318 317 319 322 328 328 328 329 330 327 326 326
300 303 301 302 304 300 305 303 303 304 304 304 304 304 304 304 307 307 305 307 307 309 311 312 317 318 316 315 315 315 317 318 318 319 318 321 321 324 327 326 328 328 326 326 327
300 300 301 302 303 304 303 304 304 304 305 305 305 305 306 306 307 307 307 308 307 308 309 312 316 318 317 316 316 316 316 318 318 319 318 318 321 323 324 325 324 328 326 326 327
300 302 302 301 301 302 302 303 304 304 305 305 305 305 306 306 306 307 307 308 308 308 309 310 312 317 318 317 318 316 316 316 317 318 318 318 318 322 323 326 327 326 326 327 327
300 301 301 302 302 301 301 302 304 303 304 304 305 305 306 306 306 307 308 309 309 310 310 310 312 312 313 313 315 318 316 316 316 317 318 317 318 321 322 325 327 326 326 327 327
300 301 301 301 300 301 301 302 303 303 303 304 305 306 305 306 306 307 308 309 311 309 311 310 313 312 315 314 315 317 318 316 316 316 317 319 321 320 322 324 326 326 326 327 327
301 300 301 302 301 301 302 302 303 303 303 304 304 305 306 306 306 306 306 306 307 309 311 311 312 313 316 313 316 318 318 319 317 317 317 318 319 320 322 325 327 327 327 328 328

GFSSW_850_thetae_030.txt.gz
Theta_e
304 303 302 302 302 302 302 303 303 303 305 306 308 309 310 310 311 310 312 315 314 316 315 316 317 324 327 328 330 330 332 332 331 331 331 331 331 330 330 330 329 330 330 330 330
301 301 302 302 302 302 302 302 302 302 302 303 304 306 307 308 309 311 314 314 313 313 314 321 321 321 326 329 329 331 332 331 331 331 331 330 330 329 330 330 330 329 330 330 330
300 301 301 301 301 301 302 302 302 302 302 302 301 301 302 304 308 312 315 316 316 318 315 316 319 320 322 325 328 331 333 331 331 330 330 330 330 330 330 331 330 330 329 329 329
299 299 300 300 300 300 301 301 301 302 302 302 302 302 302 302 313 314 312 313 313 316 315 315 320 320 323 324 326 331 330 331 330 330 330 331 330 330 330 330 329 328 327 327 328
297 298 298 299 299 300 300 300 300 300 301 301 302 302 303 310 309 309 311 314 314 315 316 316 317 321 326 326 325 328 329 329 329 330 330 330 330 331 330 328 327 326 325 325 325
297 297 297 298 298 298 299 300 300 300 300 300 301 301 307 309 308 308 309 313 314 313 319 316 317 320 326 326 327 326 326 326 328 329 329 330 330 328 328 326 325 324 324 324 323
299 299 299 299 299 298 299 299 300 300 300 300 301 305 308 306 305 307 308 308 310 310 315 317 316 319 323 325 325 325 326 327 326 326 328 327 328 327 325 323 323 323 324 324 323
300 302 301 301 300 300 300 299 299 300 300 300 302 308 308 304 305 304 307 308 309 310 310 312 315 317 320 321 322 324 326 327 327 326 325 325 326 327 325 324 325 325 325 324 323
302 303 303 302 301 301 301 300 300 300 301 303 307 308 307 306 305 305 307 308 310 311 311 310 311 315 318 320 324 325 327 327 327 326 324 324 326 327 325 324 325 325 326 325 323
302 303 302 302 302 301 301 301 301 304 307 308 308 307 306 305 307 308 308 310 310 311 312 310 312 316 319 322 327 326 326 327 329 328 323 324 324 326 324 324 325 326 326 324 324
302 302 302 302 303 302 301 305 307 307 306 307 306 307 305 305 305 306 309 311 311 311 315 313 314 317 319 320 323 325 327 327 326 327 325 325 326 326 326 326 327 327 326 325 325
300 300 301 301 301 302 303 304 305 305 306 305 305 304 304 304 305 306 306 310 313 314 314 316 315 318 318 319 320 321 324 326 326 326 326 325 326 328 328 328 327 326 326 325 326
301 300 300 300 300 303 304 304 304 305 307 305 305 306 306 306 306 306 306 307 313 314 314 317 317 316 317 319 320 320 321 323 324 325 325 325 325 326 328 327 327 326 324 324 324
302 302 301 300 304 304 304 304 304 305 308 306 309 309 309 309 310 309 309 307 311 314 314 315 317 317 317 317 320 321 320 320 321 322 323 323 329 329 329 329 328 326 326 324 327
302 302 301 300 302 304 303 304 305 305 305 307 311 309 309 310 310 311 310 309 309 313 314 315 315 317 318 318 318 320 320 321 321 322 323 324 326 328 329 329 328 328 326 324 329
303 301 301 303 303 303 304 304 305 308 305 306 308 308 309 309 310 309 310 310 309 310 314 315 315 316 318 318 318 318 319 321 322 323 326 325 326 329 330 330 329 329 324 324 331
301 301 302 302 304 302 303 304 307 306 305 306 308 307 307 308 309 310 310 312 312 310 311 315 315 315 316 317 318 318 321 323 325 326 327 326 328 329 329 328 329 326 325 330 331
301 302 303 303 302 302 304 306 304 303 304 306 306 306 306 307 307 308 309 314 313 311 312 315 318 316 316 317 318 319 322 324 325 329 329 327 328 329 325 327 325 324 324 331 331
300 304 304 305 302 302 305 306 304 304 305 305 305 305 305 306 306 306 308 308 313 312 313 316 318 317 316 316 319 320 323 323 326 328 326 328 327 325 324 324 324 324 323 330 331
302 304 304 303 302 304 306 305 305 305 305 305 305 305 306 306 305 306 307 309 309 312 314 316 319 318 316 317 318 321 322 324 325 329 329 326 325 326 326 326 326 329 328 329 332
304 305 303 303 303 303 309 306 305 305 305 306 305 305 305 305 305 305 307 308 308 310 312 315 317 320 317 317 318 320 322 323 325 325 328 327 325 324 325 327 330 331 330 332 332
303 308 303 304 306 303 306 305 304 305 305 306 306 306 306 306 307 308 308 308 307 308 312 314 318 321 319 318 319 319 321 323 323 325 323 324 322 327 328 331 329 331 333 332 331
304 303 303 305 307 307 305 304 305 306 306 306 307 306 307 307 308 308 308 308 308 309 312 313 318 322 321 319 318 320 320 322 323 325 325 323 321 325 328 330 330 332 331 331 331
304 307 305 304 303 302 304 305 305 304 305 305 307 307 307 307 307 308 308 310 308 310 309 312 317 320 321 320 319 319 320 321 322 323 323 322 321 326 328 329 331 332 331 331 331
304 305 303 307 304 302 304 304 305 305 304 305 307 307 307 307 308 308 309 309 310 310 311 314 316 318 318 318 318 321 318 319 321 322 322 321 321 322 328 326 330 331 331 331 331
303 303 303 303 303 303 304 306 305 305 304 305 306 306 306 307 307 308 308 308 310 309 312 313 318 317 318 317 318 320 320 319 319 320 320 320 320 321 322 321 326 330 331 332 332
301 301 301 303 303 303 305 305 304 304 305 305 305 306 307 307 307 307 307 308 309 310 311 314 315 318 318 318 318 320 320 320 319 319 320 321 321 321 323 323 326 329 331 332 332

GFSSW_850_thetae_033.txt.gz
Theta_e
301 301 301 301 302 302 302 302 302 303 302 302 304 307 308 309 309 310 315 316 317 318 317 321 326 328 330 329 327 329 332 333 333 333 332 331 332 332 331 331 331 330 330 331 331
300 300 300 301 301 301 301 302 302 302 302 303 303 303 304 306 308 311 314 315 318 316 316 323 325 323 326 331 328 331 335 334 333 333 333 333 332 332 331 331 331 331 331 330 331
299 299 299 299 300 300 300 300 301 301 302 302 302 303 303 304 311 314 315 314 316 317 316 316 323 326 324 324 331 332 334 334 333 332 332 332 332 331 332 333 331 332 331 331 330
297 297 298 298 298 299 299 300 300 300 300 301 301 302 302 303 315 319 315 315 313 315 314 313 315 322 326 327 326 331 331 332 332 332 332 333 332 333 332 332 331 331 331 330 328
298 298 298 298 298 298 298 298 299 300 300 300 300 301 302 310 312 312 311 313 313 317 320 319 317 319 327 326 327 328 328 328 330 331 331 331 332 332 332 331 331 330 329 328 327
298 299 299 298 299 299 298 298 298 299 299 300 300 300 308 310 311 311 312 312 314 316 320 321 320 321 325 328 329 328 329 329 328 328 329 331 332 331 332 331 331 330 329 327 326
300 301 301 300 300 300 300 299 299 299 299 299 300 303 308 308 308 309 310 311 312 314 315 319 322 321 323 326 327 328 330 331 330 329 330 328 331 332 330 330 330 329 327 327 327
302 302 302 302 301 301 301 300 300 300 299 299 300 308 309 307 307 307 308 309 310 311 314 315 319 321 321 323 325 327 330 331 330 330 329 329 331 330 329 329 329 328 327 327 327
302 302 302 302 302 302 302 301 301 300 300 302 306 309 309 308 308 308 307 308 310 312 312 313 314 318 320 323 325 328 330 330 330 330 330 330 331 329 327 328 328 328 327 327 328
300 300 300 300 300 301 301 302 306 307 308 310 310 310 310 307 307 309 310 310 311 311 313 314 314 317 319 322 326 326 328 328 329 329 329 330 330 330 327 327 327 328 327 326 328
301 301 301 301 300 300 300 307 309 310 311 310 309 310 308 308 306 307 308 311 312 312 316 316 317 317 318 320 323 325 326 328 329 329 329 330 331 331 328 327 327 327 327 328 329
302 302 302 302 300 300 306 306 307 306 307 306 305 306 306 305 306 306 306 308 312 315 315 318 318 319 318 319 320 322 324 326 328 329 330 330 330 329 329 328 327 328 329 329 329
302 302 302 301 300 308 306 306 306 306 308 306 306 307 307 307 307 307 306 307 310 315 316 316 319 318 318 319 320 322 323 325 327 328 329 329 330 330 329 329 327 326 326 328 329
302 302 301 300 305 306 306 305 305 306 309 308 309 309 309 309 311 309 308 307 309 311 315 316 316 319 319 319 320 321 322 324 325 326 328 328 331 329 328 328 328 328 329 329 328
301 300 301 301 305 306 305 305 305 306 308 309 310 310 310 310 311 313 311 309 309 310 311 314 317 317 319 320 320 321 322 324 325 325 326 326 326 326 326 327 329 330 330 329 329
301 300 302 306 305 304 304 306 305 309 308 308 310 310 311 311 311 311 311 312 311 310 311 314 315 318 318 319 320 320 321 323 325 325 327 326 326 327 327 328 329 330 330 329 328
301 301 305 305 306 305 305 306 309 309 308 308 309 309 309 309 310 310 311 312 314 312 311 311 314 317 318 318 320 321 322 323 325 327 329 325 327 328 327 328 330 330 330 328 326
301 303 306 306 306 305 306 308 310 306 306 307 307 307 307 307 309 309 309 310 312 313 318 311 312 316 318 318 320 321 322 323 325 327 326 326 328 328 330 330 329 329 328 326 333
304 307 307 306 306 306 306 312 307 307 306 306 306 306 307 306 309 308 308 309 312 313 319 315 311 315 317 318 319 321 323 323 325 326 326 328 330 331 330 330 329 329 329 327 334
306 307 307 306 305 307 308 308 308 307 307 307 307 307 306 307 309 309 308 312 309 309 310 317 317 313 317 318 319 320 322 323 326 326 328 330 330 332 328 327 328 327 326 327 334
307 308 307 306 307 307 310 308 307 306 307 307 308 308 308 307 307 307 307 310 310 309 312 315 319 320 316 320 319 320 322 322 324 325 328 330 332 330 329 328 329 328 327 327 334
307 309 305 305 309 309 310 307 306 307 306 307 308 308 309 309 309 309 309 310 308 309 313 315 318 323 320 320 319 320 322 324 326 328 327 330 331 326 327 328 330 332 330 330 335
307 307 307 306 310 309 307 306 307 306 306 307 307 308 309 309 310 310 309 309 309 310 314 315 319 321 325 323 320 320 321 324 326 328 329 329 331 325 329 331 330 333 333 335 334
307 310 307 307 306 305 307 307 306 306 306 306 307 308 309 308 309 310 310 310 309 310 311 311 316 320 326 324 320 320 321 324 326 328 329 329 326 327 330 332 333 334 335 334 334
307 309 306 308 307 306 306 306 308 308 307 306 308 308 308 308 308 309 310 310 309 310 312 313 317 315 318 321 322 320 321 322 325 326 328 328 327 326 331 332 333 334 334 334 333
306 306 304 304 306 305 306 308 307 307 306 308 308 308 308 310 309 309 310 310 311 310 313 313 319 317 316 317 321 321 321 322 323 325 327 326 325 325 327 326 330 332 333 333 333
305 303 305 304 306 307 308 306 307 306 306 307 307 308 309 309 308 308 308 308 310 310 311 314 318 318 320 318 321 321 322 322 323 325 325 325 322 324 324 325 327 332 333 333 333

GFSSW_850_thetae_036.txt.gz
Theta_e
300 300 300 300 300 300 301 301 301 302 302 303 303 303 304 305 308 308 311 318 318 319 320 319 330 330 332 335 331 327 327 330 331 332 332 332 332 332 332 332 332 332 331 331 331
298 298 298 299 299 299 300 300 300 300 301 301 302 302 304 304 306 306 313 313 317 317 317 318 322 326 329 329 330 329 329 330 331 332 333 333 332 333 333 333 332 332 332 332 332
298 298 298 298 298 298 298 299 299 300 300 300 301 301 302 303 308 313 314 314 314 316 319 318 322 327 326 326 328 331 332 330 331 332 332 333 333 333 333 334 333 333 332 332 332
298 298 298 298 298 298 298 298 298 299 299 300 300 300 301 302 314 318 315 315 314 314 314 315 316 319 328 328 326 327 331 331 331 332 332 333 332 333 332 333 333 333 332 332 332
299 299 299 299 299 299 299 299 299 299 298 299 299 300 301 308 311 313 313 313 313 314 314 315 316 318 321 324 327 328 327 328 330 331 331 332 332 332 332 332 331 332 332 332 332
300 300 300 300 300 300 300 300 300 300 299 299 299 299 306 309 309 311 313 314 314 316 317 318 318 320 322 323 325 327 327 328 328 328 329 330 330 330 330 330 331 332 332 332 332
301 301 301 301 301 301 301 301 301 301 300 300 299 300 308 307 308 310 310 312 314 315 317 319 323 324 324 324 324 325 329 329 330 329 331 330 332 332 330 329 330 331 331 331 331
300 300 300 300 300 300 300 301 301 302 301 300 300 306 308 307 308 309 309 309 309 311 313 315 317 318 322 324 324 326 327 330 329 330 330 330 333 332 330 329 330 330 330 331 330
301 301 301 301 301 301 300 300 301 306 307 303 303 309 310 310 310 310 309 309 309 310 311 313 314 317 319 323 325 326 328 328 329 328 329 331 332 332 330 330 331 330 328 329 329
302 302 302 302 302 301 300 300 307 307 309 311 311 310 312 311 309 310 311 311 309 309 311 313 314 316 318 320 327 326 327 327 329 329 329 330 331 331 331 331 331 331 329 328 328
301 301 301 302 301 300 302 307 308 310 312 313 313 313 311 310 309 308 308 308 311 312 313 313 316 317 317 319 321 325 327 327 328 328 329 330 331 331 332 331 331 331 329 328 329
302 301 301 300 300 305 309 309 308 307 308 307 307 306 306 306 307 307 308 308 310 314 315 314 317 319 317 317 318 320 323 325 327 326 328 329 330 331 332 332 331 331 329 329 328
301 301 300 300 303 309 308 308 307 307 308 307 307 307 307 307 307 308 308 307 309 311 314 314 316 317 318 318 318 320 321 323 324 325 326 327 329 331 331 331 331 329 329 329 329
301 301 300 302 307 307 308 307 306 307 308 309 308 309 309 308 309 309 309 309 309 308 311 314 315 315 318 319 319 321 320 320 322 323 326 325 329 332 331 332 332 331 330 329 328
300 301 301 307 306 307 307 306 307 306 311 311 311 310 312 311 313 313 312 310 309 309 309 310 314 316 316 318 319 320 320 321 322 323 325 325 327 329 330 330 329 330 328 328 328
300 301 303 307 307 307 306 306 307 309 311 309 310 312 312 311 313 312 313 313 311 311 310 310 310 313 317 316 318 320 320 320 322 324 327 328 327 328 329 330 329 330 328 328 331
301 304 306 306 307 306 306 307 310 311 308 309 308 308 309 309 312 311 312 312 313 314 313 313 311 311 313 316 317 318 323 324 324 324 326 326 327 328 329 328 329 330 329 329 330
302 307 307 308 307 307 307 308 311 307 307 307 307 307 307 308 308 308 310 309 310 313 316 316 317 311 312 314 318 319 322 324 324 325 325 324 327 328 329 328 328 330 329 330 330
303 310 309 308 307 307 308 312 308 308 307 307 309 308 308 308 309 309 310 310 310 312 316 315 316 316 312 314 317 319 319 322 325 324 324 326 327 328 329 330 331 330 330 331 335
306 309 309 308 307 308 309 310 308 307 307 308 308 309 310 309 309 310 310 310 312 310 313 311 314 315 317 313 315 319 320 321 324 325 327 326 328 330 332 333 331 332 332 330 336
308 311 310 308 308 309 311 310 308 306 307 308 309 308 310 310 310 309 308 309 311 310 310 312 314 316 318 315 315 319 319 321 325 324 326 328 328 331 334 332 330 331 329 330 337
309 312 308 307 310 310 311 308 306 308 307 307 307 309 310 310 310 311 309 312 310 310 311 313 316 318 317 318 316 319 320 322 324 327 326 326 328 331 329 329 330 331 328 334 336
309 309 310 308 310 311 308 308 308 308 310 308 307 307 309 310 311 311 311 311 311 311 312 313 317 318 318 319 320 320 319 322 325 328 327 326 328 330 328 328 330 333 329 335 336
310 312 309 308 308 308 309 307 308 308 309 307 308 308 309 311 309 310 310 311 310 310 311 311 314 316 320 321 322 323 321 321 324 326 326 328 328 328 328 331 333 335 335 336 336
310 309 308 310 309 307 307 307 308 309 307 307 308 309 309 309 309 310 310 311 311 311 312 311 315 315 314 315 318 320 323 321 323 326 327 328 328 328 331 333 336 337 337 336 336
308 307 306 305 307 308 308 309 309 308 308 308 309 308 308 309 310 311 310 310 310 312 312 311 316 317 316 314 315 318 320 322 322 324 327 328 329 331 333 332 335 335 336 336 336
307 306 305 306 307 309 309 308 308 307 307 307 308 308 309 310 309 309 309 309 310 311 311 312 316 318 318 315 316 319 322 323 324 324 327 329 330 330 329 327 334 334 335 335 335

GFSSW_850_thetae_039.txt.gz
Theta_e
298 298 298 298 298 298 299 299 300 300 301 301 302 302 303 304 307 307 308 315 316 319 319 322 319 325 331 331 332 333 328 324 325 326 327 329 330 332 332 333 332 332 332 332 331
298 298 298 298 298 299 298 298 299 299 299 300 301 301 301 302 305 307 314 312 313 317 319 318 320 326 332 330 334 334 329 327 325 326 327 329 331 331 332 333 333 333 333 332 332
298 298 298 298 299 299 299 299 299 299 299 299 299 300 301 301 303 310 313 314 314 313 318 317 318 319 325 327 329 330 330 328 327 327 328 330 331 332 332 332 332 332 332 332 332
299 300 300 300 300 300 300 300 300 299 299 299 299 299 300 300 310 315 314 313 315 314 315 316 316 317 319 325 326 326 328 330 330 330 329 329 330 331 332 331 331 331 332 332 331
301 301 301 301 301 301 301 301 301 301 300 300 299 299 299 304 304 311 312 313 314 314 313 315 315 315 314 318 326 325 325 325 329 330 329 330 331 331 330 331 330 330 330 330 331
300 300 300 300 300 300 300 300 301 301 301 301 300 300 302 307 304 306 310 311 313 315 314 314 314 315 317 317 318 323 325 327 326 326 326 327 328 329 329 329 329 329 329 329 330
301 301 301 301 301 301 301 300 300 300 301 302 302 301 305 302 302 308 310 311 312 313 315 317 317 316 318 317 320 321 321 322 323 325 326 326 327 328 328 329 330 330 330 329 329
301 301 301 301 301 301 301 301 301 300 302 305 305 303 307 303 307 307 308 309 311 312 313 314 314 315 317 320 321 324 323 323 323 324 325 327 328 327 328 329 330 330 329 329 329
301 301 301 301 301 300 300 301 302 305 307 306 308 307 309 311 310 310 308 308 309 309 309 311 312 313 314 316 317 321 325 324 324 324 325 326 327 327 328 329 329 329 329 329 329
300 301 301 300 300 300 303 306 308 308 309 311 311 311 310 312 311 310 311 310 310 309 309 310 312 312 311 313 319 321 324 324 324 324 325 325 326 326 326 327 328 328 329 329 330
300 300 301 300 300 302 307 308 308 310 310 309 311 313 313 313 312 309 308 309 309 310 308 310 310 312 313 313 316 319 323 324 324 324 324 324 325 326 326 327 326 327 328 330 330
301 300 301 300 301 308 308 309 308 307 306 306 307 307 307 309 308 307 307 307 308 309 312 311 310 312 314 314 315 317 317 318 322 324 324 324 325 326 326 326 326 327 328 329 330
301 300 300 301 305 307 308 308 307 307 306 306 306 307 307 307 307 307 306 307 307 307 308 312 312 313 314 315 316 315 316 316 317 319 320 320 321 322 323 325 327 329 329 329 329
301 300 301 305 306 307 307 307 306 307 305 308 311 310 308 307 307 307 307 307 307 307 307 307 310 314 313 314 316 316 316 317 318 318 319 320 320 321 321 323 324 326 327 329 329
301 301 304 307 307 308 307 307 306 307 309 310 310 310 310 310 312 313 309 309 309 309 307 307 308 310 313 314 315 316 318 317 318 317 317 319 319 321 323 325 325 325 327 328 328
301 303 305 306 308 308 306 306 307 309 310 310 308 307 308 310 310 312 313 312 311 309 308 308 309 308 308 310 315 315 317 317 317 317 317 318 319 320 320 321 324 324 327 327 327
301 303 307 308 307 308 307 308 308 309 308 306 307 308 308 307 309 311 311 313 313 312 311 310 310 309 309 309 310 312 313 314 318 318 318 318 320 321 321 322 324 324 325 327 328
301 305 309 309 308 307 308 307 308 308 306 306 307 309 309 309 309 310 309 308 311 312 313 315 316 314 314 309 309 310 313 314 317 319 318 319 321 320 322 324 324 325 325 328 327
301 308 310 309 308 306 308 309 308 308 307 306 307 309 309 309 309 309 309 309 310 312 313 314 313 312 310 310 310 310 310 315 315 317 318 319 320 320 320 321 323 324 327 329 335
303 309 311 309 308 309 308 309 309 308 308 308 307 309 310 308 310 310 309 311 310 311 311 311 312 310 309 311 315 315 312 315 315 317 319 321 320 320 321 323 324 326 325 334 338
308 311 311 309 308 309 309 310 309 307 308 308 308 307 309 310 310 311 310 310 312 311 310 309 311 312 311 312 315 315 311 311 314 315 318 321 320 320 322 328 324 325 328 337 338
307 310 309 308 309 309 309 307 307 307 308 309 309 308 309 309 310 310 310 311 310 311 310 312 313 315 314 313 314 315 312 311 314 317 318 320 320 321 323 329 325 325 329 337 337
307 310 310 309 309 307 307 307 307 307 309 308 308 309 308 308 310 312 311 310 310 311 311 311 312 315 314 314 314 317 319 315 315 316 317 318 321 320 322 325 327 324 334 337 337
307 310 309 308 308 308 308 308 307 308 308 307 307 308 309 309 308 309 311 311 309 311 311 311 311 313 314 315 315 318 317 318 318 318 318 320 320 321 324 326 327 329 336 336 337
309 309 307 307 306 307 307 308 308 309 307 307 308 308 308 307 308 309 310 309 309 311 311 311 312 312 313 315 314 314 314 316 316 319 319 319 321 320 324 332 331 333 335 336 336
308 307 307 306 306 308 308 308 308 308 307 308 308 308 307 309 309 309 309 309 309 309 312 312 312 313 316 316 315 314 314 315 315 317 320 320 321 323 331 336 335 335 335 336 336
304 305 306 306 307 307 308 309 309 307 307 307 308 308 309 309 309 309 308 308 308 309 309 312 313 316 317 316 315 315 314 313 315 316 319 321 323 327 329 332 333 335 335 335 336

GFSSW_850_thetae_042.txt.gz
Theta_e
298 298 298 299 299 299 299 299 299 300 300 300 300 301 301 302 304 305 307 314 315 315 317 318 325 316 315 328 331 332 328 325 324 325 326 327 328 331 330 332 331 332 332 332 333
299 299 300 300 300 300 300 299 299 299 299 300 300 300 300 301 302 305 311 312 312 312 316 318 322 326 326 327 330 330 332 330 324 324 324 325 326 327 329 330 332 332 332 332 332
300 301 301 301 301 301 301 301 301 300 300 300 299 299 299 300 300 307 313 313 313 312 312 318 318 319 325 332 329 332 333 332 331 329 326 326 327 328 329 329 331 331 331 331 332
300 300 300 300 300 300 300 300 300 301 301 301 300 300 299 299 302 312 312 313 313 314 310 314 316 316 316 321 326 327 330 332 331 330 329 329 329 328 328 329 331 331 330 330 330
300 301 301 301 301 301 300 300 300 300 300 301 301 301 300 300 301 312 313 312 312 314 311 314 315 315 313 315 321 324 325 327 327 327 329 329 329 328 329 330 330 330 330 329 329
301 301 301 301 301 301 301 301 301 301 300 299 300 302 305 305 302 303 305 305 310 313 313 312 314 315 314 315 315 319 321 324 325 324 324 324 326 327 327 327 327 328 328 328 328
300 300 300 300 300 300 300 300 300 301 300 299 300 305 307 306 303 302 302 307 310 312 312 312 314 314 316 315 317 317 317 319 319 320 321 324 324 325 326 326 326 328 328 329 329
300 300 300 300 300 300 300 301 303 305 301 302 304 309 308 307 308 305 304 305 309 310 310 312 313 313 314 316 317 318 319 319 320 321 322 322 324 325 327 327 327 327 327 328 328
300 300 300 300 300 300 302 305 307 307 308 307 306 309 309 309 310 310 309 306 309 309 310 310 311 311 313 314 315 315 321 322 322 322 322 322 324 324 326 326 326 327 327 327 328
300 301 300 301 300 301 306 307 306 310 309 308 311 311 309 311 310 312 310 309 308 310 310 309 309 309 308 312 318 317 318 321 322 323 323 323 323 323 324 324 325 325 325 326 326
300 301 301 301 301 304 307 307 307 307 306 306 306 309 308 304 307 310 310 308 309 309 306 308 306 309 310 312 315 317 319 321 322 322 323 323 323 323 323 324 323 324 325 325 327
300 301 301 302 304 307 307 307 306 306 306 307 305 306 307 306 306 305 308 306 306 307 307 307 307 308 310 312 312 313 314 316 316 317 320 322 323 323 323 323 324 324 325 325 326
300 301 303 303 305 307 307 306 306 306 306 306 308 310 309 308 307 307 306 307 305 305 306 310 310 310 310 311 313 313 313 315 316 316 316 316 316 317 318 319 320 321 323 325 327
301 301 304 304 306 307 307 305 306 306 304 307 309 308 308 308 307 306 305 307 306 305 305 305 306 308 311 309 312 313 314 314 314 314 315 316 316 317 318 319 319 320 321 323 324
301 301 305 306 306 307 306 307 306 307 306 308 309 307 308 308 310 311 312 307 307 306 305 306 306 307 308 310 312 311 314 315 315 315 314 315 314 316 317 319 318 319 322 323 324
301 301 305 307 306 307 307 307 307 305 307 308 307 308 309 309 310 311 312 309 309 307 307 306 307 306 306 308 308 309 313 313 314 313 315 315 315 317 316 317 317 320 323 324 324
301 302 305 308 308 307 307 308 303 305 307 306 307 308 309 308 309 311 311 312 313 313 310 308 307 307 308 307 307 307 307 310 312 315 316 315 315 317 317 318 317 317 320 322 324
301 301 309 309 308 307 307 304 305 308 308 308 307 308 308 308 308 309 309 310 311 311 312 313 314 313 313 309 307 305 306 310 313 315 316 316 317 317 316 317 318 319 320 322 324
303 305 308 310 309 308 308 302 307 308 308 308 308 308 308 308 309 309 309 309 310 310 311 313 313 310 309 309 308 309 306 307 310 312 313 316 316 318 318 318 318 318 320 323 324
305 311 311 310 308 309 304 308 308 307 308 309 309 308 308 308 309 308 310 310 311 311 309 310 310 310 309 309 308 310 311 309 308 313 314 315 317 318 317 318 317 318 318 322 332
309 310 311 309 307 308 301 306 306 307 307 308 309 309 308 309 309 309 310 310 311 311 309 309 309 310 311 310 307 312 312 310 308 310 314 315 316 316 317 317 318 321 321 331 337
308 306 309 308 307 307 304 307 307 306 308 308 308 308 309 308 308 310 311 310 310 311 311 311 310 312 309 309 311 312 313 312 309 309 312 315 315 316 315 316 318 320 333 336 337
307 309 309 308 308 304 305 307 307 307 308 308 308 308 308 308 308 309 309 310 310 310 311 309 308 309 308 311 312 314 316 316 314 308 310 313 315 316 316 317 319 323 335 336 337
307 306 307 307 305 305 305 307 308 308 308 307 306 307 307 307 307 307 308 309 309 309 311 309 310 311 308 311 312 314 315 314 315 317 312 313 313 315 317 317 317 327 335 336 336
309 306 306 302 304 303 305 306 308 308 307 306 307 307 307 308 308 308 309 309 309 309 311 312 312 311 311 312 312 314 315 314 314 315 317 318 317 317 317 316 317 327 334 335 336
306 306 305 305 306 306 305 307 310 308 308 307 307 307 307 307 309 309 308 308 308 307 309 308 312 312 313 312 313 315 316 314 313 314 314 315 317 318 318 328 328 333 335 335 336
298 303 303 305 304 305 307 307 309 308 308 308 307 307 308 308 309 309 308 308 306 306 306 310 312 312 312 314 316 316 314 314 313 314 317 318 317 318 326 330 331 334 335 335 336

GFSSW_850_thetae_045.txt.gz
Theta_e
299 300 300 300 300 300 300 300 300 300 300 300 300 300 300 300 302 303 305 314 312 312 314 315 321 321 319 327 330 330 325 325 324 324 325 324 323 326 327 329 329 331 332 331 332
300 300 300 300 300 300 300 300 301 301 301 301 300 300 300 300 301 302 309 308 310 309 311 314 316 325 316 319 329 328 326 326 324 324 324 327 326 325 327 327 328 329 331 331 331
300 300 300 300 300 300 300 300 300 300 300 300 301 301 301 300 299 304 310 312 312 309 308 312 315 320 327 327 327 330 331 327 327 328 329 327 327 327 326 326 328 329 330 331 330
301 301 301 301 300 301 301 301 301 301 300 300 299 300 301 301 299 311 312 313 312 312 309 309 315 316 314 323 329 327 330 330 329 328 332 331 331 329 328 327 328 328 329 330 329
300 300 300 300 300 300 300 300 300 300 300 300 300 299 300 303 302 304 305 308 309 309 314 308 314 315 314 314 319 321 325 328 331 331 331 329 328 328 328 329 328 328 328 327 327
300 300 300 300 300 300 300 300 301 303 302 301 300 299 305 306 304 303 302 303 304 305 311 312 313 315 314 313 315 317 320 323 325 324 324 325 324 324 325 325 327 326 325 326 326
300 300 300 300 300 300 300 303 304 308 308 304 301 301 307 306 306 307 306 303 302 306 309 312 313 315 315 314 315 315 315 316 316 318 318 321 322 323 324 325 324 325 326 326 327
300 300 300 300 301 300 301 303 304 306 306 307 308 304 308 306 308 308 310 309 304 305 309 311 312 312 313 314 315 317 317 318 319 318 319 320 323 323 325 325 325 326 326 326 327
300 300 300 301 301 301 301 302 302 306 308 307 308 309 309 308 310 309 310 311 308 305 308 310 310 311 312 312 313 313 319 319 320 320 321 321 323 323 324 324 324 325 325 326 326
300 300 300 301 301 301 302 304 305 310 307 305 308 309 305 305 307 307 307 308 308 308 309 308 309 308 307 312 316 316 316 318 320 321 321 322 322 321 322 323 322 323 323 324 324
300 301 301 302 303 305 306 306 306 306 305 305 305 306 306 309 308 308 306 307 306 308 307 307 306 308 310 312 314 314 317 318 319 320 322 322 322 322 322 321 321 322 322 323 324
301 301 301 303 304 305 306 306 306 305 305 304 305 307 308 308 308 308 307 306 305 306 306 306 308 309 309 310 311 311 312 313 315 316 316 317 320 318 319 320 322 322 322 323 324
301 301 301 303 305 305 306 306 307 306 305 305 308 308 307 308 307 308 307 306 305 304 305 305 307 309 309 309 310 311 312 313 314 314 314 314 316 316 315 315 317 318 320 321 322
301 301 301 304 304 305 305 307 307 306 302 305 309 308 308 308 307 308 306 306 305 303 303 304 304 306 308 308 308 309 311 313 313 313 314 315 316 314 315 315 315 316 317 318 320
301 301 301 305 305 307 307 307 307 307 304 307 308 307 307 308 310 310 311 308 305 305 304 304 305 306 306 307 309 308 309 310 312 313 312 313 312 314 314 315 315 315 316 318 319
302 301 301 305 307 308 307 307 307 303 304 307 307 307 307 308 310 309 310 308 307 306 305 304 306 305 305 306 306 308 308 310 310 311 312 313 313 313 313 314 314 314 316 318 319
303 303 302 307 309 308 307 307 302 305 307 308 307 307 307 308 308 309 309 310 311 309 307 306 306 306 306 305 306 306 304 308 310 311 314 313 313 314 314 315 315 313 315 317 318
306 306 307 309 309 308 308 301 305 308 308 308 307 307 307 307 308 308 309 311 311 311 312 313 312 307 310 306 305 303 304 307 312 314 312 314 315 315 315 315 316 316 316 318 318
307 310 310 310 309 308 307 300 306 307 307 308 308 307 307 308 308 308 309 310 310 311 312 312 313 310 309 308 307 308 305 305 306 308 310 313 314 315 315 315 315 314 316 317 318
308 311 310 309 308 308 302 307 307 306 306 307 309 308 307 307 308 308 309 311 311 310 307 309 309 309 310 309 307 307 309 305 304 309 312 312 313 316 315 315 315 314 314 318 321
308 310 309 309 308 308 306 304 306 306 306 308 308 308 307 307 307 308 310 310 310 310 309 308 308 308 309 309 306 308 311 311 305 306 311 312 313 312 314 315 315 314 316 320 323
307 305 309 308 306 304 301 306 307 307 307 308 308 307 308 308 307 309 309 309 309 309 310 309 309 311 309 307 308 308 311 310 310 309 309 311 312 313 314 312 313 313 317 327 331
306 308 308 307 299 297 303 306 306 307 307 308 307 307 307 307 307 309 309 309 309 310 310 310 307 309 307 310 311 311 312 311 313 311 312 310 311 312 311 312 313 313 318 332 335
307 303 306 305 304 304 304 307 307 307 308 307 306 306 306 306 305 307 307 308 309 309 310 309 310 308 308 309 310 311 312 314 314 313 314 314 312 311 311 313 315 315 323 334 335
305 303 304 300 302 302 303 305 307 309 308 307 306 307 306 308 307 307 308 308 308 308 309 310 312 310 309 310 310 311 312 312 314 314 315 314 314 313 314 315 316 318 317 333 335
299 301 302 302 303 303 303 306 307 307 307 308 307 307 306 305 307 308 308 308 308 307 309 307 307 310 310 311 312 312 312 312 313 314 313 314 314 312 313 315 320 329 329 330 335
302 301 301 301 304 304 304 306 306 307 306 307 307 307 306 306 307 307 307 306 308 308 307 309 310 308 309 310 311 314 315 313 314 313 312 312 313 315 316 317 320 329 329 332 335

GFSSW_850_thetae_048.txt.gz
Theta_e
300 300 300 300 300 300 300 300 300 300 300 300 301 301 301 301 301 302 304 306 308 310 311 310 313 317 322 327 327 327 321 321 324 323 323 323 324 326 326 328 328 330 330 331 331
300 300 300 300 300 300 300 300 300 300 300 300 300 300 301 301 301 303 304 305 306 308 308 308 311 318 320 323 328 326 322 321 322 323 322 325 326 326 325 325 326 328 330 330 331
300 300 300 300 300 300 300 300 300 300 300 301 301 300 300 300 301 303 310 311 310 308 308 307 312 313 318 318 325 328 329 325 324 324 324 326 327 328 326 326 326 328 328 328 329
299 299 300 300 300 299 299 299 299 300 301 301 300 300 300 300 299 308 310 311 309 306 307 307 310 317 318 325 324 328 328 328 326 326 329 329 328 328 329 328 329 329 328 328 328
300 300 300 300 300 300 300 300 302 304 305 306 305 302 300 300 302 303 302 302 303 303 306 314 309 314 312 315 324 325 325 328 329 330 330 330 329 329 329 329 328 327 326 325 326
300 300 300 300 300 300 300 301 302 303 305 306 306 305 303 303 304 304 305 304 304 304 304 309 312 312 313 313 319 317 322 325 324 324 325 324 325 325 326 327 325 325 325 325 326
300 300 300 300 301 301 300 301 301 302 303 304 306 307 306 305 305 308 309 309 309 308 304 306 311 313 313 312 315 314 315 314 315 317 318 322 323 324 325 325 324 324 325 325 326
300 300 301 301 301 301 301 302 303 305 307 307 307 306 307 305 306 308 308 307 308 308 306 303 309 312 311 313 314 315 314 317 318 315 317 321 323 323 325 324 324 325 325 325 326
300 300 301 301 302 302 303 303 304 305 306 307 305 308 306 305 307 308 308 307 308 307 306 304 309 310 311 311 311 312 317 316 317 318 319 319 322 322 324 323 323 324 324 324 324
300 301 301 301 302 303 303 303 304 305 306 306 306 307 305 307 308 308 308 307 307 308 307 307 308 306 307 310 314 313 315 316 317 318 318 319 320 320 322 322 321 322 322 323 323
300 301 301 301 303 303 304 303 306 305 305 304 305 304 305 307 307 308 307 307 306 306 305 306 305 308 310 311 313 313 314 316 317 317 320 319 320 320 320 321 320 321 322 322 323
301 301 301 301 303 304 305 306 306 305 304 305 305 305 307 307 308 307 307 306 305 304 304 305 305 307 309 310 311 311 311 312 313 314 315 315 314 313 315 316 319 320 321 321 322
301 301 301 301 303 305 305 306 307 307 304 305 305 306 308 308 308 307 307 306 305 304 304 303 306 308 308 309 310 309 310 312 313 313 313 313 315 315 315 314 316 316 317 317 318
301 302 301 301 305 306 307 307 307 306 301 303 307 308 307 307 308 309 309 306 305 305 304 302 303 306 306 307 308 308 310 312 312 313 313 313 316 314 314 314 314 314 315 315 315
301 303 303 301 305 308 308 307 307 306 303 306 306 306 306 307 308 309 309 310 305 304 303 303 304 304 305 306 307 307 309 310 311 311 311 312 311 312 312 312 313 313 314 314 315
305 305 303 305 308 308 308 307 306 302 303 307 307 306 306 307 308 309 309 309 307 305 305 303 304 304 305 306 307 308 307 307 309 309 311 310 311 313 312 312 312 312 313 314 315
306 306 308 308 309 308 307 307 301 303 306 307 307 306 306 307 307 308 309 310 311 306 305 305 305 305 305 305 305 305 304 307 309 310 310 311 311 312 312 312 312 313 314 315 316
308 309 309 309 308 307 307 300 304 307 307 306 306 306 306 306 307 308 309 310 311 311 312 309 311 306 306 305 305 302 302 307 311 312 309 311 313 313 312 313 313 314 315 315 316
307 309 309 308 307 308 306 300 306 307 306 306 306 307 306 307 307 306 307 311 311 310 313 313 312 310 309 307 306 306 303 303 304 306 306 310 311 312 312 313 313 313 314 316 317
306 309 309 308 308 308 302 306 306 306 306 306 308 307 307 306 306 306 307 310 310 310 308 308 309 309 310 309 307 306 305 305 301 307 310 310 311 313 312 312 312 313 312 315 317
306 309 309 309 308 307 300 303 305 306 306 308 308 308 307 306 306 307 308 309 310 309 309 308 308 308 308 307 305 307 306 308 303 304 309 311 310 309 312 312 313 311 312 315 323
305 305 308 306 305 300 299 305 306 306 306 307 307 307 307 306 307 307 309 309 308 308 309 308 308 310 309 306 307 306 308 309 309 309 306 307 307 309 310 309 309 310 314 317 327
304 306 308 306 298 296 301 304 305 306 306 307 307 306 306 306 307 306 308 308 307 309 309 309 307 309 307 310 309 310 310 307 310 311 312 309 308 309 309 310 310 312 315 320 330
303 302 305 304 303 302 304 304 306 306 307 307 306 305 307 306 305 306 307 307 307 308 309 309 308 307 306 308 309 309 309 309 311 312 312 312 312 311 312 312 311 313 314 322 325
300 300 303 298 299 299 303 304 306 307 307 306 306 306 308 308 307 306 306 307 307 307 308 309 311 310 310 309 310 310 310 310 311 311 314 313 312 312 312 312 312 313 314 322 328
304 301 301 300 301 303 304 305 307 307 307 306 307 308 308 308 306 307 306 307 308 307 308 308 310 308 309 308 308 311 311 311 311 311 311 312 313 311 312 312 312 314 315 326 329
302 301 299 300 299 300 300 305 305 304 306 306 307 307 307 306 306 306 306 306 307 309 308 310 309 310 307 308 309 308 310 309 310 310 311 311 311 310 311 312 314 315 317 322 330

GFSSW_850_thetae_051.txt.gz
Theta_e
300 300 300 300 300 300 300 301 301 301 301 301 301 301 301 301 302 303 303 303 305 306 307 309 312 316 321 327 324 323 322 322 321 323 321 324 325 326 326 326 327 329 330 328 330
300 300 300 300 300 300 300 300 300 300 300 300 300 301 301 301 302 302 306 306 305 304 305 306 309 314 320 324 327 327 326 324 321 322 323 323 326 326 326 327 328 328 329 329 328
299 299 300 300 300 300 300 300 300 300 302 302 303 302 301 301 301 303 310 310 309 305 305 307 306 314 319 319 325 327 329 325 323 322 323 323 324 325 326 327 328 328 328 329 328
300 300 300 300 300 300 300 300 301 302 302 303 304 303 302 302 303 305 306 309 306 303 304 308 306 315 316 319 321 324 326 327 326 324 324 324 324 325 326 326 327 328 328 329 328
300 300 300 300 300 300 300 300 302 302 302 302 303 303 303 303 303 302 304 304 304 305 304 312 312 310 316 318 320 323 323 325 326 327 326 326 327 327 328 327 328 329 328 327 326
300 300 300 300 301 301 301 301 302 302 302 303 305 305 304 305 304 304 308 308 307 308 308 305 314 311 312 315 319 322 323 322 323 328 329 329 329 329 329 328 327 327 327 327 326
300 300 300 301 301 301 302 302 303 304 304 305 306 305 304 303 305 304 309 309 308 308 307 308 305 312 312 313 314 318 320 320 325 324 326 325 328 328 326 325 325 326 326 326 326
300 300 301 301 301 302 302 303 303 304 304 306 307 305 305 304 307 308 308 307 308 307 308 307 305 305 312 313 314 316 317 320 321 319 322 323 327 327 326 325 325 325 326 325 325
300 300 301 301 301 302 303 302 302 304 305 306 306 305 306 306 308 307 307 307 307 308 308 306 305 305 311 314 314 316 319 319 320 320 320 321 325 325 324 323 325 325 325 325 325
300 301 300 301 302 302 302 302 303 304 305 305 305 307 306 306 307 307 308 307 307 307 308 307 307 309 311 314 316 316 317 318 320 320 320 321 323 324 323 323 324 324 324 324 324
299 301 301 301 302 302 304 303 304 305 305 305 305 306 306 307 307 307 308 307 307 306 309 308 307 309 311 313 314 315 316 317 318 319 320 321 323 323 322 322 322 323 323 324 323
298 300 302 301 302 306 305 305 306 306 307 305 305 305 306 306 306 308 307 307 307 307 307 308 308 308 309 311 313 314 315 317 317 317 319 321 322 322 320 321 322 323 323 323 323
298 301 302 301 302 305 306 306 307 307 306 305 304 305 307 307 307 308 308 308 308 308 307 308 308 308 308 310 312 313 314 315 317 316 317 317 320 320 320 319 319 319 319 319 319
299 303 305 303 303 305 307 307 307 307 307 305 307 307 306 307 307 308 309 309 308 308 307 308 308 307 308 309 311 313 313 314 314 316 319 317 320 321 321 320 320 319 318 319 318
300 305 304 302 306 308 307 307 307 306 305 306 307 306 307 307 307 309 308 310 311 309 305 308 306 306 308 309 310 311 312 314 314 315 316 316 316 318 318 318 318 320 318 317 317
303 307 305 308 308 308 307 307 306 307 305 307 307 307 307 307 307 307 309 310 309 309 309 306 307 306 307 309 309 311 310 311 312 313 315 316 316 317 318 318 318 318 316 316 316
303 308 308 308 308 307 307 306 307 307 306 307 306 307 307 308 307 307 309 311 313 313 308 308 307 307 306 306 307 308 311 312 313 313 314 314 315 316 317 316 315 317 316 316 317
305 309 308 308 307 307 307 305 308 308 308 307 307 307 308 307 307 307 308 311 311 309 313 310 308 308 307 307 307 308 310 311 311 313 313 312 314 315 316 316 316 315 316 316 317
305 309 308 308 307 307 305 309 307 307 307 307 307 308 307 307 307 307 307 310 311 310 312 313 310 310 309 308 308 307 308 309 309 311 312 313 313 314 314 315 316 316 317 318 319
304 309 309 308 307 307 307 307 307 306 306 307 308 308 308 307 307 307 307 310 308 309 310 311 311 310 310 310 308 309 309 308 309 310 310 313 313 314 317 317 316 316 316 317 323
302 309 308 308 307 306 309 307 306 306 307 307 308 309 308 307 307 307 308 308 309 308 309 311 310 310 309 309 309 309 309 309 310 310 312 313 314 316 317 317 316 316 315 316 321
301 310 307 306 308 301 307 305 305 307 307 307 308 309 308 308 307 307 308 308 308 308 308 310 312 311 309 309 309 310 309 310 311 310 310 311 312 316 314 314 315 315 315 315 319
302 304 306 304 308 306 304 305 305 307 307 307 308 307 307 307 308 308 307 307 307 308 309 310 310 311 309 312 311 310 310 309 310 313 313 312 311 313 314 315 315 315 315 315 317
301 306 302 302 302 303 304 305 306 306 306 307 307 307 308 307 307 308 307 306 307 307 308 309 310 310 310 310 310 311 311 311 311 312 312 313 313 313 314 314 315 315 315 315 315
303 302 301 304 302 302 303 304 306 308 307 306 308 307 308 310 308 308 307 307 307 307 308 310 310 310 309 310 310 310 311 311 311 311 313 312 312 313 314 315 315 314 314 314 314
303 302 302 302 300 303 303 305 306 307 305 306 307 307 307 308 308 308 307 307 309 308 308 309 310 310 310 308 308 309 309 309 310 310 312 312 312 312 312 312 313 313 313 315 316
303 302 301 302 302 302 304 304 304 303 305 306 306 307 307 307 306 306 306 306 307 308 309 309 311 310 308 307 308 309 310 310 310 311 312 312 312 312 312 313 313 313 314 316 317

GFSSW_850_thetae_054.txt.gz
Theta_e
300 300 300 300 300 300 300 300 300 300 300 301 301 301 301 302 302 305 307 306 303 303 306 308 310 321 324 325 324 324 326 326 325 322 321 322 324 325 327 330 331 331 333 331 335
300 300 300 300 300 300 300 300 300 300 301 302 302 302 302 302 303 310 308 306 306 306 309 310 310 316 323 325 326 327 328 327 325 324 323 322 324 324 329 330 331 331 331 331 332
300 300 300 300 300 300 300 300 300 301 302 302 302 302 302 303 307 311 309 310 309 308 310 311 309 312 319 322 326 328 330 328 327 324 322 322 323 323 327 330 331 332 332 332 332
300 300 300 300 301 301 301 300 301 301 302 302 302 302 303 303 309 310 305 304 304 304 311 312 312 313 317 322 323 327 328 328 328 327 325 324 323 324 323 325 329 329 331 330 331
300 300 300 300 301 301 301 301 302 302 303 303 303 304 303 308 306 303 304 306 308 308 307 308 314 312 316 319 320 324 325 326 327 327 327 326 326 326 325 325 325 327 328 329 330
300 300 300 301 301 302 302 302 303 303 304 304 304 304 308 310 306 305 306 309 310 309 309 308 310 314 314 315 320 321 322 324 324 325 327 327 328 328 328 327 328 328 329 329 329
300 300 300 301 301 302 302 303 303 303 303 304 304 304 310 308 307 307 309 309 309 309 309 309 309 309 315 316 314 317 321 323 325 325 325 327 329 330 328 329 330 329 328 328 328
300 301 301 301 301 302 302 302 302 302 303 304 305 308 310 307 307 309 309 309 309 309 309 310 309 308 308 312 316 317 318 320 323 324 325 325 330 329 328 328 329 328 328 328 328
299 300 301 301 301 302 302 302 302 303 304 305 309 310 309 307 308 308 309 309 309 309 309 309 308 309 308 312 315 318 318 320 321 323 324 326 328 328 327 328 329 328 328 328 328
298 299 301 301 301 302 304 304 304 304 305 307 309 312 308 307 307 308 309 309 309 309 309 309 309 311 310 310 314 316 318 318 321 322 323 323 326 327 327 327 327 328 327 328 328
298 299 301 302 301 304 307 308 310 310 308 308 308 308 307 307 307 308 309 309 309 310 311 310 311 311 311 311 311 314 317 318 319 321 323 324 324 325 325 326 327 327 327 328 327
297 299 302 303 301 305 308 308 308 307 309 308 307 307 307 308 308 308 309 309 310 311 311 312 311 311 311 310 310 313 315 318 319 319 321 323 324 324 325 326 326 326 326 326 326
297 300 305 305 302 304 308 308 308 308 309 307 307 307 307 308 308 308 309 310 311 311 312 312 312 311 310 310 310 312 315 317 318 319 320 321 323 324 324 324 324 324 324 324 324
298 304 305 303 305 306 309 308 308 307 311 308 309 308 307 307 309 308 310 310 311 313 312 312 311 311 310 310 310 310 312 315 317 319 322 321 323 324 324 324 325 324 323 323 323
297 306 304 306 308 309 308 308 307 307 312 308 309 307 307 308 308 310 309 310 312 313 313 312 310 310 310 310 309 310 311 314 316 318 320 321 322 322 323 324 324 325 323 322 322
298 307 307 308 308 308 307 307 307 312 311 309 308 309 309 308 308 308 308 310 311 313 312 312 311 310 309 309 310 311 311 314 316 317 319 319 321 321 322 322 323 323 321 320 320
300 308 308 308 310 307 307 308 312 312 309 310 309 309 309 309 309 308 309 310 313 313 312 313 312 310 309 309 310 311 311 316 318 319 319 318 319 320 321 320 321 322 319 319 320
303 308 308 307 307 307 308 310 313 310 309 309 308 309 309 309 309 309 309 309 312 312 314 313 314 311 310 310 309 312 312 314 316 316 317 317 318 319 320 320 319 319 319 320 323
304 309 309 308 307 307 309 314 311 309 308 309 309 309 309 309 308 309 309 309 310 311 312 314 312 310 311 310 310 309 310 312 313 314 316 317 317 318 319 319 320 319 319 321 324
303 310 310 308 306 309 311 310 310 308 308 309 310 309 310 310 309 309 308 309 310 310 310 312 315 312 311 311 312 310 311 311 313 314 315 316 317 318 319 318 319 319 320 320 322
306 311 309 307 306 308 313 310 309 308 308 309 309 309 309 309 308 308 308 308 309 309 310 310 312 312 311 312 312 310 310 311 312 312 314 315 317 318 320 320 320 320 319 319 319
307 311 308 304 309 309 309 307 306 308 308 308 309 309 309 309 309 309 309 309 308 308 310 310 311 313 312 311 310 311 313 313 311 313 313 316 319 319 320 320 320 319 319 318 318
306 305 306 304 310 308 306 307 307 308 308 308 309 309 309 309 310 309 309 308 307 309 311 311 312 312 311 312 312 310 310 312 313 314 316 314 316 318 318 318 317 318 318 318 317
306 309 308 305 305 306 306 307 308 307 307 308 309 308 309 310 309 310 308 308 308 308 308 309 312 312 313 311 311 311 312 311 313 314 313 315 315 318 317 317 317 317 317 317 316
305 307 305 310 309 307 307 306 307 308 308 307 308 308 309 309 310 309 309 309 309 308 309 309 312 311 311 311 310 311 310 311 312 313 313 314 314 315 316 316 316 315 316 315 315
305 305 305 304 305 305 306 307 306 307 306 307 309 308 308 309 308 309 308 309 311 310 310 310 313 311 311 310 311 310 310 311 311 311 312 312 313 313 313 313 313 313 314 315 316
303 303 302 305 306 305 307 306 306 305 306 306 307 308 310 309 308 307 307 308 308 309 310 311 312 312 313 310 310 311 311 310 311 311 311 312 313 314 314 315 314 314 313 314 315

GFSSW_850_thetae_057.txt.gz
Theta_e
300 300 300 300 300 300 300 300 300 300 301 302 302 302 302 302 303 310 312 311 310 306 307 311 314 315 321 324 326 327 330 330 327 326 324 323 324 325 326 329 332 334 336 336 339
300 300 300 300 301 301 300 300 300 301 301 302 302 302 303 303 304 313 311 307 304 307 311 312 313 315 322 326 327 329 330 330 329 327 327 325 324 324 326 329 332 334 334 334 338
300 300 300 301 301 301 301 300 301 301 302 303 303 303 304 303 314 317 308 307 307 310 311 312 313 314 317 323 326 329 330 330 329 328 327 326 325 325 325 328 331 333 333 334 335
300 300 300 301 301 301 302 301 301 302 303 303 304 304 304 307 314 316 306 303 305 307 309 313 314 315 316 318 322 327 329 329 329 329 328 327 325 325 325 325 329 333 334 334 334
300 300 300 301 301 301 302 302 302 303 303 304 304 304 304 313 310 307 307 310 312 311 311 310 313 316 317 319 319 324 325 326 328 328 329 329 328 328 326 325 325 330 332 333 333
299 300 301 301 301 301 302 302 303 303 302 303 304 304 313 315 309 310 310 310 312 311 312 311 311 312 316 318 319 320 322 323 325 326 327 329 329 328 329 327 326 325 327 330 331
298 299 301 301 301 301 302 303 302 302 302 304 305 306 313 311 309 310 311 311 311 311 311 312 312 311 312 318 318 318 319 321 323 323 325 327 329 330 329 328 329 327 328 329 330
298 299 300 302 301 301 302 302 303 303 303 304 305 313 314 309 309 310 310 311 311 311 311 311 311 312 312 311 313 317 320 319 320 323 324 326 328 328 327 329 329 329 330 330 331
298 298 300 302 302 301 303 305 305 306 304 304 312 313 313 309 310 308 309 310 310 310 311 311 311 311 312 313 312 313 316 320 320 321 323 324 328 328 326 328 330 330 330 330 330
298 298 299 301 303 302 305 308 309 311 309 313 311 314 312 310 309 308 309 310 310 311 311 311 312 314 314 314 313 313 314 316 319 321 321 323 325 327 327 327 328 329 330 330 329
301 298 300 303 303 302 304 313 314 316 313 311 311 310 309 309 308 309 310 310 311 312 314 313 314 314 314 314 314 314 313 314 317 320 321 322 323 325 327 327 328 328 329 330 330
302 298 304 305 305 302 311 311 311 310 312 311 310 309 308 308 309 310 310 310 312 313 313 313 314 314 314 313 313 313 313 314 314 316 320 321 322 325 325 326 326 327 329 329 329
303 298 306 304 302 309 310 311 310 310 312 311 309 309 309 309 310 310 310 310 312 312 312 314 314 314 313 313 313 314 313 313 314 315 318 321 322 323 324 325 325 325 327 328 328
307 300 306 305 311 310 313 310 310 310 315 312 311 310 309 309 311 310 309 310 311 312 312 313 313 313 313 313 313 313 313 312 312 315 318 320 322 323 324 325 326 325 326 326 327
307 301 306 307 311 313 311 310 310 311 319 311 311 309 309 310 309 310 310 309 311 312 312 314 314 314 313 312 312 312 313 312 312 313 317 319 322 323 323 325 325 326 325 326 326
307 303 307 311 313 310 310 310 310 317 317 311 311 311 311 310 310 310 309 309 309 312 312 313 313 314 313 313 311 311 311 312 312 313 316 318 321 323 324 324 325 325 325 325 325
306 304 308 308 312 310 311 311 317 317 312 313 311 311 311 312 311 311 311 311 311 314 313 313 313 313 314 312 312 311 312 313 313 314 316 318 321 323 324 324 324 325 324 324 324
306 306 311 311 310 310 312 314 317 313 313 312 311 311 312 311 311 310 311 311 313 313 313 314 314 314 313 314 311 311 313 315 317 315 316 318 321 322 322 323 321 322 323 323 322
306 311 312 313 311 310 312 318 316 313 311 311 312 313 312 311 311 311 311 310 310 311 312 313 313 312 313 313 313 312 312 314 316 315 318 318 319 320 321 321 322 323 321 323 325
305 312 314 311 311 310 314 314 313 312 311 312 312 312 312 311 311 311 310 311 310 311 311 312 312 312 313 313 313 314 311 314 313 314 316 317 318 321 321 322 322 323 322 322 323
310 311 312 309 309 312 315 312 311 311 310 311 312 312 311 312 311 311 311 311 311 310 310 310 313 312 313 314 315 313 313 313 314 314 316 318 320 321 321 321 322 322 322 322 322
310 314 311 305 312 312 313 309 307 310 310 311 311 311 311 311 311 311 311 310 310 310 310 311 313 312 312 313 314 313 314 315 317 315 315 316 317 322 322 323 322 323 321 321 321
308 310 309 308 315 315 312 310 308 310 311 311 311 311 311 311 311 312 311 310 309 310 310 312 313 314 311 313 313 312 313 315 315 316 320 317 317 322 323 323 322 322 321 320 320
308 312 310 310 311 312 313 312 310 309 310 310 311 310 310 311 311 312 311 311 310 310 310 310 312 312 314 312 312 314 314 312 314 317 317 315 317 321 321 321 320 319 319 320 319
308 310 309 311 311 310 311 311 310 310 310 309 311 310 311 311 311 311 311 311 311 310 311 311 315 312 312 311 312 311 311 311 312 313 314 315 315 316 318 319 319 317 317 318 317
306 306 305 306 308 308 310 312 311 310 310 310 310 310 309 310 310 311 311 312 312 311 312 312 314 313 313 312 311 311 311 311 311 312 312 313 314 315 316 315 316 315 316 317 317
304 304 303 306 310 308 310 309 309 307 307 308 309 309 309 310 309 310 310 311 311 312 313 312 313 314 315 312 313 312 312 312 311 312 312 312 314 315 314 315 316 316 316 317 317

GFSSW_850_thetae_060.txt.gz
Theta_e
300 300 300 300 300 301 301 301 301 301 301 302 302 302 303 303 303 304 315 314 313 313 311 309 312 314 316 322 324 328 330 331 329 328 327 326 326 325 325 325 327 332 335 338 339
300 300 300 300 301 301 301 301 301 301 302 302 303 303 304 304 304 314 314 312 309 307 306 314 314 314 316 321 322 326 330 330 329 329 329 327 327 326 325 325 326 329 335 336 338
300 300 300 300 301 301 301 302 301 302 302 303 304 304 304 304 317 317 315 306 304 305 309 312 314 314 316 317 322 326 330 329 329 329 328 329 328 326 326 326 326 329 332 335 336
299 300 300 300 301 301 301 302 302 302 303 303 304 304 304 309 317 319 312 306 309 312 313 311 313 315 316 317 317 323 326 328 329 328 329 329 329 328 327 326 326 327 331 334 334
299 299 300 301 301 301 301 302 302 303 302 303 304 304 305 318 313 309 309 311 312 314 313 313 312 314 318 318 317 318 320 323 326 328 329 329 330 330 328 327 326 326 327 334 335
299 299 299 301 301 301 301 302 302 302 302 303 304 305 315 318 311 311 311 312 312 312 313 313 313 313 313 314 317 318 319 320 320 323 325 328 329 329 330 329 328 327 327 328 334
298 298 299 300 302 301 301 302 302 303 304 303 305 305 316 315 310 310 312 312 312 312 313 313 313 313 314 315 314 316 318 320 320 321 322 324 328 329 329 329 329 329 328 328 328
300 298 298 299 301 302 302 303 305 305 306 304 305 309 318 311 310 311 310 311 311 312 312 312 312 312 313 313 314 314 316 318 320 320 321 322 325 327 327 328 330 329 330 329 328
306 300 298 299 301 303 302 304 307 309 305 304 315 316 316 310 311 310 309 310 311 311 311 312 312 312 312 313 314 315 314 314 316 319 321 321 323 325 325 326 328 329 330 330 330
307 301 299 301 302 303 303 305 312 312 313 315 315 314 315 311 310 309 310 311 311 312 313 314 313 314 314 314 313 314 315 315 314 315 317 319 321 323 325 326 327 327 328 330 330
307 303 300 306 306 305 311 315 315 318 318 315 314 314 312 310 310 310 311 311 312 313 315 314 314 315 316 316 316 315 315 315 316 316 316 317 320 323 324 324 325 329 328 328 330
307 306 305 305 305 305 313 314 312 312 312 312 312 312 310 310 310 311 311 311 312 312 313 313 314 314 315 315 315 315 314 315 316 316 316 317 317 319 323 325 325 327 328 329 330
306 307 306 307 312 312 313 312 311 312 313 314 311 311 310 310 311 311 311 311 311 312 312 312 313 314 314 315 315 315 314 314 315 315 315 315 316 318 320 323 323 325 327 327 329
303 307 306 307 313 313 315 313 312 311 315 314 312 312 311 310 312 311 311 311 311 312 312 312 313 313 314 314 313 314 314 314 314 314 313 314 316 319 319 322 324 325 327 327 327
302 306 306 308 308 313 312 312 312 312 324 314 312 311 310 311 311 312 311 311 311 311 311 311 313 312 314 314 315 315 313 313 313 314 314 313 315 315 320 321 325 325 326 327 326
300 306 307 314 314 313 311 312 314 319 321 313 313 312 312 312 312 311 311 311 311 311 312 313 312 314 314 315 315 314 313 312 312 312 313 313 314 315 317 322 324 326 324 326 327
300 306 307 307 313 311 312 314 318 321 314 314 313 312 312 313 313 312 312 312 312 312 312 313 312 313 314 315 315 314 312 313 312 312 315 313 313 315 316 319 323 325 325 325 325
302 305 309 310 312 311 312 316 320 317 315 313 313 313 314 313 312 312 312 312 313 313 313 312 312 313 312 312 314 314 313 314 315 315 318 317 318 315 318 318 320 323 324 325 326
304 314 314 315 312 311 312 321 318 314 313 313 313 314 313 313 312 312 312 312 312 311 312 313 311 312 312 312 314 315 313 313 313 314 316 316 317 317 318 320 321 324 323 323 324
308 313 315 314 311 310 314 317 315 313 312 313 314 314 313 313 312 312 312 312 311 312 312 311 312 310 310 312 313 314 314 315 316 317 317 316 317 317 319 321 322 323 325 323 325
312 314 315 312 309 313 318 315 313 311 310 312 314 313 313 312 312 312 312 312 313 312 312 311 312 313 312 312 313 314 314 314 313 314 314 315 316 318 319 321 323 322 323 324 323
312 314 313 309 312 315 316 313 310 311 311 312 313 313 312 312 312 312 312 313 312 311 312 312 313 313 312 312 314 313 315 316 317 315 316 318 320 318 321 321 322 323 323 323 323
312 312 312 311 318 315 313 314 313 311 312 312 313 313 312 312 312 313 313 312 312 312 313 313 312 313 311 311 313 313 312 313 315 317 315 316 317 319 319 316 315 323 322 322 321
312 315 312 310 312 314 314 314 313 311 311 311 312 312 313 313 312 312 312 312 312 312 312 312 313 312 314 313 314 313 313 314 315 318 315 314 314 316 315 313 317 317 322 321 320
311 312 311 311 311 312 311 313 313 313 312 310 312 312 312 312 312 312 312 311 312 313 312 313 315 313 312 313 313 312 313 314 314 313 312 312 313 314 315 314 316 317 318 318 319
309 307 305 306 310 312 312 313 313 313 311 310 309 311 311 311 311 311 311 312 313 313 313 313 314 314 314 312 312 314 314 312 312 313 311 312 312 314 316 314 315 316 316 317 318
306 306 305 306 310 312 312 311 311 310 309 309 310 310 310 311 311 311 310 311 313 314 315 314 314 314 314 312 312 313 314 314 314 315 315 316 316 316 315 315 316 317 317 317 318

GFSSW_850_thetae_063.txt.gz
Theta_e
299 300 300 300 300 301 301 301 301 301 301 302 303 303 303 304 304 304 305 315 314 314 313 311 309 312 315 316 321 324 326 328 328 327 326 326 324 327 326 325 325 325 334 339 339
299 300 300 300 300 301 301 301 302 301 302 303 303 304 304 304 305 305 316 315 312 307 307 311 314 314 314 316 318 321 322 328 327 328 327 327 327 327 325 325 325 325 333 336 338
299 299 300 300 300 301 301 301 302 302 302 303 303 304 304 304 317 317 315 311 308 306 306 310 312 314 314 315 316 321 322 323 326 327 328 328 328 328 327 323 325 325 326 334 337
299 299 300 300 301 301 301 301 302 302 303 302 303 304 304 309 319 317 310 307 310 313 313 313 312 311 314 313 316 314 317 322 324 326 327 327 328 328 328 328 327 327 326 326 334
298 299 299 300 301 301 301 301 302 303 303 302 303 304 305 319 318 310 311 310 312 314 314 313 313 313 310 314 315 315 315 316 318 320 323 326 327 328 328 329 329 328 328 327 327
302 299 299 300 300 302 302 301 302 303 303 303 303 304 310 319 311 312 311 312 312 312 312 313 313 313 313 312 311 313 313 315 317 317 318 319 321 326 327 329 329 329 328 328 329
307 305 299 299 300 301 303 302 303 305 305 304 303 305 311 310 311 310 312 311 312 312 312 313 313 312 312 311 314 313 312 313 314 316 317 319 319 320 323 326 328 329 329 329 329
307 307 300 299 300 301 304 304 304 307 309 306 304 305 311 313 311 311 310 310 311 311 311 311 312 312 312 312 312 311 310 311 314 316 317 317 317 319 321 324 326 327 328 329 329
308 307 301 300 303 302 303 305 304 310 308 306 310 316 319 311 311 310 309 310 311 311 312 312 312 312 312 310 308 310 310 311 312 313 314 315 318 318 319 320 324 324 327 328 329
306 307 302 305 305 305 306 311 314 314 313 317 312 315 315 312 311 309 310 311 311 311 313 314 313 310 309 309 310 310 310 311 312 313 312 311 313 315 317 319 321 323 323 326 328
303 307 303 306 305 309 313 315 313 318 314 318 318 315 313 312 310 310 311 311 311 312 312 312 310 310 311 312 313 313 313 313 314 314 313 313 313 314 315 315 317 321 324 325 326
300 304 304 309 310 311 314 313 311 311 312 312 313 312 312 310 310 311 311 311 311 310 310 310 309 311 312 313 313 313 313 313 313 314 313 313 313 314 314 314 315 316 320 323 326
305 301 305 309 312 313 314 314 312 312 311 312 314 311 312 310 311 311 311 311 310 310 310 310 310 312 312 312 312 313 313 313 313 313 313 313 313 313 314 314 314 315 316 320 325
310 300 305 306 312 311 313 312 312 312 311 314 310 311 311 310 311 311 311 311 311 310 310 309 309 311 312 312 312 313 314 315 314 312 311 312 312 312 313 313 314 316 316 317 321
311 300 305 312 313 314 311 312 313 312 322 313 312 311 311 311 312 312 311 311 310 310 309 309 309 312 312 313 314 314 314 314 313 311 308 310 309 311 312 312 313 313 315 318 320
310 301 306 314 313 313 311 312 313 317 322 312 312 312 311 312 312 312 312 311 311 310 310 310 312 311 314 313 312 314 314 313 312 308 309 309 309 309 310 311 313 313 314 316 320
305 305 305 307 313 312 310 314 316 322 315 313 313 312 311 312 313 312 312 310 310 311 311 312 311 311 313 312 311 311 314 315 312 309 311 311 313 313 313 313 312 313 314 314 315
302 313 306 312 311 312 311 313 320 318 314 313 312 312 313 313 313 312 311 310 312 312 311 310 310 310 312 310 310 310 312 314 316 313 312 311 312 311 313 314 315 314 315 313 314
308 313 315 314 313 310 311 317 319 315 313 312 312 313 313 313 312 311 311 311 312 311 311 310 312 311 311 310 309 309 311 310 313 314 315 313 312 313 313 314 316 317 316 316 316
312 315 316 314 312 312 312 316 316 312 310 311 312 314 313 312 311 311 311 313 313 312 311 312 312 311 311 311 311 312 311 311 314 314 317 314 314 314 319 318 315 315 316 318 320
313 316 315 311 309 314 315 316 314 311 311 311 312 313 313 312 311 311 311 311 313 312 311 311 311 312 311 311 312 313 313 314 314 315 317 315 313 318 317 316 315 314 314 317 319
312 314 315 309 312 316 315 313 313 314 311 311 312 313 313 312 311 312 312 313 312 312 312 312 312 312 311 310 312 312 312 314 316 315 313 315 315 315 314 314 314 313 315 320 322
311 314 313 312 314 312 313 313 312 312 311 311 311 312 312 312 313 312 312 312 312 312 313 312 311 311 310 309 313 313 312 312 313 314 316 316 314 314 314 313 313 314 316 318 318
312 314 312 310 310 311 311 311 312 313 313 311 312 311 312 312 310 311 310 312 311 311 313 313 311 312 313 312 311 312 312 312 311 312 314 314 314 316 314 313 313 313 314 315 319
311 311 307 308 307 308 311 311 312 314 311 311 311 309 309 312 311 310 310 310 310 311 312 312 314 313 313 313 312 312 312 313 312 312 314 315 316 315 315 313 313 314 315 315 316
306 307 306 305 308 309 312 312 312 311 310 310 309 310 309 309 310 309 310 310 311 311 312 312 314 313 314 313 312 312 312 313 313 313 313 314 316 315 314 313 314 314 315 315 317
306 306 306 306 307 307 309 308 309 309 310 309 308 308 309 309 309 310 310 310 309 310 311 314 314 315 314 312 312 313 312 313 314 314 313 316 314 315 316 315 315 315 316 320 323

GFSSW_850_thetae_069.txt.gz
Theta_e
299 299 299 300 300 300 301 301 301 301 302 302 302 302 303 304 304 304 305 305 311 312 310 312 311 311 313 315 320 321 324 326 326 325 324 325 325 326 327 327 327 327 326 330 336
301 300 299 299 300 300 301 301 301 301 302 302 303 302 303 304 305 311 308 313 313 306 305 307 311 312 311 314 316 318 319 325 326 326 326 326 326 326 326 326 327 327 327 328 341
306 305 302 300 299 300 301 301 301 301 302 302 303 303 303 304 315 316 313 308 307 311 306 307 312 311 312 313 314 317 320 323 324 322 323 323 322 323 324 325 326 326 327 327 328
307 307 307 303 299 299 300 301 302 301 302 303 303 304 304 309 318 310 309 310 312 313 313 313 313 311 310 311 313 312 313 314 315 316 317 320 320 321 322 323 325 322 323 326 328
307 307 307 307 300 299 300 301 303 301 302 304 305 304 304 313 315 311 310 312 312 311 311 312 311 311 308 309 310 310 311 312 312 312 313 314 314 315 316 317 318 319 320 321 326
303 305 306 307 301 300 300 301 303 302 303 306 307 304 305 311 311 310 311 311 311 311 311 312 312 312 310 310 309 310 310 310 311 312 312 313 314 315 317 318 318 318 319 320 322
308 302 303 306 303 304 303 301 303 303 304 309 306 304 305 307 311 310 310 310 310 310 311 311 311 311 311 309 310 310 309 308 310 312 312 314 313 314 316 317 317 318 318 319 320
310 307 302 305 305 305 305 304 304 304 306 309 304 307 307 311 311 310 309 309 310 310 311 311 311 311 311 311 309 308 306 305 308 309 311 312 313 315 316 315 316 315 316 317 318
310 311 303 304 306 307 312 312 313 311 312 313 305 316 316 312 310 310 309 310 310 310 311 311 311 310 310 307 306 305 307 309 309 310 309 311 310 311 314 314 313 314 314 314 314
310 310 305 305 307 312 312 311 314 313 312 316 311 314 313 314 311 310 310 310 310 311 311 312 311 306 304 306 309 310 309 309 309 310 310 310 311 311 313 313 313 313 314 314 314
310 311 305 306 310 312 313 312 311 312 311 311 314 315 315 313 310 310 310 310 311 310 308 308 306 307 307 307 309 310 310 309 310 310 310 310 311 312 311 312 311 313 313 314 314
309 311 304 306 311 313 313 313 312 311 311 311 311 311 313 314 312 310 310 310 310 308 308 306 307 308 308 308 310 310 310 310 311 312 312 311 312 312 311 310 312 312 313 313 313
309 310 303 305 312 312 312 311 312 312 310 310 312 312 311 312 312 310 310 310 309 308 308 307 308 308 308 310 311 311 311 311 312 312 311 310 311 310 310 310 311 311 311 311 311
309 309 302 304 311 313 311 311 311 313 310 315 311 311 312 312 310 311 310 310 309 308 307 307 307 308 307 310 312 312 311 312 311 312 312 311 312 310 310 308 309 309 310 310 310
309 303 304 309 313 312 311 311 311 313 313 314 310 310 310 310 310 311 311 310 308 308 307 307 308 308 309 310 312 311 311 310 311 312 311 312 308 310 310 309 307 307 309 311 312
306 308 306 312 313 311 308 312 313 312 314 312 311 311 310 310 310 310 311 310 310 308 307 307 308 309 309 311 311 310 309 309 309 307 310 310 308 310 309 308 308 309 313 314 315
310 307 306 312 310 310 310 314 312 314 313 311 310 310 310 311 311 311 310 309 308 308 308 308 309 309 312 311 308 305 306 306 309 309 310 308 309 309 309 309 311 314 315 315 313
310 305 309 313 312 311 312 310 315 313 311 311 310 310 311 310 310 310 309 308 310 309 307 309 309 310 310 309 308 307 305 305 310 312 309 309 311 309 309 314 315 314 313 313 312
314 313 314 312 311 311 312 310 312 310 310 310 310 312 311 311 310 309 309 310 311 309 309 308 311 310 310 310 308 308 307 306 309 309 309 309 309 309 310 315 314 313 313 311 312
315 315 315 313 311 311 309 313 313 313 311 309 311 311 311 310 310 309 309 311 312 310 308 309 311 310 310 309 309 308 308 309 303 307 311 311 311 311 310 310 314 312 311 312 312
313 315 313 311 310 314 308 312 313 312 312 310 310 310 310 311 310 310 310 310 311 310 309 309 308 310 310 309 307 307 308 310 306 311 313 314 311 309 312 313 313 311 312 312 312
312 310 312 311 311 307 309 310 311 311 312 310 309 310 310 310 310 311 310 310 311 311 311 310 308 311 310 309 308 308 308 308 306 310 310 311 312 309 311 311 311 311 312 312 311
311 312 313 312 303 304 305 309 309 311 311 310 309 309 309 309 311 311 310 310 309 309 310 309 309 312 309 307 307 310 310 309 309 310 312 313 312 310 311 312 313 312 313 312 311
308 304 307 307 305 305 305 307 310 310 310 309 309 308 307 308 308 309 310 309 308 308 310 311 310 312 312 310 307 311 312 310 309 313 311 312 312 311 311 312 313 313 313 315 311
304 303 304 301 301 303 304 306 309 309 308 308 307 308 307 307 307 307 307 307 307 308 309 307 308 309 311 312 312 312 313 313 313 312 311 311 311 311 311 312 313 314 314 316 312
303 304 304 304 304 303 304 307 307 307 307 307 307 306 306 305 306 307 305 305 306 307 308 306 310 312 311 310 311 313 312 312 313 313 312 310 311 310 313 313 314 314 313 314 316
301 303 305 302 302 303 302 305 305 304 306 307 306 305 304 305 306 307 307 306 305 307 306 306 307 310 311 311 311 312 312 311 311 310 312 313 311 313 313 313 311 311 310 314 313

GFSSW_850_thetae_072.txt.gz
Theta_e
304 302 301 300 299 299 300 300 300 301 301 302 302 303 303 303 304 305 306 305 308 306 307 310 311 311 311 314 319 322 326 326 325 324 324 325 325 326 326 326 325 326 326 327 327
307 306 306 304 300 299 300 300 301 301 301 302 303 303 303 304 306 312 310 310 312 308 305 305 310 311 310 313 317 317 319 324 324 324 325 324 325 324 325 323 324 324 325 323 325
307 307 307 307 304 300 299 300 301 301 301 302 303 303 304 304 316 313 309 307 308 310 306 306 311 311 311 312 314 315 318 321 322 320 320 320 320 321 321 322 323 322 322 321 322
304 303 305 306 306 300 299 300 300 302 301 302 304 304 304 306 317 310 309 309 312 312 312 312 312 310 309 310 311 311 313 311 313 313 313 314 314 315 317 318 318 318 319 319 320
308 305 303 305 305 302 301 300 300 302 302 303 305 305 304 309 314 310 310 312 311 311 311 311 311 310 308 308 310 309 310 311 311 312 313 313 313 314 315 315 317 318 318 318 319
310 309 305 304 304 304 304 302 301 303 303 304 308 307 304 308 311 311 311 311 311 310 311 311 311 311 310 309 309 309 310 309 310 311 311 312 313 314 316 316 317 316 317 318 318
309 309 309 304 304 305 305 303 302 303 304 308 305 305 304 306 311 310 310 309 309 310 310 311 311 310 310 309 309 310 308 306 309 310 310 312 311 313 314 315 316 316 316 316 317
309 309 310 304 306 307 310 311 310 305 304 310 305 307 307 309 310 310 310 309 309 310 310 311 310 310 311 310 308 306 304 305 306 309 310 311 311 312 313 313 314 314 314 314 314
309 310 310 304 307 311 312 311 313 312 311 312 307 314 315 311 310 310 309 309 310 310 310 310 311 310 309 306 305 305 308 308 308 308 308 310 309 311 312 312 313 313 313 313 313
309 310 311 304 309 312 312 311 313 312 312 313 310 313 313 313 311 310 309 309 310 310 311 310 310 305 303 305 307 308 309 308 308 309 309 309 310 310 312 312 312 312 313 313 313
309 310 310 304 311 313 312 312 311 311 311 311 311 313 314 313 310 309 309 310 310 310 307 307 306 306 307 306 307 308 309 309 308 309 310 309 310 310 311 311 311 311 312 312 312
309 310 309 305 312 312 312 312 311 311 310 311 311 310 311 313 312 310 310 310 309 308 307 305 307 307 307 307 307 308 309 308 309 310 310 309 311 310 310 310 311 311 311 311 311
308 310 303 305 312 312 311 311 311 312 309 310 312 311 311 311 312 310 310 310 308 307 307 306 307 308 307 308 310 309 310 309 311 310 310 309 309 309 308 309 310 311 311 311 311
309 307 303 304 311 311 311 311 311 311 308 312 310 311 312 312 310 310 310 310 308 307 306 306 307 308 308 309 310 311 309 311 310 309 309 310 311 310 309 309 308 309 311 310 310
308 305 306 310 312 312 311 309 310 313 311 312 309 310 310 309 309 310 310 310 308 308 306 307 308 307 308 308 310 308 310 310 309 309 310 310 309 308 309 308 307 306 309 309 311
309 306 309 311 312 310 307 311 313 309 313 311 310 310 309 310 309 310 310 309 309 307 306 305 307 307 307 309 310 309 308 305 305 306 308 307 309 308 307 307 308 307 309 312 314
307 306 310 311 311 310 309 313 311 313 311 311 310 309 309 310 309 309 309 309 307 308 307 307 309 308 311 310 307 305 304 305 305 307 308 307 308 308 308 309 308 308 312 314 313
306 310 311 312 311 310 312 309 314 311 310 310 309 308 311 310 310 308 309 309 309 307 307 309 309 308 309 309 309 307 305 305 308 310 306 306 308 307 307 308 311 314 314 313 312
313 313 313 312 311 311 312 308 310 310 309 309 309 311 310 310 309 308 308 309 309 308 308 308 310 309 309 309 308 308 306 304 306 307 307 307 307 307 308 309 313 313 313 312 312
314 314 313 312 310 312 308 312 312 312 310 308 310 310 310 309 310 309 309 310 311 309 308 308 310 309 309 309 308 307 306 308 301 306 305 307 309 309 309 309 310 311 311 312 312
311 314 311 311 311 312 308 310 312 312 311 309 309 309 308 310 309 309 310 309 310 310 308 307 308 309 309 309 308 306 306 308 304 303 307 311 308 307 308 308 309 309 311 311 312
312 309 312 312 309 304 307 309 310 310 311 309 308 307 309 309 309 309 309 309 311 309 309 308 306 309 309 308 307 305 306 306 306 309 309 309 311 309 308 308 309 310 311 312 312
306 311 311 310 302 302 303 307 308 310 310 309 309 308 307 308 309 309 310 309 310 307 309 308 308 310 308 306 306 309 308 307 308 308 311 312 310 308 309 310 310 310 311 313 312
303 303 305 306 304 303 304 306 309 310 309 308 308 307 307 307 307 308 309 309 308 307 309 310 308 309 309 307 305 309 310 309 311 312 311 311 310 309 309 309 309 311 313 313 313
302 302 303 299 300 303 303 305 308 309 307 307 307 307 307 307 306 306 306 306 306 307 307 306 308 308 310 310 311 311 311 311 312 312 313 312 311 310 309 309 311 313 313 312 311
300 302 302 302 302 302 303 304 306 306 306 306 306 305 305 304 305 306 305 305 305 306 307 307 308 308 311 311 310 309 309 310 311 311 312 312 312 311 310 311 312 311 311 311 312
297 301 304 301 300 302 301 304 305 303 305 305 305 303 303 304 304 305 305 305 305 305 306 305 306 309 308 308 309 311 310 310 310 310 311 312 311 309 311 312 311 311 311 311 310

GFSSW_850_thetae_075.txt.gz
Theta_e
306 306 306 306 303 300 300 300 301 301 301 302 303 303 303 303 304 306 308 307 306 306 305 309 311 311 311 313 319 324 325 325 325 324 324 325 326 325 326 326 326 325 325 324 322
305 304 306 306 307 303 300 300 301 301 301 302 302 303 303 304 308 313 312 309 311 309 307 307 310 311 310 312 316 321 322 323 325 324 325 325 324 322 324 325 325 325 323 321 320
307 305 303 304 306 304 300 300 300 301 301 302 303 304 304 304 314 310 308 308 309 310 306 305 310 311 311 312 314 318 320 322 324 323 320 322 321 321 323 324 324 322 320 319 320
309 308 306 304 305 303 302 300 300 301 302 302 303 305 304 305 316 310 309 312 312 311 312 312 311 310 312 312 311 314 315 314 318 315 314 316 314 317 319 321 320 317 318 318 319
309 309 308 305 304 304 304 302 301 301 303 302 304 306 304 307 314 310 311 311 311 311 311 311 311 310 312 311 312 313 312 312 312 312 313 313 314 315 318 318 318 317 317 318 318
308 309 309 306 304 305 304 303 301 301 303 303 306 306 305 308 311 311 311 311 310 310 310 311 311 311 311 311 312 311 311 311 311 312 312 313 314 314 316 315 315 316 317 316 317
309 310 310 306 305 306 308 307 304 303 304 304 308 305 305 305 310 310 310 309 309 310 310 311 311 310 310 311 309 310 311 311 311 311 312 312 314 314 313 313 315 321 321 317 315
309 309 310 306 306 310 312 310 312 308 304 309 310 305 306 306 310 310 310 309 308 309 310 310 310 310 311 309 310 311 309 310 311 311 312 312 314 313 312 313 314 314 314 314 314
309 309 310 305 308 312 312 311 313 312 311 312 310 313 314 311 311 310 310 309 309 309 310 310 310 310 310 311 312 311 311 312 312 312 312 313 314 313 312 312 313 313 313 313 313
308 310 311 304 310 312 312 311 313 312 312 312 309 313 313 312 312 310 309 309 309 310 310 310 310 311 310 311 312 312 312 312 312 312 312 313 313 313 312 312 312 312 312 313 313
308 310 310 305 311 313 312 311 310 310 311 310 311 312 313 313 311 310 309 309 310 309 311 309 312 313 311 310 310 311 311 311 312 312 312 313 312 312 312 312 312 312 312 312 312
309 310 307 306 312 312 312 311 311 311 311 311 311 310 311 312 312 309 309 310 310 310 309 310 310 311 310 309 309 311 311 311 311 312 312 312 312 313 313 313 312 312 312 312 311
310 309 302 307 312 311 311 310 310 311 311 311 311 311 310 312 312 311 310 310 310 310 310 310 310 309 309 310 311 312 312 311 311 312 311 312 312 312 313 312 312 312 312 311 311
307 304 304 308 311 311 311 311 310 311 312 312 311 311 311 311 311 310 310 310 310 310 309 310 309 309 309 310 311 311 311 311 311 311 311 311 311 311 312 313 312 312 312 311 309
310 303 305 310 312 312 311 307 310 312 314 312 310 309 309 310 309 310 310 309 311 310 309 310 310 310 310 310 311 311 311 312 311 311 312 311 312 311 312 312 312 313 312 311 311
306 307 310 311 311 310 307 310 313 315 314 312 311 311 311 310 310 310 309 309 309 310 309 310 308 309 310 310 312 311 311 311 310 310 311 310 311 311 311 313 312 312 311 312 314
307 309 311 312 311 310 311 313 317 316 312 312 311 310 310 312 311 311 311 311 311 311 311 310 310 309 311 312 309 310 311 311 311 310 310 311 310 311 312 312 312 311 311 313 315
310 312 312 310 311 311 312 314 319 313 311 311 310 310 311 311 311 311 311 312 311 310 311 312 312 310 311 311 311 311 312 312 312 310 310 310 310 310 311 310 310 310 313 315 314
313 314 312 311 310 311 312 319 316 312 312 312 310 312 312 311 311 311 311 312 312 312 313 314 312 311 310 311 311 310 311 309 311 311 311 310 310 310 310 311 312 313 314 313 313
311 313 312 310 310 312 313 314 313 312 311 311 311 311 312 311 311 311 312 311 312 311 311 312 312 311 311 310 310 311 310 312 313 312 311 309 310 310 310 311 312 312 312 312 312
311 313 312 311 311 312 316 313 313 312 310 312 310 311 311 311 311 311 311 311 312 311 310 311 312 311 311 311 310 310 311 312 312 311 311 311 311 311 311 311 312 312 313 311 312
309 313 312 312 311 306 311 310 309 310 311 311 310 310 310 311 312 312 311 311 311 311 312 312 313 313 312 310 310 310 311 311 312 311 312 312 314 311 311 311 313 312 311 311 314
303 308 310 306 312 308 306 307 307 309 311 311 311 309 309 311 311 311 311 310 310 311 312 312 313 312 310 310 310 311 311 311 311 312 313 314 313 311 312 312 311 311 311 313 313
301 308 303 305 304 305 305 305 309 309 310 308 309 309 309 310 310 311 310 310 308 309 310 310 312 312 312 310 311 311 311 311 312 314 313 313 313 313 313 313 312 312 312 314 313
300 304 303 304 303 304 305 306 307 308 308 307 309 308 309 310 309 309 309 308 308 308 309 310 312 312 311 311 311 311 310 310 312 313 314 313 313 313 314 314 313 312 313 313 313
299 301 300 302 302 304 305 306 307 307 307 308 308 307 307 308 308 309 308 307 307 307 309 310 311 311 311 311 312 312 312 312 312 312 312 313 314 314 313 312 312 313 313 313 313
295 298 302 301 303 304 303 305 306 304 304 305 306 305 306 305 305 305 305 305 307 308 309 310 311 311 310 309 310 311 311 311 311 312 313 314 313 313 313 313 313 313 313 313 312

GFSSW_850_thetae_078.txt.gz
Theta_e
306 305 305 306 306 306 301 300 301 301 301 302 303 303 304 304 305 310 313 310 307 307 306 309 311 312 312 316 319 322 327 326 326 326 327 325 325 325 327 327 327 327 327 327 325
308 307 305 305 305 306 302 300 300 301 301 302 302 303 304 305 310 316 312 309 311 308 308 308 312 313 314 315 318 322 324 324 325 326 327 326 325 326 326 327 328 329 327 326 324
310 309 308 305 305 305 302 301 300 301 302 302 302 304 305 305 317 314 307 309 311 311 309 309 312 312 314 315 317 320 323 322 323 324 325 326 326 325 325 327 327 329 326 324 323
309 309 309 307 305 304 304 303 301 301 301 302 302 304 305 306 319 315 310 312 311 311 314 313 312 313 315 316 316 318 319 320 321 323 323 324 324 324 323 324 324 328 325 322 323
309 309 310 308 305 304 304 303 302 301 301 302 303 305 306 312 316 311 311 311 311 312 313 313 313 313 315 315 315 316 317 316 317 318 318 319 321 322 322 322 318 323 322 321 321
309 310 310 308 305 305 306 305 302 301 302 303 304 306 310 311 312 310 311 310 313 313 312 313 313 313 314 314 315 315 315 315 315 316 316 317 317 318 318 317 317 322 324 323 321
309 310 310 308 305 308 311 310 310 304 303 304 308 305 310 309 312 311 311 312 311 311 312 312 312 312 313 314 313 314 315 315 315 315 316 315 317 318 317 316 316 316 318 323 323
307 309 311 306 307 311 312 311 312 308 305 309 310 306 312 306 310 311 313 312 311 310 311 311 311 312 312 313 313 314 314 314 316 314 314 314 317 318 316 316 316 316 315 317 317
306 309 311 305 309 312 312 312 313 312 311 311 312 314 314 309 312 311 312 311 310 310 311 310 311 313 312 314 315 315 313 314 315 315 315 315 316 317 315 315 316 316 315 315 316
308 310 311 305 311 312 312 311 313 313 312 311 310 316 313 313 314 312 310 310 310 311 312 312 313 315 314 315 314 315 315 314 314 315 315 315 315 316 315 315 315 315 315 314 315
310 311 310 306 311 313 312 311 313 315 315 314 313 314 314 314 311 311 310 310 311 312 314 313 314 315 315 314 313 314 314 314 315 315 314 315 315 316 315 315 315 315 315 315 315
310 311 305 309 312 312 311 313 312 312 315 313 312 313 313 313 313 312 310 311 312 313 313 313 314 314 313 312 312 313 314 314 314 314 314 314 314 315 315 315 315 315 315 315 315
307 306 303 311 312 312 312 311 310 311 315 313 313 313 313 313 313 313 311 311 313 313 313 313 313 312 312 312 312 313 314 314 313 313 314 314 315 315 315 315 314 314 315 314 315
308 302 305 311 312 311 313 311 309 311 318 315 314 313 313 313 313 312 311 312 313 313 313 313 313 312 312 312 313 313 313 312 312 314 314 314 314 315 315 315 315 315 315 315 314
306 305 305 312 312 314 312 307 310 313 320 314 313 312 311 313 312 312 311 312 313 314 312 313 312 312 312 313 313 313 313 313 313 314 315 314 315 315 315 315 315 315 314 313 314
307 310 310 312 311 311 307 310 314 321 318 314 313 313 314 313 313 312 312 311 312 314 314 313 313 312 313 313 313 313 313 314 314 315 315 314 315 314 314 315 315 314 312 313 315
310 311 311 311 313 310 311 315 322 321 315 315 314 314 314 314 315 314 315 315 314 314 315 314 314 313 312 313 314 314 314 315 314 316 315 314 314 314 314 314 314 313 312 312 313
311 312 312 310 310 311 314 319 322 317 316 314 314 314 315 315 315 314 314 315 314 314 315 315 315 314 313 314 314 315 314 314 314 314 314 314 314 315 314 313 312 312 313 314 315
312 313 314 312 311 312 315 321 317 316 314 314 315 315 314 314 313 313 314 314 314 315 315 315 315 314 313 313 314 314 314 314 314 314 315 315 314 314 314 313 313 313 314 313 314
304 314 316 311 311 312 317 316 316 314 314 314 314 313 314 314 313 313 313 313 313 314 314 315 316 314 314 313 313 313 313 314 314 315 316 314 314 314 314 313 313 314 313 313 314
310 314 314 312 310 314 318 315 315 314 314 313 313 313 313 313 313 313 313 313 313 313 314 314 315 313 314 314 313 314 313 313 314 316 317 315 314 315 314 314 314 314 313 314 313
309 313 313 312 312 313 314 313 309 310 310 311 312 313 313 313 313 314 314 313 312 312 314 313 314 315 314 313 313 313 313 314 316 315 315 315 315 315 315 314 313 314 313 313 313
307 309 311 304 313 312 310 309 308 309 309 312 313 313 313 313 314 313 313 312 312 312 313 313 314 315 314 314 313 313 313 313 314 316 316 317 315 315 315 315 314 315 314 313 314
306 311 308 308 307 308 307 308 309 310 311 311 312 312 312 313 313 313 313 312 311 311 311 312 315 314 315 313 313 314 312 313 314 317 316 314 315 315 315 315 316 315 315 315 315
304 309 306 310 308 306 307 308 308 308 309 309 310 311 312 312 312 311 311 311 310 309 310 313 315 313 313 312 311 312 312 312 313 315 315 313 314 315 315 316 315 314 314 315 315
304 304 305 305 305 306 306 307 307 307 308 307 309 308 309 310 310 311 310 310 310 310 310 310 311 311 312 311 310 311 313 313 312 313 313 313 314 314 314 314 315 314 315 314 315
296 299 303 307 307 307 306 305 305 306 305 305 307 308 308 309 308 307 305 306 307 308 309 309 312 313 313 311 311 313 312 312 313 313 313 314 314 314 315 315 315 314 314 314 314

GFSSW_850_thetae_081.txt.gz
Theta_e
308 307 306 306 306 307 305 301 301 301 301 302 303 303 304 305 305 314 318 315 312 307 306 310 313 314 314 317 319 322 325 326 326 326 327 327 327 325 325 325 326 330 330 328 329
310 309 308 306 306 306 305 302 300 301 301 302 303 303 305 305 309 319 318 310 309 308 314 311 312 315 316 317 319 322 325 324 325 326 326 326 327 326 327 326 327 329 329 329 328
308 309 309 308 306 306 303 303 301 301 301 302 303 304 305 306 320 318 309 309 310 309 314 310 312 315 317 317 319 321 324 324 325 324 324 326 327 327 327 328 327 328 329 329 328
309 309 310 310 306 305 304 304 302 301 301 302 302 304 306 307 325 318 311 312 311 314 316 315 313 315 317 318 318 320 320 321 322 322 323 325 326 327 327 327 326 326 326 328 329
310 310 310 311 307 305 305 304 303 301 301 302 303 304 306 317 317 315 311 311 313 315 315 315 315 316 317 318 318 319 320 319 319 319 321 323 325 325 325 326 325 324 323 327 328
307 309 310 311 306 305 307 309 307 302 302 303 303 305 311 316 316 317 316 314 315 314 315 315 315 315 316 317 318 318 318 318 318 318 319 320 320 320 321 323 323 323 321 324 327
305 308 310 311 305 308 311 311 310 309 304 304 306 306 314 314 314 315 314 315 313 313 313 314 314 314 315 317 316 316 317 318 318 318 319 318 319 320 319 320 321 320 319 321 325
308 308 310 309 306 311 312 311 311 308 306 309 310 312 317 311 312 314 314 314 312 312 312 313 313 313 315 315 315 317 316 316 318 318 318 318 319 320 319 320 320 319 319 318 318
309 310 311 306 309 311 312 311 312 312 311 311 314 317 318 311 312 313 314 313 312 312 312 312 311 314 315 316 316 317 316 317 318 318 317 318 318 320 319 319 319 319 319 319 318
310 311 312 305 310 312 312 311 311 312 313 313 316 317 317 313 313 312 313 312 312 313 313 314 314 316 317 315 317 317 318 318 317 318 318 317 318 318 318 319 319 318 319 319 318
310 312 310 307 312 313 312 316 318 320 319 319 317 317 316 315 314 313 312 312 312 313 316 316 317 317 317 318 318 317 317 317 318 318 317 317 317 318 318 317 318 318 318 318 318
307 310 304 310 312 312 315 316 314 314 317 315 314 314 315 314 315 313 313 312 314 315 316 316 316 316 316 317 316 315 315 316 317 317 317 317 317 317 318 318 317 317 317 317 317
306 304 305 312 312 314 314 314 314 314 318 315 314 313 314 314 315 315 313 313 314 316 316 316 317 315 315 315 315 315 315 316 317 317 317 316 317 318 318 317 317 316 316 317 317
304 304 307 311 315 314 316 313 313 314 321 318 315 315 314 314 315 314 314 314 315 316 316 316 316 314 314 314 315 315 316 316 316 316 316 317 318 318 319 318 318 317 317 317 317
308 305 309 312 317 316 315 312 314 316 327 317 316 315 315 315 315 314 314 314 315 316 316 316 316 315 314 315 315 315 315 316 315 316 316 316 317 317 318 318 318 318 317 317 317
310 310 310 315 315 314 312 313 317 324 325 317 316 315 316 315 315 315 314 313 314 316 316 316 315 316 315 315 315 315 314 315 316 316 317 317 318 317 317 318 318 318 315 314 315
310 311 311 309 315 313 314 317 325 324 320 318 317 316 316 317 317 317 317 317 317 317 318 317 317 316 315 315 315 315 316 317 317 317 317 318 317 317 317 317 317 317 316 314 314
307 311 315 313 315 314 316 321 325 321 320 318 316 316 316 317 317 317 317 318 317 317 318 318 317 317 317 316 315 316 317 319 320 318 317 316 317 318 317 316 315 315 314 315 315
304 310 316 318 315 314 316 323 322 321 317 316 316 316 317 317 316 316 316 316 316 317 318 319 317 317 316 316 316 316 316 316 317 317 316 317 317 317 317 316 315 314 315 316 316
304 314 316 317 313 314 319 320 319 317 316 316 316 316 316 316 316 316 316 316 315 315 316 316 318 317 316 316 316 315 316 316 319 319 317 315 315 316 317 316 316 315 315 315 315
316 316 318 314 313 315 319 318 318 316 313 315 315 315 315 316 315 315 316 316 315 315 315 316 317 317 316 316 316 316 316 316 315 316 319 319 318 317 316 316 316 317 316 315 315
313 316 316 313 315 316 316 316 311 312 311 312 313 314 315 314 315 315 315 316 315 314 314 316 316 317 316 316 315 316 315 316 319 317 315 315 315 318 317 316 316 316 316 316 316
310 312 315 309 317 317 316 314 313 312 311 312 313 315 315 315 315 315 315 315 314 315 315 315 317 319 318 316 316 315 315 315 315 316 317 321 319 318 317 317 316 316 316 316 316
309 315 314 312 312 313 314 314 313 312 312 312 313 313 314 314 314 315 315 315 313 313 312 313 315 316 317 315 316 317 317 316 316 320 317 316 316 316 317 316 317 316 316 316 316
309 313 310 314 315 314 312 313 313 313 312 311 312 312 313 314 314 315 314 314 313 313 312 314 313 314 314 313 314 315 314 313 313 315 316 316 314 315 316 315 315 316 316 315 316
305 307 307 308 311 312 312 312 312 311 311 311 311 310 310 311 312 312 312 313 313 313 312 313 316 313 313 312 312 312 313 312 312 313 314 315 316 316 315 313 314 315 316 317 316
302 303 305 309 312 312 312 310 309 309 308 308 308 308 309 309 308 308 309 309 310 309 310 311 312 314 314 313 313 315 314 314 314 314 314 314 314 316 314 316 316 316 316 315 314

GFSSW_850_thetae_084.txt.gz
Theta_e
310 309 308 307 306 306 307 305 301 301 302 302 302 303 304 305 305 309 316 317 317 315 307 308 314 316 315 316 318 320 323 325 324 325 326 326 327 326 326 325 325 327 330 331 330
308 309 309 309 307 306 307 304 302 301 302 302 303 303 304 306 306 314 319 318 311 308 309 315 314 314 316 316 317 320 322 323 324 325 326 326 326 327 327 325 326 326 326 330 331
309 309 309 310 309 306 305 304 303 301 302 302 303 303 305 306 317 321 320 313 309 309 315 314 313 314 317 317 318 319 322 322 323 324 324 325 325 325 327 327 327 327 327 328 330
309 310 310 311 310 306 305 304 303 302 302 302 303 303 305 306 325 318 311 310 310 313 319 317 315 314 317 318 319 319 320 321 322 323 323 324 324 324 326 328 328 327 327 327 327
305 309 310 311 309 306 305 306 304 302 302 302 303 303 305 321 318 319 312 311 312 316 318 317 316 317 317 318 318 319 320 320 320 320 320 321 322 323 325 326 328 327 326 325 325
307 306 310 311 308 306 308 310 310 306 302 303 303 304 307 319 318 318 314 314 317 315 316 316 316 317 317 318 318 319 319 320 319 319 320 320 320 321 323 325 324 326 326 324 324
309 308 310 311 306 307 311 311 311 310 304 304 304 305 314 317 314 317 316 315 316 314 314 315 315 315 316 317 317 318 318 318 319 319 319 319 320 320 320 320 320 320 323 324 322
309 310 311 311 306 310 311 311 311 308 307 309 310 308 317 315 313 315 317 315 314 313 313 313 314 314 314 315 316 317 317 317 318 318 318 319 319 320 319 319 319 319 320 322 321
310 311 312 307 308 311 311 311 311 311 312 311 313 312 320 313 312 314 314 315 315 314 313 313 313 313 314 316 316 317 316 316 317 319 319 319 318 319 319 319 320 320 321 321 321
310 312 312 305 310 312 312 311 312 311 316 311 317 318 318 318 312 314 315 314 314 313 314 314 315 316 316 316 315 316 317 318 318 319 319 318 318 318 318 319 320 320 320 320 321
307 311 309 308 311 312 312 319 319 321 321 321 320 320 318 316 315 315 314 313 313 314 315 316 317 318 318 318 318 319 318 318 318 319 319 318 318 319 318 318 319 320 320 320 320
305 307 304 310 312 314 316 320 316 315 316 318 319 316 316 316 316 314 314 314 314 315 316 317 317 318 317 317 317 318 318 317 317 317 317 317 318 318 318 319 318 319 319 319 319
304 303 307 311 311 316 317 316 315 315 317 319 317 315 315 315 315 316 315 314 315 316 317 317 318 318 317 316 317 317 316 316 316 317 317 318 318 318 318 318 318 318 318 318 318
307 306 308 312 316 316 318 316 314 316 318 322 316 315 315 315 316 316 316 315 315 315 316 317 317 317 317 316 316 315 316 316 316 317 317 317 319 318 319 320 320 319 318 318 317
310 308 308 309 310 318 316 314 314 318 330 319 318 316 316 316 317 316 316 315 316 316 317 317 317 317 316 316 316 316 316 316 316 316 317 317 317 318 319 319 319 321 318 318 318
309 310 310 318 315 318 314 315 319 325 328 320 317 316 316 316 317 316 315 315 315 316 316 317 316 317 317 317 316 316 316 316 316 316 317 316 317 318 319 320 320 320 318 318 318
303 309 311 312 316 315 315 317 325 327 323 322 319 318 317 317 318 318 318 318 317 318 318 318 319 318 317 317 317 316 316 317 317 318 319 318 319 321 321 318 318 319 318 317 315
305 304 307 312 315 316 316 320 324 323 323 321 319 317 317 317 317 318 318 318 318 318 319 318 318 318 318 318 318 317 317 318 319 321 320 319 319 318 319 319 317 317 317 316 315
306 311 314 317 318 316 317 322 322 322 321 319 318 316 317 318 318 318 318 317 317 317 318 319 318 318 318 318 317 318 319 317 318 319 321 320 318 318 319 320 319 317 316 315 315
309 315 317 320 317 315 317 319 320 319 319 318 317 317 317 317 317 317 318 318 317 317 317 316 317 316 317 317 317 317 317 317 318 321 321 317 317 317 319 319 318 316 316 316 316
311 320 320 318 316 314 318 318 319 318 316 314 313 315 316 315 315 315 316 317 316 316 317 316 317 317 317 317 317 317 319 318 317 318 321 319 317 319 319 318 318 318 316 316 316
311 319 318 314 315 317 319 319 316 316 315 315 315 314 315 315 316 317 317 317 315 316 316 317 318 318 318 317 317 317 317 318 321 320 320 319 319 318 318 318 318 318 316 316 316
309 313 317 313 315 317 316 316 315 315 314 314 314 315 316 316 317 316 316 315 315 316 316 317 317 319 317 316 317 318 317 316 318 319 320 322 320 317 319 318 316 317 315 317 317
311 314 316 314 314 315 316 315 314 313 314 314 314 314 315 315 315 315 316 316 315 316 314 314 315 316 317 314 316 316 317 317 316 319 320 319 317 316 318 318 317 316 315 315 317
312 313 313 313 314 313 314 314 315 315 314 312 313 314 314 314 313 313 314 314 314 314 315 314 316 316 315 314 313 313 314 314 317 317 319 317 315 316 317 318 318 316 315 316 315
307 307 308 308 311 314 314 314 314 313 311 310 311 311 311 311 311 311 311 311 312 313 314 315 317 315 314 313 313 312 312 312 312 314 316 314 314 315 316 315 315 315 316 317 317
306 305 306 307 311 313 313 313 314 311 310 309 309 309 309 309 308 308 308 308 309 310 310 311 311 312 312 311 312 314 315 315 313 315 314 315 317 318 317 317 317 316 317 317 317

GFSSW_850_thetae_087.txt.gz
Theta_e
308 308 309 309 308 306 307 307 304 302 302 302 302 303 303 304 305 305 307 319 318 316 314 309 311 316 316 316 316 318 315 318 320 321 321 323 322 325 326 325 326 326 327 328 329
310 309 309 309 309 307 307 305 303 302 302 302 302 303 303 304 306 306 312 319 318 313 308 309 313 314 316 316 315 315 314 316 318 320 320 322 322 323 324 324 325 325 326 327 328
305 309 310 310 310 307 306 304 304 303 302 302 302 303 303 305 312 322 322 319 316 309 310 317 314 313 314 315 315 315 314 316 319 321 321 322 322 323 322 323 324 324 325 325 326
305 306 309 311 311 307 305 305 304 303 302 302 303 303 303 305 321 318 316 311 309 309 315 318 317 313 312 312 317 314 316 317 319 320 320 320 321 320 321 323 326 326 326 326 327
308 308 308 311 311 306 305 307 308 304 302 302 303 303 304 317 316 318 315 311 311 315 317 318 318 317 312 313 315 314 315 318 318 319 320 320 319 319 320 321 325 327 327 327 327
309 309 309 311 310 306 307 310 310 309 303 302 303 303 305 314 319 318 317 311 314 318 316 316 316 315 316 315 313 316 316 316 317 318 318 318 318 319 319 319 320 325 327 327 326
310 310 310 312 307 307 310 310 310 309 306 303 304 304 305 310 317 317 316 316 315 316 314 315 314 315 314 312 315 315 313 314 315 317 316 318 317 317 319 319 319 319 320 324 326
310 311 311 311 306 309 311 311 311 310 309 307 309 309 307 316 314 315 317 316 315 315 313 313 313 313 313 314 314 312 312 312 313 316 317 316 316 317 318 319 319 319 319 319 320
308 311 313 306 307 310 311 310 310 311 312 311 311 310 319 317 313 313 315 316 316 315 314 313 313 313 313 310 310 312 311 312 313 315 315 314 315 317 318 318 318 319 319 319 319
307 310 312 305 309 311 311 311 316 312 314 313 315 317 319 319 315 312 313 314 315 314 313 314 314 312 310 309 310 312 312 313 314 316 315 315 315 315 318 318 318 318 319 320 320
304 307 304 308 311 313 316 319 320 321 316 319 322 318 320 316 314 314 314 314 314 313 312 314 312 313 313 314 314 315 316 316 317 316 314 314 314 315 317 317 317 317 318 318 320
306 303 305 310 311 315 316 317 316 315 316 316 317 320 320 317 316 316 315 314 314 312 313 313 312 315 316 317 316 315 314 314 315 315 315 313 314 314 315 316 317 318 317 317 319
309 305 308 310 313 315 317 318 314 315 315 316 317 318 319 315 315 316 315 315 314 313 313 313 315 317 317 316 316 314 314 315 315 315 315 314 314 314 316 317 317 317 317 318 317
307 309 307 312 316 316 317 317 314 316 315 319 320 317 315 315 316 316 316 315 314 313 313 313 315 316 315 315 315 313 314 315 315 314 313 314 314 314 314 315 316 316 317 317 317
304 309 309 308 316 315 316 315 315 318 327 320 317 316 315 316 317 316 316 316 315 315 314 314 315 314 315 316 316 314 315 314 315 313 312 313 312 314 314 315 315 316 317 318 318
309 305 309 312 316 317 316 315 318 323 328 319 317 316 316 316 316 316 316 316 316 314 314 313 315 315 315 316 316 316 314 313 313 311 313 313 313 314 314 316 318 317 318 318 318
310 308 305 309 312 316 317 316 321 326 324 323 318 317 316 316 316 316 316 314 313 313 314 315 315 316 317 315 315 315 313 313 313 312 314 314 315 315 317 318 317 317 317 318 318
309 310 307 306 310 317 316 317 323 322 323 321 320 318 317 316 316 316 316 316 316 316 317 317 317 317 318 316 316 316 316 316 318 315 316 316 318 317 317 317 317 317 318 316 315
309 313 316 313 314 316 316 319 321 321 320 320 318 318 317 316 316 316 316 317 317 316 316 316 316 316 316 316 315 316 316 316 317 318 318 315 316 316 317 317 317 316 317 315 315
309 315 320 318 319 315 316 318 317 317 318 317 316 315 313 314 315 315 314 316 316 317 315 315 316 316 316 316 315 314 316 315 317 322 321 318 317 315 317 317 317 317 316 316 316
308 315 320 320 318 315 316 316 317 318 315 316 315 315 314 314 313 314 315 316 317 316 315 315 315 316 317 315 315 315 314 315 318 317 320 318 314 317 318 316 315 315 317 315 315
307 314 319 318 316 317 318 318 316 315 314 315 314 314 315 314 315 316 317 317 316 315 315 315 315 316 317 315 315 314 316 316 321 321 319 320 319 316 316 316 316 316 316 316 316
307 311 314 314 314 315 316 315 315 315 315 315 315 315 314 314 315 316 316 315 315 315 316 315 315 316 316 314 313 316 316 316 317 316 318 320 319 317 316 317 315 316 316 316 316
307 315 315 314 314 312 313 315 315 314 315 315 312 311 312 312 313 314 314 313 313 313 315 316 314 316 318 316 313 315 314 313 316 318 317 318 316 315 315 317 315 316 315 315 316
311 311 308 312 310 310 313 314 314 314 314 312 311 311 311 310 310 311 311 311 311 311 313 313 315 315 315 316 316 315 313 312 312 313 317 314 316 314 314 315 313 316 315 315 315
307 306 306 306 309 310 311 314 313 313 313 313 310 309 309 309 309 309 309 309 309 309 308 311 314 314 315 313 311 311 311 311 312 313 313 314 314 314 315 316 315 316 316 317 317
308 308 307 308 309 309 310 312 310 311 310 310 310 308 308 308 308 307 307 307 307 307 307 307 308 308 309 310 310 311 310 312 314 313 316 316 315 315 316 315 315 316 316 316 317

GFSSW_850_thetae_090.txt.gz
Theta_e
309 309 309 309 308 307 306 307 306 303 302 302 302 302 303 304 305 305 306 308 315 315 315 313 311 311 313 314 315 316 313 313 315 318 319 321 320 322 323 328 328 328 328 328 329
304 308 310 310 310 308 306 306 304 303 302 302 302 302 303 304 305 307 308 315 317 317 311 308 308 313 314 315 315 313 309 313 314 316 316 319 319 320 322 323 324 328 326 325 326
307 306 308 310 310 309 306 305 304 303 302 302 302 303 303 304 309 319 320 318 317 314 308 311 315 316 313 315 314 312 311 312 315 317 318 318 319 320 321 320 322 323 325 325 326
308 308 308 310 311 308 306 305 305 304 302 302 302 303 303 304 320 317 316 312 308 308 312 315 317 315 310 310 313 312 313 314 315 316 317 317 318 318 319 319 320 321 324 325 326
309 309 309 311 311 307 305 308 309 308 303 302 302 302 303 309 309 317 316 311 314 313 314 317 317 318 312 311 312 312 312 315 316 316 316 317 316 316 317 319 319 322 326 325 326
310 310 310 311 310 306 307 309 310 310 307 302 302 302 304 310 317 319 317 313 310 314 316 317 315 314 313 313 312 313 313 313 315 315 315 316 316 317 318 318 319 319 323 326 326
309 311 311 312 306 307 309 310 310 309 307 304 303 303 305 306 318 317 316 315 314 315 315 314 313 313 313 311 313 313 311 310 313 314 314 316 314 315 318 319 318 319 319 320 326
307 311 312 309 306 308 309 310 311 311 310 309 308 309 306 309 314 316 316 316 315 315 314 313 313 313 313 312 311 310 310 310 310 313 314 315 314 314 318 317 318 318 318 319 319
304 309 311 305 307 309 311 310 310 310 311 312 310 318 314 317 315 314 314 316 316 315 315 314 313 313 312 309 307 309 309 310 311 313 312 313 312 314 316 315 316 318 318 318 318
306 304 304 307 310 311 313 312 314 318 312 315 312 316 316 319 317 314 313 314 314 314 314 313 313 310 307 306 308 310 310 311 312 314 313 313 311 312 315 315 315 317 317 318 320
308 304 305 309 310 314 316 317 316 318 315 315 317 315 319 317 317 313 313 314 314 314 311 313 310 310 310 310 312 311 311 312 314 315 314 312 311 312 313 315 315 316 316 317 317
304 308 307 310 310 313 314 317 314 316 313 315 315 316 317 319 320 314 314 314 313 311 311 310 310 311 312 313 314 313 312 312 312 314 314 312 312 312 312 314 316 317 317 317 317
308 306 307 310 315 317 316 317 315 316 314 315 315 316 316 318 320 316 316 314 312 311 311 310 312 314 314 314 315 313 312 312 313 313 313 313 312 312 313 314 315 316 316 316 316
310 308 308 307 311 315 315 316 315 316 313 317 317 318 317 318 315 315 315 315 312 312 311 310 311 313 313 313 314 312 313 313 314 313 311 313 313 312 311 312 313 314 316 316 316
309 309 308 309 311 316 316 315 315 318 320 322 318 316 317 315 316 316 315 315 313 312 312 312 313 312 313 314 314 314 314 313 313 312 310 311 311 312 311 312 312 312 315 317 317
309 308 310 307 310 316 316 315 316 320 326 320 316 314 313 314 315 316 316 315 315 313 312 312 314 313 313 314 314 314 313 312 311 309 311 310 310 313 312 312 313 315 317 317 317
308 308 311 309 307 313 316 317 318 323 323 320 318 315 314 314 315 315 315 314 313 312 312 313 313 313 314 313 313 313 311 313 313 313 315 311 311 312 312 314 315 315 317 317 317
309 308 314 315 306 316 315 316 321 320 320 319 317 317 317 315 314 315 315 314 312 312 313 314 315 315 316 315 313 313 313 314 318 315 316 314 314 314 314 315 316 317 317 316 318
310 310 317 310 313 314 316 317 320 321 318 318 317 315 313 313 313 313 313 313 314 314 315 314 315 315 316 315 314 314 313 314 316 318 316 317 316 315 315 315 315 315 315 315 317
309 312 320 318 316 315 314 316 317 316 315 315 315 315 314 314 314 313 313 315 315 315 312 313 314 315 316 316 315 314 315 315 313 322 323 320 318 317 315 315 315 314 313 314 315
309 311 320 319 319 315 312 315 316 316 315 314 314 314 313 314 313 314 315 315 316 314 314 313 313 315 315 316 315 314 314 317 317 316 322 321 316 314 315 314 314 315 316 316 316
308 307 318 319 313 314 315 316 315 315 314 315 315 315 313 313 313 314 315 316 315 314 315 314 314 315 315 314 315 314 314 314 314 317 319 318 318 314 315 315 314 314 316 316 316
307 311 314 317 311 310 312 312 314 314 314 314 315 313 311 312 312 313 314 312 312 312 314 314 314 315 315 313 312 314 315 314 313 313 312 311 314 314 313 314 314 315 315 315 316
308 313 311 311 310 309 309 313 312 313 313 314 313 311 310 310 310 310 310 311 310 310 312 311 314 314 317 316 314 316 315 314 314 315 313 314 314 314 314 315 314 314 316 315 315
308 307 306 308 308 309 310 310 312 314 312 312 312 311 310 309 309 309 309 309 309 309 311 311 313 314 313 314 314 314 314 314 313 312 312 311 312 312 313 314 315 315 316 316 315
308 306 306 307 308 309 309 310 311 311 311 311 312 311 310 309 309 309 308 308 308 308 308 307 309 313 311 311 312 311 309 308 308 309 312 312 313 313 314 315 314 315 314 315 317
306 307 307 308 308 308 308 311 311 310 310 310 310 311 310 309 308 308 307 307 307 307 306 306 307 307 308 308 309 309 309 310 312 314 314 315 314 314 314 313 313 313 313 313 312

GFSSW_850_thetae_093.txt.gz
Theta_e
305 306 309 309 309 308 307 306 306 304 303 302 302 302 303 304 304 304 306 307 312 309 313 314 312 310 312 312 313 315 311 313 315 317 317 318 318 319 319 320 321 325 328 329 327
307 307 307 310 310 309 307 306 304 304 303 302 302 302 303 304 305 307 308 308 316 316 314 311 308 309 313 314 314 311 309 312 313 315 314 316 317 317 318 319 320 320 322 327 327
307 308 308 310 310 310 307 305 304 304 303 302 302 302 303 304 308 319 320 312 317 316 309 308 311 315 313 313 313 311 311 311 313 315 316 315 316 317 318 317 320 320 320 322 327
309 309 309 310 311 309 306 305 306 306 304 302 302 302 303 304 318 317 315 312 311 308 308 313 316 315 308 310 312 311 312 312 314 315 314 313 316 316 317 318 318 319 320 324 325
309 310 310 311 311 307 305 307 309 309 307 303 302 302 303 305 307 318 314 311 312 308 313 315 317 317 314 310 311 310 311 313 314 314 314 315 313 314 315 316 318 319 319 325 325
308 310 311 311 310 306 307 309 309 310 308 304 302 302 303 305 310 317 317 313 311 313 315 315 313 312 312 312 311 312 311 311 313 314 313 313 313 314 316 317 318 318 319 319 324
305 310 312 312 306 306 309 310 310 310 306 304 303 303 304 306 318 318 316 314 311 314 315 314 312 312 312 311 312 312 311 309 311 313 313 314 312 313 316 315 316 316 318 319 319
305 307 310 306 306 308 309 309 310 310 310 309 308 308 307 307 315 317 316 315 313 315 314 313 312 313 312 312 310 309 308 309 309 311 312 313 311 313 315 315 315 315 316 317 319
307 304 303 306 308 310 311 310 311 311 310 311 310 315 315 309 314 315 315 315 315 315 315 314 313 312 311 307 306 306 307 309 310 310 312 311 311 312 315 314 315 316 315 315 317
305 307 305 308 310 313 315 315 316 314 316 314 314 313 315 317 316 315 313 314 314 315 314 314 312 308 305 305 308 308 309 310 311 312 312 311 310 310 314 313 314 315 316 314 316
310 306 306 309 310 314 314 315 315 315 315 315 314 315 316 318 317 314 313 312 313 313 311 311 308 308 309 308 310 310 310 310 311 311 312 311 310 310 312 313 312 315 315 315 316
309 310 307 307 311 314 316 316 316 315 315 315 315 314 314 316 318 314 312 312 312 310 310 309 308 309 310 310 310 311 311 311 311 311 311 311 311 310 311 312 314 314 315 316 316
308 309 309 308 313 317 315 316 315 315 314 314 314 314 314 315 317 318 313 313 311 310 309 308 310 311 311 311 312 311 312 312 312 312 311 312 311 311 311 312 313 314 314 314 315
314 308 308 309 309 313 315 316 315 316 312 315 315 317 316 317 315 317 316 315 311 310 309 309 310 311 311 311 312 311 311 312 312 312 311 311 312 310 310 310 311 313 313 314 314
315 312 308 309 307 311 316 316 315 317 317 320 317 317 317 317 315 315 316 315 312 312 310 311 311 311 312 312 311 312 312 311 312 311 310 310 308 309 310 310 311 309 313 314 315
314 314 308 310 311 309 315 316 316 319 320 320 314 314 314 316 314 315 315 315 314 311 310 311 312 311 312 313 312 313 312 311 307 307 310 310 309 311 310 311 310 311 314 315 315
313 314 308 312 309 310 316 316 317 321 318 319 317 315 313 313 314 314 314 313 313 312 311 313 312 312 313 312 312 313 309 310 311 312 315 311 310 311 310 311 311 310 313 315 316
314 310 314 315 309 307 316 316 320 318 318 316 316 316 316 313 313 314 314 312 313 311 311 312 314 313 314 312 312 311 310 312 315 314 315 314 315 313 312 312 314 313 315 315 316
313 310 317 307 308 315 316 318 317 320 315 315 315 315 313 314 313 312 312 312 313 312 313 313 314 314 314 315 314 313 313 311 313 315 315 314 314 314 314 313 313 314 314 312 315
312 314 318 315 314 314 310 311 317 315 315 314 314 313 313 313 314 314 313 314 316 314 312 313 314 313 314 315 315 314 314 314 313 321 320 317 317 316 314 313 313 313 313 315 314
310 314 319 318 317 314 311 313 315 314 315 315 315 314 313 311 312 313 314 314 315 314 313 312 311 313 314 315 315 315 316 317 317 317 322 321 316 310 314 313 313 312 313 315 315
309 309 316 318 315 311 314 312 313 314 313 314 315 316 315 313 312 312 314 314 312 312 314 314 314 315 315 313 314 314 315 316 319 320 319 319 315 312 311 313 313 313 313 313 315
307 311 314 315 312 309 309 311 312 313 313 314 314 312 310 310 311 311 312 310 311 311 314 312 313 315 315 313 314 315 315 314 314 313 312 315 313 312 310 311 312 312 313 313 315
309 308 310 310 308 308 309 311 311 312 313 313 313 312 312 311 310 311 310 311 309 309 311 311 313 317 318 316 314 316 315 314 315 316 314 314 313 310 310 310 310 313 314 315 315
308 304 305 305 307 307 308 310 312 313 311 311 312 312 312 311 310 310 311 310 309 309 310 310 312 311 312 310 312 314 314 312 312 312 312 311 310 309 312 311 313 314 314 314 314
308 306 307 307 307 307 308 309 310 312 310 311 312 311 309 312 311 311 310 309 308 309 308 307 308 311 310 309 309 309 310 310 309 308 307 310 311 312 312 312 312 311 311 312 311
306 306 306 307 307 307 306 309 308 308 309 310 310 309 309 310 309 308 307 307 306 307 307 305 306 308 309 307 308 309 308 310 310 313 314 313 314 313 312 310 310 310 310 310 310

GFSSW_850_thetae_096.txt.gz
Theta_e
306 307 306 308 309 309 308 306 306 305 304 303 302 303 303 303 304 305 306 307 308 310 312 313 312 311 312 312 313 315 311 313 315 316 316 317 315 318 318 318 319 320 321 323 327
307 307 308 307 309 309 308 306 305 304 304 303 302 302 303 304 305 306 309 307 313 308 313 314 311 309 312 312 313 311 309 312 313 314 315 315 315 316 317 317 317 318 319 321 326
309 309 309 309 309 309 307 306 304 304 303 303 302 302 303 304 307 318 320 309 316 316 312 308 309 314 312 313 312 309 310 310 313 315 315 313 315 316 316 315 317 317 317 319 325
309 310 310 310 311 310 307 305 306 307 306 303 302 302 303 304 315 316 317 313 316 316 308 312 315 314 307 309 311 311 311 311 312 313 312 312 314 313 315 316 317 317 317 320 322
306 310 311 311 311 308 305 306 308 309 308 305 302 302 303 304 308 317 312 311 310 308 312 316 317 315 312 308 310 309 310 312 313 313 313 313 312 312 313 316 317 317 317 319 323
305 308 311 312 309 306 307 309 309 309 308 307 302 302 302 303 307 315 314 310 311 311 314 315 313 312 312 310 310 310 310 310 312 312 312 312 312 313 315 316 317 317 317 317 321
305 304 305 306 305 306 309 309 310 310 308 305 303 303 303 305 314 317 315 313 310 313 315 314 312 312 311 310 310 310 309 308 310 312 312 312 311 312 314 315 316 315 315 316 316
308 306 304 305 307 308 309 310 310 310 309 309 309 308 307 306 310 317 315 314 312 313 314 314 313 312 311 310 308 308 306 307 307 310 311 312 311 311 313 313 313 314 315 315 316
309 306 306 307 309 310 311 312 312 312 312 310 311 310 314 308 309 317 315 315 313 314 314 315 314 311 310 306 305 304 305 307 308 308 310 311 310 311 315 314 313 314 315 315 316
308 309 306 307 309 312 313 314 317 315 314 315 315 312 312 315 313 315 314 315 315 315 314 313 312 306 303 305 306 307 308 309 309 310 310 310 308 308 314 312 313 314 315 315 316
313 309 309 306 308 311 314 315 315 314 316 317 314 313 314 317 316 315 314 313 313 313 310 309 308 307 307 307 309 310 309 309 309 310 311 310 309 309 311 311 312 313 314 315 315
314 314 309 309 307 313 315 315 315 315 313 314 315 315 314 314 315 314 313 313 311 309 309 308 308 308 308 309 309 309 309 309 310 310 309 309 309 309 308 310 313 314 314 315 315
312 314 313 308 309 311 316 315 315 315 313 314 313 314 314 314 314 316 313 312 310 309 308 308 309 309 309 310 310 310 310 310 311 311 310 310 310 310 311 311 313 313 314 314 314
310 312 314 309 309 308 314 316 315 315 312 313 314 316 315 316 316 317 317 312 311 310 308 308 309 309 309 309 308 309 309 311 311 310 310 310 312 309 309 309 309 312 313 314 314
307 311 314 311 308 308 315 316 315 316 316 316 315 316 315 317 315 315 317 314 311 310 309 310 310 309 310 310 310 310 311 310 311 310 309 310 308 308 308 309 309 309 313 314 314
311 313 314 309 309 310 312 316 315 319 316 319 314 314 316 315 315 314 315 316 314 310 310 310 311 310 310 311 310 311 312 309 306 306 309 309 309 311 309 309 310 310 312 313 313
313 314 312 310 309 307 314 316 317 322 317 317 316 315 313 314 314 314 313 312 312 312 311 312 311 310 312 311 311 311 309 309 311 311 315 311 310 310 309 310 309 309 312 315 315
314 311 314 313 310 310 315 316 319 317 315 315 314 315 314 312 313 313 313 312 312 310 310 311 313 312 312 311 311 309 308 310 314 313 313 312 313 312 310 311 313 314 314 315 315
313 317 310 307 307 311 315 317 317 316 315 314 314 313 313 313 313 313 312 312 312 310 312 312 313 313 314 314 312 313 312 311 312 312 313 313 312 313 313 313 313 313 313 312 313
311 319 316 314 315 314 309 310 316 314 315 315 315 314 314 313 313 313 313 314 315 313 312 313 314 313 313 314 314 313 313 315 315 320 319 314 315 315 314 313 312 312 311 312 312
312 317 314 318 317 314 311 313 315 314 314 315 316 317 316 316 312 315 316 314 312 313 312 312 314 315 313 314 314 314 317 316 316 318 320 320 316 311 312 312 313 310 312 311 312
312 308 312 317 314 310 311 311 313 313 313 314 314 315 316 315 313 313 314 314 311 311 313 312 314 317 315 314 314 316 316 315 319 320 321 320 316 311 311 312 311 310 310 311 312
309 310 313 314 311 308 309 311 311 312 313 314 314 312 311 310 312 312 311 309 310 310 312 311 313 315 315 312 314 316 315 315 315 314 315 315 314 309 310 309 309 309 313 313 314
308 305 309 309 308 307 307 310 311 312 311 311 313 312 311 311 310 311 311 311 311 310 311 311 313 313 314 317 314 315 315 315 315 316 314 315 313 311 309 311 311 312 311 310 312
308 303 305 303 305 305 307 309 311 312 310 310 311 312 311 313 310 310 310 310 309 310 309 310 313 312 313 311 312 310 309 310 312 313 312 311 310 309 312 311 311 311 310 310 309
308 306 307 305 306 307 305 307 309 310 309 309 310 311 309 310 310 311 310 309 309 308 308 309 310 310 309 308 308 310 310 310 310 309 309 309 309 311 311 311 309 309 307 306 306
307 306 305 306 307 306 308 308 307 307 308 309 309 309 308 308 308 308 308 307 307 306 306 305 308 307 308 308 308 309 308 308 309 311 312 313 311 307 307 306 306 306 304 304 304

GFSSW_850_thetae_099.txt.gz
Theta_e
308 307 307 307 308 308 308 307 306 306 304 303 302 302 303 303 304 305 306 306 307 306 312 311 310 311 313 313 314 315 318 318 318 319 318 318 319 317 317 317 318 319 319 319 321
308 309 308 308 309 309 308 306 306 304 304 303 302 302 303 303 304 306 307 307 309 307 312 314 311 310 312 312 313 316 318 318 317 318 318 316 316 316 317 318 318 318 318 317 320
307 309 309 309 310 310 308 306 304 304 304 303 302 302 302 303 305 318 320 307 312 308 313 312 309 310 313 312 312 312 316 315 315 315 316 316 316 315 316 317 317 317 318 318 318
305 309 310 310 310 310 307 305 306 307 307 305 303 302 302 303 314 316 315 309 315 316 311 308 313 313 313 314 312 314 313 314 314 313 314 314 314 315 315 316 316 316 316 317 319
304 305 310 311 311 308 305 306 308 309 308 307 303 302 302 303 306 315 314 313 316 315 308 313 315 313 313 311 311 313 313 312 312 312 312 312 314 315 314 316 316 316 317 317 317
307 304 303 305 305 305 307 309 309 309 307 306 303 302 302 304 306 313 314 312 310 309 315 315 314 312 313 313 314 312 312 313 312 313 312 313 315 313 316 315 316 316 316 316 316
308 305 305 305 306 307 308 309 309 310 309 307 304 303 303 305 307 313 314 310 311 313 314 314 312 311 312 313 310 311 313 312 313 314 315 313 315 315 315 314 315 315 315 315 316
310 308 306 307 308 309 310 310 310 311 310 309 309 308 308 306 309 316 315 312 310 312 314 314 313 311 311 310 310 312 311 314 314 312 313 313 316 315 313 314 315 315 315 315 315
313 312 308 306 308 310 312 313 313 313 311 312 310 311 311 309 308 316 315 313 312 312 313 314 314 311 310 312 313 311 313 312 312 313 312 314 315 316 314 314 315 315 315 315 316
311 313 312 308 307 309 311 314 315 314 313 313 313 313 311 314 308 315 316 314 314 315 312 312 311 313 311 313 311 311 311 312 314 315 315 315 316 316 315 315 315 315 315 315 315
309 310 313 312 308 308 311 315 315 313 315 317 315 311 313 316 317 315 316 314 314 313 315 311 314 314 313 313 313 312 313 314 314 315 313 316 316 316 316 315 315 315 316 316 315
307 308 311 314 309 308 312 314 315 314 315 314 314 314 314 315 315 314 314 314 313 314 312 313 314 314 313 311 312 312 313 314 314 314 314 316 316 316 316 316 315 315 316 316 316
306 307 310 313 312 309 311 315 315 314 315 314 314 314 314 314 315 315 312 313 313 313 312 314 314 311 311 313 312 313 314 314 314 315 314 314 316 316 316 314 314 314 315 315 314
310 311 311 313 310 309 310 315 316 315 317 316 315 316 314 314 315 315 313 313 312 313 312 313 313 312 312 313 313 314 314 314 314 315 315 314 316 316 316 316 316 315 316 315 315
311 311 312 313 313 308 313 315 316 316 318 317 316 316 315 316 315 316 316 312 313 313 312 314 313 312 313 313 312 314 313 314 314 315 315 316 316 316 315 316 317 317 316 316 314
311 313 314 314 309 309 311 315 315 319 317 318 315 315 315 316 316 314 316 315 313 313 312 314 312 313 314 313 313 314 314 315 313 314 316 316 316 317 317 317 317 316 315 315 316
312 312 311 310 308 308 312 315 318 321 317 316 315 315 315 316 316 316 315 317 317 316 316 315 315 314 312 314 315 314 315 316 317 317 318 317 317 317 317 317 317 316 316 316 315
315 310 308 313 308 311 315 317 316 317 316 315 314 314 314 314 314 314 314 314 314 314 315 315 316 314 314 315 316 316 316 317 321 320 319 317 317 318 317 315 316 316 316 314 313
315 310 308 309 309 312 315 318 317 316 316 315 315 315 315 315 314 316 316 315 314 313 315 316 316 315 315 315 314 316 316 316 317 317 318 318 318 317 317 317 316 316 314 313 312
313 317 315 316 315 314 313 313 315 314 315 316 317 317 317 317 315 317 316 317 316 315 314 316 317 315 315 315 316 316 316 317 318 320 321 319 319 319 318 317 316 316 313 312 312
313 315 314 318 316 313 316 314 315 315 315 315 317 318 318 318 317 318 318 317 315 314 314 314 316 316 315 316 317 317 318 318 318 319 322 322 320 318 318 315 314 313 312 313 313
312 315 313 317 315 310 313 311 312 313 313 315 316 316 317 317 317 315 316 315 314 312 314 313 316 318 317 315 315 316 317 317 323 324 321 322 321 316 315 313 313 313 313 314 313
309 310 312 316 316 312 311 312 312 313 313 314 314 314 313 313 314 314 312 311 311 311 314 313 316 318 317 315 316 316 316 317 317 316 321 322 320 314 314 314 313 313 313 312 312
308 312 309 309 307 310 310 312 313 311 311 311 312 313 313 314 313 314 313 312 311 311 311 311 314 315 317 315 316 317 317 315 315 320 318 318 316 314 312 312 313 313 313 311 309
308 307 306 309 308 307 307 309 311 312 311 311 312 312 312 312 311 311 311 311 310 310 311 311 314 313 312 313 313 311 311 312 312 313 314 312 311 311 311 313 313 312 311 309 308
308 308 306 306 307 307 307 309 310 310 309 310 310 310 310 311 311 312 310 310 310 309 310 311 311 311 311 310 309 309 309 309 309 310 310 310 311 312 312 311 310 309 308 308 308
307 306 305 306 307 308 308 308 308 307 307 308 310 309 308 308 308 307 306 306 310 310 309 310 311 310 310 308 309 311 311 310 310 310 310 313 314 314 314 312 310 307 307 306 306

GFSSW_850_thetae_102.txt.gz
Theta_e
309 309 308 308 308 308 308 307 306 306 305 304 303 302 302 303 303 304 306 307 307 306 309 310 311 312 314 316 317 318 320 320 320 320 320 321 321 321 319 320 321 323 323 323 321
307 309 309 309 309 309 308 307 306 305 304 304 303 302 302 303 304 306 307 306 306 307 313 312 312 313 315 316 317 319 320 321 320 320 320 320 319 319 319 320 320 322 322 321 321
305 308 310 310 310 310 308 307 305 305 305 304 303 302 302 303 308 316 317 307 309 310 314 314 312 313 315 316 317 318 320 321 319 319 319 319 318 318 318 320 320 321 322 321 321
304 304 308 311 311 310 307 305 306 307 307 306 304 302 302 303 317 316 317 309 308 310 312 313 312 315 317 317 316 317 318 318 318 318 317 318 318 318 318 318 319 318 318 320 320
306 305 304 305 306 306 305 307 308 309 309 308 305 302 302 310 310 315 313 308 315 315 311 313 315 315 317 317 316 316 318 316 316 316 316 316 317 318 318 318 318 318 318 319 320
310 307 306 306 306 306 308 309 309 309 308 306 304 302 306 310 306 315 312 315 318 314 312 316 316 315 316 316 316 317 317 317 316 317 316 317 317 317 318 318 318 318 319 319 319
312 312 308 306 308 308 308 309 309 310 309 308 305 303 310 309 307 313 312 315 312 312 316 316 315 314 316 317 315 316 316 317 317 317 318 317 318 318 317 317 318 318 318 318 318
310 311 312 308 307 309 311 311 311 312 312 310 310 309 314 307 305 316 316 312 311 314 316 315 313 314 315 315 315 316 317 318 319 317 317 316 317 319 318 317 318 318 318 318 318
308 309 310 313 309 307 311 312 313 313 313 312 313 314 315 311 307 313 317 313 312 313 314 314 314 315 314 316 317 317 317 317 317 316 316 316 317 319 317 318 318 318 318 318 318
306 306 307 309 313 308 308 311 314 315 313 313 314 317 317 314 311 314 317 314 314 313 315 315 316 317 316 317 316 316 316 315 315 317 317 317 317 318 318 318 318 318 318 318 318
305 306 307 308 311 311 308 312 318 319 317 319 318 317 315 316 315 315 316 315 315 316 317 315 317 317 317 316 316 315 315 316 317 318 318 319 319 319 319 318 319 318 318 318 318
308 310 311 310 311 314 308 315 317 316 317 317 317 317 316 316 316 315 315 315 316 318 317 317 316 317 317 316 315 315 316 317 318 318 318 318 319 319 320 319 318 318 318 318 318
311 311 311 312 312 312 308 314 315 315 318 316 316 316 316 316 318 318 315 316 317 318 317 317 317 315 316 316 316 316 317 317 318 318 318 318 319 319 319 319 318 318 317 318 318
310 311 312 313 314 309 311 314 315 315 318 318 318 317 316 316 318 317 315 316 316 317 317 317 317 316 316 316 316 317 317 317 317 318 319 319 320 320 320 320 320 319 318 318 318
310 312 313 313 314 313 313 315 316 316 320 320 318 316 316 317 318 317 316 315 317 316 316 316 316 316 316 316 316 316 317 316 317 318 320 320 321 321 321 320 320 320 319 319 319
313 312 312 314 313 310 314 315 316 321 319 319 317 317 316 317 316 317 317 315 316 316 316 317 317 316 317 317 316 317 317 318 319 320 321 320 321 321 322 322 322 321 319 319 320
313 310 312 309 311 308 314 316 322 321 318 318 317 316 317 317 317 317 318 318 318 318 319 318 318 318 317 317 318 317 319 320 322 322 323 322 322 322 321 321 321 320 319 320 318
310 309 311 307 308 308 314 320 320 319 318 317 317 316 316 316 316 317 316 317 318 318 319 319 319 318 317 318 318 319 320 321 323 324 325 323 324 323 320 319 319 319 319 318 317
314 314 314 311 310 315 319 319 319 319 317 317 317 319 319 318 318 318 318 318 316 317 318 319 320 317 316 317 318 320 321 320 321 322 323 322 322 322 321 320 319 319 318 317 316
314 317 315 317 315 316 318 317 318 317 317 317 319 317 319 319 318 319 319 318 318 316 316 319 322 320 320 318 318 318 319 321 321 326 326 323 322 323 321 320 320 319 317 316 316
314 319 315 318 317 318 320 318 317 316 316 317 318 319 319 319 319 320 320 318 317 316 315 316 318 320 318 318 318 318 320 320 321 324 326 326 323 321 321 320 319 318 316 316 315
313 319 314 316 320 318 319 316 313 316 315 317 317 318 319 318 319 318 319 318 316 315 317 316 318 321 320 319 318 318 319 319 324 325 325 326 325 320 320 319 317 317 316 315 314
314 314 314 317 321 319 317 316 315 315 316 316 317 316 316 317 317 317 317 314 313 314 316 316 319 321 319 319 318 318 318 319 319 320 323 326 323 318 317 317 316 314 314 314 314
313 317 313 314 313 317 317 317 317 314 314 314 316 315 315 316 316 316 316 314 313 313 313 312 317 319 320 319 317 318 317 318 319 321 320 322 321 319 318 315 314 314 315 315 314
311 313 310 315 313 313 313 314 315 315 313 313 314 314 314 315 313 313 312 312 311 311 311 314 316 316 315 315 314 314 316 317 317 318 320 318 318 317 314 314 314 314 314 314 313
312 311 310 311 311 312 310 313 313 312 312 313 313 312 312 312 312 313 312 313 313 312 312 313 316 314 314 312 312 312 312 312 313 313 314 315 314 313 314 314 315 315 314 312 311
308 308 310 308 311 312 312 311 311 310 311 310 311 310 311 311 310 310 310 310 311 311 312 314 313 314 314 312 312 313 313 314 314 313 312 313 314 315 316 316 315 313 311 311 311

GFSSW_850_thetae_105.txt.gz
Theta_e
307 309 309 309 309 308 308 308 307 306 306 305 304 303 303 303 303 304 309 311 311 308 308 314 314 314 315 317 319 320 322 321 322 322 323 323 324 324 325 324 325 326 328 329 325
304 308 310 310 310 310 308 308 307 306 305 304 304 303 303 303 303 311 312 310 307 307 309 314 314 315 316 318 319 321 322 322 323 323 323 322 322 323 322 322 323 323 324 326 326
304 304 306 311 310 310 309 307 306 305 305 305 304 303 302 303 314 315 314 308 307 307 314 314 315 316 317 318 319 320 321 323 322 322 321 322 321 320 320 321 321 323 324 326 326
309 305 305 305 308 308 307 305 305 307 307 307 305 303 302 305 321 323 317 313 308 309 317 316 315 316 318 320 319 320 321 321 322 321 320 321 320 320 320 320 320 320 321 322 324
311 310 306 306 306 306 306 307 308 309 309 308 306 303 302 315 314 316 316 311 308 314 314 315 315 317 319 320 319 320 321 320 320 320 319 319 319 320 320 320 319 320 319 320 322
310 310 311 307 307 308 308 309 309 309 309 306 306 303 306 314 312 314 313 310 315 318 315 315 317 318 319 320 320 320 319 320 319 319 319 319 319 319 320 319 319 320 320 320 323
307 309 309 312 308 308 310 310 309 310 310 309 306 304 314 314 311 319 316 317 319 317 314 316 318 318 318 320 318 319 319 320 320 319 320 319 320 320 320 320 320 320 320 321 321
305 306 307 308 311 308 308 312 312 313 313 313 311 315 319 313 310 317 317 317 315 314 317 318 317 317 318 319 318 319 319 319 321 321 320 319 320 321 320 320 320 320 320 320 320
305 305 307 307 308 312 308 310 312 314 313 313 314 318 322 314 309 314 319 315 313 316 317 316 316 316 317 319 319 319 319 320 320 321 320 319 319 321 320 320 320 320 320 320 320
308 307 309 310 309 310 311 308 313 314 313 315 317 319 320 316 313 312 319 316 315 316 316 316 317 319 319 319 318 320 320 320 320 321 319 319 319 320 320 320 320 321 321 320 320
309 311 311 312 312 310 312 308 321 322 320 323 322 321 317 318 313 314 317 316 316 316 319 318 320 320 320 320 319 319 319 319 320 320 319 320 321 321 321 321 321 321 320 321 320
311 311 311 311 312 312 313 313 318 318 319 320 320 319 318 318 316 315 317 316 317 319 319 320 320 320 320 320 319 319 318 319 320 320 320 321 321 321 322 321 321 321 321 321 320
311 310 311 312 312 313 313 313 317 317 319 318 317 318 318 318 318 316 317 317 319 319 320 321 321 320 319 319 319 319 319 320 320 320 321 321 321 321 321 321 320 320 320 320 320
311 313 312 313 314 317 315 313 317 317 322 321 319 319 318 318 318 319 317 317 319 320 321 321 320 320 319 318 318 319 319 319 318 319 320 321 321 323 323 323 323 321 321 321 320
311 312 311 313 317 315 316 316 317 318 329 323 320 317 318 318 319 319 319 318 320 319 318 320 319 318 318 319 319 318 319 319 319 320 321 321 322 323 324 324 324 323 322 321 321
313 308 311 314 314 315 315 316 319 325 326 321 319 320 318 318 317 318 319 317 317 318 319 318 318 318 319 320 319 319 319 320 321 322 323 323 324 324 324 325 325 324 323 323 322
310 310 310 314 315 312 315 317 326 324 321 321 321 319 320 319 319 319 319 319 318 319 318 318 319 319 319 319 319 320 321 322 323 324 324 324 325 326 326 324 324 324 323 323 322
312 311 313 313 313 313 315 321 326 323 322 320 320 319 320 319 319 318 318 319 319 319 320 321 321 320 320 320 320 321 321 321 324 326 326 325 326 327 326 324 323 321 322 322 321
315 317 316 315 314 316 321 324 324 322 321 320 320 322 321 320 320 321 319 319 319 319 320 321 322 321 320 320 319 321 322 321 325 326 327 324 325 325 325 325 323 322 321 321 321
316 319 317 317 316 319 323 317 322 319 319 320 321 321 323 322 322 322 322 320 320 320 318 320 323 321 322 321 322 321 320 322 324 332 329 325 326 326 326 325 324 323 322 321 319
317 321 318 319 319 320 323 322 320 318 318 319 319 320 320 320 320 321 321 321 319 320 319 319 321 321 320 321 321 321 322 322 322 324 329 329 325 323 324 324 324 323 321 319 318
318 323 317 319 323 321 323 320 316 318 317 318 319 320 319 319 320 320 321 320 318 318 319 318 322 323 321 320 320 321 321 321 327 327 326 327 329 323 323 323 322 321 319 318 317
318 318 317 319 325 321 320 319 318 318 318 318 318 318 318 319 319 318 318 317 316 316 318 319 321 324 320 321 321 320 321 321 321 324 326 328 325 321 321 321 319 319 317 316 316
317 321 317 318 318 321 320 320 319 316 317 317 318 317 317 317 317 318 318 316 315 315 314 315 318 318 322 320 320 321 320 319 320 325 323 323 321 320 319 321 320 317 315 316 316
315 318 315 320 318 317 316 317 317 317 315 315 317 316 316 317 317 317 316 316 313 314 313 315 318 317 316 316 316 317 317 317 317 318 321 321 320 318 319 319 316 316 316 315 316
315 315 314 315 315 316 312 317 316 315 315 316 316 315 314 316 316 317 314 314 315 314 314 316 317 317 317 316 315 316 316 315 316 316 316 317 318 317 316 316 316 316 316 316 315
312 313 313 311 316 315 317 316 315 313 314 313 314 314 315 314 312 312 312 313 313 314 314 315 316 318 319 315 316 316 315 317 315 315 316 316 316 315 316 316 316 315 315 314 313

GFSSW_850_thetae_108.txt.gz
Theta_e
304 305 308 310 309 309 308 308 307 307 306 306 305 304 303 303 303 303 305 309 312 311 309 312 314 314 316 317 318 320 320 320 321 323 324 325 325 327 328 328 328 327 328 329 327
307 305 304 308 310 310 309 308 308 307 306 305 304 304 303 303 304 305 310 311 311 311 308 314 316 316 316 317 318 321 321 321 323 323 323 324 324 324 324 325 325 325 325 326 327
311 309 306 305 306 309 309 308 307 305 305 305 305 304 303 303 311 316 314 311 310 308 309 316 316 316 316 318 319 320 321 322 322 323 323 323 322 323 323 323 323 323 324 325 326
310 310 310 307 306 305 306 305 305 307 307 308 306 304 303 302 324 323 319 313 308 308 310 315 316 317 318 319 319 320 321 321 321 322 322 322 322 322 321 321 321 321 321 322 323
308 308 309 311 307 307 307 308 308 309 309 308 307 304 302 315 314 321 316 315 308 308 314 319 318 318 318 319 320 320 321 321 321 321 321 321 321 321 321 321 320 320 320 320 321
306 306 306 308 311 308 309 308 309 309 310 307 305 304 303 316 316 316 313 312 311 314 317 316 317 317 318 319 320 320 320 321 321 321 320 320 320 320 320 320 320 320 320 320 320
305 306 306 307 308 311 308 310 310 310 311 310 307 304 314 316 312 319 315 314 314 315 318 316 317 319 319 320 320 320 321 321 321 320 320 320 320 320 320 320 320 320 320 321 321
310 311 311 310 309 308 311 308 312 312 313 312 311 312 319 317 315 316 317 317 320 320 318 316 318 319 320 319 321 320 320 319 321 321 320 320 320 321 321 320 321 321 321 321 321
307 308 311 312 312 311 310 309 310 312 314 313 314 319 322 318 314 312 319 318 317 316 316 319 318 318 318 319 320 321 320 320 320 322 321 321 320 321 321 322 321 321 321 321 321
311 311 312 312 312 313 310 311 308 313 314 314 316 320 322 321 317 312 318 318 315 316 318 318 317 319 318 319 318 319 320 320 320 322 321 321 320 320 320 321 321 321 321 321 321
312 311 311 311 312 312 311 312 321 321 321 322 323 320 320 319 315 312 319 319 317 317 319 318 319 318 319 320 320 320 320 320 321 322 321 321 321 321 321 321 321 321 322 322 322
312 311 311 313 312 312 311 314 319 318 319 323 322 321 320 319 318 315 315 320 318 318 318 319 320 320 321 321 321 321 320 320 320 321 321 321 321 321 322 323 322 322 322 322 322
311 311 312 311 313 313 312 314 316 318 318 320 320 320 319 319 319 317 317 319 318 319 320 320 321 321 321 320 320 320 320 320 320 320 321 321 321 322 322 322 321 322 322 322 322
311 312 310 312 314 316 316 313 316 318 322 322 319 319 318 318 319 318 317 319 318 320 320 321 321 321 321 320 319 320 320 320 320 320 319 321 322 324 324 324 324 323 322 322 321
311 311 311 313 320 317 317 316 316 319 333 323 321 318 319 318 319 318 318 318 319 319 320 320 321 321 321 320 320 320 320 319 319 320 320 320 321 321 322 323 324 325 324 323 322
311 310 316 315 315 316 316 318 319 324 332 324 321 320 319 319 319 319 319 319 318 319 319 319 319 319 320 320 320 320 319 320 320 319 322 320 322 322 324 326 327 327 325 323 323
312 311 311 317 319 315 315 318 324 327 326 323 322 321 321 320 319 320 320 320 318 317 318 319 319 319 319 319 320 320 320 321 322 323 324 323 324 326 327 327 326 325 325 324 324
313 315 316 315 315 314 316 320 327 328 325 322 322 321 321 321 320 320 320 320 319 318 320 321 322 320 321 320 320 320 321 321 323 325 323 325 327 326 327 326 326 326 324 324 323
314 320 319 318 317 316 320 326 327 324 323 322 322 323 322 321 321 322 321 320 321 321 322 322 322 321 322 322 322 320 320 321 324 326 327 325 325 325 327 327 326 325 323 323 323
316 321 319 318 319 320 325 326 323 321 321 321 323 322 324 325 323 323 323 323 321 320 320 321 323 321 321 321 322 322 322 323 325 333 328 325 326 326 326 326 326 325 323 322 322
315 323 321 320 319 321 325 322 321 319 320 321 321 321 321 321 321 322 322 322 322 321 321 321 322 322 321 321 321 322 323 324 325 324 328 327 325 325 326 326 326 325 323 322 321
320 325 320 320 324 325 324 322 319 320 319 319 320 320 320 320 321 321 321 322 319 319 321 320 322 324 321 319 320 321 322 323 328 327 326 328 329 325 324 323 323 323 322 321 320
319 319 319 321 327 326 323 320 318 319 319 319 320 319 319 319 320 320 319 319 318 318 320 321 321 322 318 317 322 322 322 323 324 325 327 329 325 322 323 321 321 321 321 320 318
318 321 318 319 319 321 321 321 320 319 317 318 318 318 318 319 318 318 319 318 317 317 315 316 318 318 320 318 319 319 320 320 321 322 324 324 322 321 321 322 321 321 319 318 317
318 320 316 323 321 318 317 319 318 318 317 316 317 317 317 318 317 318 317 317 316 316 315 315 317 318 317 316 316 316 317 317 318 319 322 320 318 319 320 320 318 318 318 317 317
316 316 317 316 316 317 314 319 317 318 316 318 317 317 316 316 317 317 316 316 317 316 315 315 318 317 318 316 316 317 317 317 317 317 317 317 317 318 317 317 317 318 318 316 316
314 315 314 315 318 316 319 318 317 315 316 315 315 316 315 315 314 314 314 314 315 315 315 317 318 316 317 316 318 319 317 317 317 318 318 317 317 317 317 317 317 316 315 314 314

GFSSW_850_thetae_114.txt.gz
Theta_e
307 307 308 308 305 307 309 308 307 307 306 306 306 305 304 303 304 304 306 309 308 312 312 312 313 313 312 311 314 316 312 312 314 317 317 320 318 321 323 327 328 328 336 336 341
307 306 306 308 308 306 305 307 307 307 306 305 305 304 304 303 304 305 310 309 308 308 311 310 312 313 312 313 315 313 311 314 315 317 317 318 319 320 322 322 324 328 328 327 327
305 304 304 305 308 308 307 306 305 305 305 305 305 305 304 303 304 309 313 311 308 309 310 311 312 312 312 314 314 313 312 314 317 318 318 318 319 320 321 321 322 322 323 321 322
304 306 306 305 306 308 308 307 308 308 308 308 307 306 304 303 315 321 317 314 308 310 311 310 310 311 311 312 315 313 314 315 317 318 319 317 320 320 320 321 321 322 322 321 320
308 308 308 308 308 308 308 308 308 308 309 308 306 306 304 304 308 318 316 314 309 310 311 309 310 313 311 311 313 312 313 316 317 318 319 319 317 319 319 320 320 321 321 321 320
310 307 309 309 310 310 310 309 309 309 309 309 306 305 302 307 313 317 315 314 310 309 309 308 314 316 317 313 311 315 314 315 317 317 318 317 318 318 320 320 320 319 320 320 320
313 311 311 311 311 311 312 310 310 309 310 311 308 304 305 307 319 317 315 314 314 310 308 311 318 316 316 314 317 315 314 313 315 316 315 318 316 317 319 320 320 319 319 319 320
313 313 313 312 311 311 312 312 310 309 310 311 311 309 312 312 318 319 314 312 311 309 309 316 317 317 315 317 316 316 313 314 314 316 318 317 316 316 319 319 319 319 319 319 319
313 313 313 312 311 311 312 313 311 309 309 313 311 312 317 319 317 315 316 317 318 317 317 319 316 317 317 314 311 311 314 315 316 316 316 315 315 315 319 319 318 319 319 319 319
312 312 312 311 310 311 313 312 311 308 311 313 314 316 317 320 318 315 314 317 317 319 317 316 317 313 311 311 313 314 314 314 315 316 316 314 314 316 318 318 318 318 320 319 320
312 312 311 310 310 310 312 312 312 316 312 314 314 317 320 319 319 315 315 315 316 315 313 316 313 313 313 313 313 314 314 314 315 315 316 314 314 314 315 316 315 319 320 319 320
311 311 310 310 310 310 311 312 316 315 318 319 320 318 321 321 318 313 313 313 316 312 314 314 313 313 314 314 315 315 314 314 314 316 315 316 316 316 316 316 318 319 320 320 320
311 310 310 310 311 314 313 315 317 317 317 318 316 319 321 320 320 312 312 312 317 314 313 313 314 315 316 316 317 316 315 315 316 317 317 317 315 315 315 318 319 319 320 320 320
309 309 310 311 314 317 315 316 315 314 318 321 319 321 321 318 318 317 315 317 318 316 314 313 315 315 316 317 317 317 317 317 317 316 314 316 314 314 314 314 316 319 319 320 320
309 309 310 312 314 316 317 316 315 316 329 320 319 318 317 318 318 318 315 317 317 317 314 315 317 317 317 317 317 316 316 317 317 316 314 314 313 313 314 315 314 315 319 323 324
309 310 311 315 316 316 317 315 315 321 330 325 319 318 317 318 318 318 318 317 318 317 316 316 317 317 317 317 317 317 317 315 313 312 314 314 313 313 314 315 315 317 322 323 321
310 312 313 316 316 314 315 318 319 325 325 326 319 317 318 318 319 319 319 317 317 316 316 316 316 316 317 318 318 316 313 314 315 314 316 318 320 314 316 323 322 321 320 321 321
313 316 316 317 316 314 316 315 325 327 328 325 320 318 318 318 318 318 318 317 317 315 316 317 320 320 320 320 321 320 316 314 319 318 318 320 320 320 322 323 322 321 319 321 321
314 318 319 316 316 315 318 321 327 327 326 322 322 321 321 322 320 319 318 318 317 315 316 317 321 320 320 320 319 321 321 318 319 320 320 319 319 318 323 322 322 321 320 319 320
316 320 321 317 316 317 321 327 326 324 321 321 322 322 326 324 322 321 322 322 321 319 316 320 320 319 320 318 318 319 319 321 318 320 322 321 321 321 324 323 322 322 322 320 319
317 322 318 318 317 320 322 323 324 319 319 321 321 320 320 320 320 320 321 321 319 319 318 318 318 319 318 319 318 315 316 319 319 324 326 323 319 320 320 320 320 320 321 323 323
315 320 320 319 320 322 324 324 320 319 318 318 319 320 320 320 319 320 321 321 318 318 318 317 317 319 319 316 315 315 318 320 321 324 325 325 323 318 318 317 319 319 319 319 320
312 317 319 320 322 322 321 321 319 319 318 318 318 319 317 317 317 318 320 317 318 318 319 316 315 315 312 311 313 317 318 318 319 317 321 325 322 319 318 316 317 318 317 318 320
313 317 318 320 321 319 318 318 319 317 316 316 316 316 316 317 316 316 319 317 317 317 316 314 313 313 312 311 313 315 315 314 318 318 318 319 318 316 316 317 319 318 317 318 318
315 316 313 316 315 315 313 314 320 317 316 315 315 315 315 315 315 316 314 315 316 318 313 310 311 313 313 314 315 314 315 314 313 313 316 315 315 314 314 315 315 316 316 314 313
313 313 314 313 316 315 313 317 317 316 314 315 315 314 313 314 314 314 313 314 314 315 313 310 311 314 315 315 314 315 314 313 314 315 314 314 315 314 315 314 314 312 311 311 310
311 312 314 315 314 315 315 315 316 314 313 313 313 312 312 312 312 312 312 312 311 312 311 311 311 311 313 313 312 313 312 312 314 317 317 318 317 314 314 313 311 311 310 310 310

GFSSW_850_thetae_117.txt.gz
Theta_e
306 306 305 305 307 307 305 307 308 307 306 306 305 305 305 304 304 303 306 311 309 310 311 312 311 312 312 312 313 315 311 312 314 315 317 317 316 320 321 323 326 328 341 345 346
305 305 304 304 306 308 307 306 305 306 306 306 305 305 304 304 303 304 310 308 308 310 311 312 312 313 311 311 313 312 309 313 314 317 317 317 317 318 320 322 325 329 328 337 344
303 306 307 307 306 307 308 307 307 305 305 305 305 305 304 304 303 307 310 309 307 308 312 310 310 314 310 312 313 312 312 314 315 317 317 316 317 319 319 319 323 324 323 323 337
307 308 307 308 308 308 308 308 307 307 308 308 307 306 305 303 306 318 316 315 307 307 309 310 311 311 310 311 313 312 312 314 316 316 317 316 318 318 319 320 322 322 321 321 320
309 310 309 310 310 310 310 309 309 308 308 308 306 306 304 304 306 317 315 314 308 308 309 311 310 311 311 310 312 311 312 314 315 316 315 316 316 316 318 320 320 320 320 319 320
312 312 311 311 311 311 311 311 309 309 308 308 307 304 302 304 307 314 315 312 308 309 311 311 310 314 314 312 311 313 313 314 315 315 315 315 315 316 318 320 320 320 320 319 319
313 313 312 312 312 311 311 311 311 309 309 309 309 303 305 306 316 317 316 314 309 309 310 310 313 316 315 313 315 315 313 312 313 315 314 316 314 315 318 319 319 319 319 319 319
313 313 313 312 312 311 311 311 312 310 309 310 310 308 310 308 316 317 314 314 311 310 309 308 311 314 316 317 314 315 312 313 313 315 316 315 315 316 319 318 318 319 319 319 319
311 312 312 311 311 310 311 312 312 310 308 308 310 311 315 314 316 318 314 312 312 310 308 312 313 315 315 313 312 311 314 314 315 314 316 315 314 314 318 318 317 318 319 319 319
311 311 311 311 310 310 310 312 312 310 309 312 312 315 315 318 314 315 315 314 313 312 312 312 314 312 310 312 313 314 314 314 314 315 315 314 313 313 317 316 315 317 319 319 319
310 310 311 310 310 310 309 311 312 311 310 312 313 317 319 320 318 313 314 315 315 316 312 315 313 313 314 313 313 314 313 314 314 314 315 313 313 314 315 316 313 315 317 318 319
309 310 309 310 309 310 310 312 313 317 317 313 311 314 317 317 319 317 314 314 314 311 312 312 313 313 313 313 314 314 314 313 313 313 312 313 314 313 315 315 315 315 317 319 319
308 309 309 309 310 313 314 314 314 314 315 318 318 318 320 321 321 314 313 314 312 311 312 312 314 314 314 314 315 314 314 313 314 315 314 315 313 314 315 316 317 318 318 318 318
309 309 309 309 315 316 315 316 316 313 319 320 319 319 319 320 318 313 313 313 316 312 311 312 313 314 314 315 314 314 314 316 315 315 313 314 313 312 313 313 314 316 318 319 319
309 308 309 310 313 314 315 316 315 314 328 320 321 319 320 317 318 314 315 314 316 315 313 314 316 316 315 315 315 314 315 315 315 314 313 313 311 311 312 314 313 315 320 322 322
308 310 311 314 316 316 316 314 315 321 331 321 318 317 317 317 317 317 312 316 317 316 315 314 316 316 315 316 317 317 315 311 310 310 313 313 313 311 313 315 318 319 319 319 320
310 312 313 316 316 315 316 315 319 325 325 326 318 317 318 318 318 318 317 315 315 315 315 315 316 315 316 316 317 314 311 312 313 313 314 316 316 314 317 322 321 319 318 319 321
313 314 316 316 315 315 316 316 325 326 327 326 318 317 318 317 318 318 317 317 316 315 314 315 319 319 319 319 319 318 313 313 316 315 315 317 318 318 321 320 318 318 318 318 318
314 316 317 316 315 315 317 320 325 326 326 325 320 318 320 322 317 318 317 316 319 315 317 317 320 319 319 319 319 320 319 315 317 317 319 317 317 318 320 320 321 321 320 319 318
317 320 320 317 315 319 320 324 325 323 324 321 322 322 324 322 321 320 321 321 320 318 314 318 319 319 319 318 316 317 317 320 317 321 320 318 319 318 322 321 320 319 320 322 321
316 321 318 316 318 320 324 325 324 323 320 320 320 320 320 319 320 319 321 319 319 318 316 317 316 318 317 317 317 315 315 316 315 317 318 321 319 316 319 319 318 317 318 319 320
313 319 318 316 318 320 323 324 323 318 318 317 318 319 319 319 319 320 321 319 318 317 318 316 315 318 318 314 314 314 317 315 313 318 322 325 321 317 316 315 315 315 316 316 316
312 316 319 318 320 320 322 321 318 318 317 317 316 317 317 316 317 318 319 317 317 317 317 314 313 313 309 310 312 315 317 316 314 313 318 317 318 316 314 314 314 315 316 317 316
312 316 317 319 319 317 318 317 319 316 316 315 314 315 315 315 313 316 318 316 317 316 316 314 312 311 310 308 311 314 314 314 313 314 313 316 316 314 313 313 313 314 316 316 315
314 314 312 315 314 313 313 313 318 316 314 314 314 314 314 315 314 314 313 315 315 316 311 309 311 313 312 312 314 314 314 313 312 312 313 314 313 312 310 310 313 313 313 311 310
312 311 313 313 313 314 313 315 316 314 314 315 314 312 311 312 313 313 312 313 314 315 312 307 310 313 315 314 313 314 313 313 312 312 312 312 312 311 314 311 310 310 310 310 310
311 312 312 313 313 314 314 314 315 312 313 313 312 311 311 311 311 312 312 312 311 311 310 310 309 309 312 312 311 311 311 310 310 312 313 315 313 314 314 312 312 310 310 309 309

GFSSW_850_thetae_120.txt.gz
Theta_e
303 304 305 305 305 306 308 306 305 307 306 306 306 305 305 304 304 304 305 311 312 310 310 311 324 322 311 313 312 314 311 312 314 316 317 317 315 319 319 321 324 332 333 343 345
302 304 306 306 307 306 307 308 306 305 305 306 305 305 304 304 304 304 310 308 308 308 310 311 310 323 312 312 312 312 310 313 313 314 316 316 316 317 318 318 324 330 337 344 345
304 307 307 310 307 308 308 308 308 307 306 305 304 304 304 304 304 306 309 309 308 307 310 311 311 311 310 311 312 311 312 313 315 316 316 316 317 318 318 318 321 322 332 339 345
308 310 311 309 310 310 309 309 309 308 307 307 307 307 306 305 303 308 314 309 307 308 309 309 311 312 309 310 312 311 312 314 315 316 315 315 317 316 318 318 319 320 320 321 337
311 312 312 311 311 311 310 311 310 309 308 307 308 305 306 306 304 316 315 313 306 307 310 310 311 311 310 310 311 311 312 313 314 315 315 315 314 314 316 318 319 319 319 320 320
312 313 313 312 312 312 311 310 311 310 309 308 308 305 305 306 305 309 314 314 307 306 308 310 311 313 312 311 311 312 312 313 313 314 314 314 314 315 317 318 318 319 319 319 319
311 312 313 312 312 312 311 310 310 311 309 308 309 306 307 305 310 317 316 312 309 307 307 309 310 313 314 310 313 313 313 312 312 314 313 314 314 313 318 318 318 319 319 319 319
311 311 311 311 311 311 310 310 311 311 310 309 309 309 310 310 310 315 313 308 305 309 309 310 311 314 315 314 313 313 311 314 314 313 315 315 315 315 318 317 317 318 318 318 319
310 310 310 311 311 310 310 309 311 311 310 307 308 310 311 315 313 315 314 309 306 309 310 310 309 312 314 312 311 310 313 313 315 313 314 314 314 314 317 316 316 318 318 319 319
310 309 309 310 310 310 309 309 311 310 309 309 311 313 313 317 314 316 313 312 310 310 310 309 311 311 309 310 311 312 313 313 314 314 314 313 312 312 315 316 316 317 317 317 318
309 307 308 309 309 309 309 310 312 313 310 311 312 314 317 319 317 316 314 312 312 311 311 311 311 312 313 313 313 313 313 314 313 313 314 312 312 312 314 315 315 317 316 315 318
308 307 309 309 309 309 309 310 313 314 316 310 311 312 312 314 317 314 315 314 313 311 311 311 312 312 313 313 313 313 314 313 312 312 312 313 313 312 312 314 315 316 317 316 317
307 308 309 308 308 310 312 311 312 313 313 316 314 312 316 319 319 315 314 314 312 310 311 312 314 313 313 313 314 313 313 313 313 313 313 314 313 313 314 314 316 315 316 319 318
306 308 308 309 312 315 314 315 313 314 319 319 319 317 319 320 319 317 315 315 313 311 309 312 312 313 314 314 313 314 313 314 315 314 314 312 313 312 313 312 312 318 321 322 322
306 307 309 310 311 313 315 315 315 313 324 320 318 318 320 317 316 311 314 313 315 313 311 312 314 314 314 313 313 314 314 314 314 312 312 312 311 311 311 314 314 317 318 320 320
306 309 311 312 314 315 315 314 314 319 329 319 318 319 316 316 317 312 312 314 316 314 313 313 315 315 315 316 315 315 313 310 308 309 312 312 311 311 312 315 319 317 316 319 321
307 312 313 314 316 314 314 314 319 324 325 324 317 316 317 316 317 315 312 314 314 315 315 314 315 314 315 315 317 313 310 312 313 313 314 313 315 312 314 319 318 315 316 317 320
311 314 315 315 315 315 315 316 324 326 325 324 318 317 318 317 317 317 313 314 314 313 312 314 315 317 318 317 317 317 311 311 315 313 313 315 317 315 320 317 318 318 319 319 318
313 316 317 316 316 316 315 319 323 326 324 326 318 318 320 321 317 317 317 316 318 315 317 316 320 318 318 317 317 319 318 312 314 315 319 316 315 318 319 319 319 319 320 321 321
314 320 319 316 316 317 318 323 324 323 323 323 322 321 323 321 320 319 321 320 320 317 315 318 320 318 319 317 315 317 316 319 315 319 321 316 318 316 321 319 316 314 315 316 317
314 319 320 318 316 320 320 323 323 321 322 321 320 320 320 320 319 319 320 318 318 316 315 315 315 318 316 316 316 314 314 314 314 314 316 319 317 313 318 317 316 312 314 314 315
312 317 319 317 317 319 320 322 323 323 318 319 317 318 319 318 319 319 320 319 317 316 317 315 314 317 317 311 312 313 316 312 313 317 317 321 319 317 314 315 314 313 313 314 315
312 314 319 318 321 322 321 322 321 317 316 316 316 317 316 316 318 318 318 316 317 316 316 313 311 312 309 310 311 314 316 313 311 310 318 317 315 315 313 312 312 312 313 315 316
311 317 315 318 317 317 321 321 317 315 313 313 313 314 314 314 311 317 317 316 316 317 316 313 310 311 310 306 311 314 314 313 310 314 311 312 314 314 313 312 311 313 313 312 311
313 312 311 315 312 313 312 312 317 315 314 313 313 313 313 314 313 313 314 315 315 314 310 308 311 312 312 312 312 312 312 312 311 310 312 312 313 311 310 309 311 312 311 310 310
311 310 312 312 313 313 312 315 315 313 313 314 313 312 311 312 312 312 311 312 314 312 310 306 310 312 314 312 312 313 312 311 311 311 310 311 312 310 310 310 309 309 310 310 309
310 312 311 312 312 313 313 314 314 311 311 312 311 310 311 310 311 311 311 310 311 311 309 308 309 309 312 311 310 310 309 309 309 309 309 311 309 313 313 312 311 310 310 310 309

GFSSW_850_thetae_123.txt.gz
Theta_e
302 303 304 305 306 306 306 307 307 305 305 306 306 305 304 304 304 305 304 309 314 313 313 315 313 320 322 322 312 313 316 318 319 319 322 318 320 319 319 320 322 332 331 341 344
303 304 307 308 308 310 308 308 308 307 306 304 305 305 305 305 306 305 307 307 310 310 309 310 312 321 318 317 314 313 315 318 318 319 321 318 318 318 320 320 325 327 336 340 345
308 309 310 311 309 312 310 309 309 308 307 307 305 304 304 304 306 306 307 307 307 308 310 309 313 325 324 321 318 314 315 319 317 317 317 318 318 317 319 321 320 323 336 346 347
312 312 312 312 312 312 311 310 310 309 308 307 307 307 306 306 308 311 308 308 307 307 309 310 315 321 326 324 323 315 315 314 317 316 317 317 317 317 318 319 319 318 319 338 345
312 312 312 312 312 312 312 311 310 310 309 308 307 307 305 307 305 305 314 312 306 305 309 310 312 316 318 318 314 317 317 319 315 317 315 315 316 317 317 318 318 318 319 319 323
311 311 311 312 312 312 312 311 310 310 310 308 307 308 305 309 305 305 309 312 307 305 309 310 311 312 312 312 314 313 313 316 315 314 314 315 316 315 317 318 318 318 318 319 320
311 310 310 311 311 312 311 310 310 310 310 309 308 308 307 305 306 315 315 314 307 306 309 310 311 313 312 311 312 312 313 313 313 314 315 315 316 316 318 318 318 318 318 318 318
310 310 309 309 310 311 310 310 309 310 310 309 308 309 310 309 307 311 312 313 305 306 308 309 310 313 314 313 312 313 314 316 317 314 316 316 317 319 317 317 318 318 318 318 318
309 309 308 308 309 310 310 309 309 310 310 309 309 309 312 313 309 311 311 310 306 307 308 309 310 313 314 316 315 314 316 316 317 315 315 316 317 318 317 317 318 319 318 318 319
309 309 307 307 309 309 309 309 310 310 311 311 311 312 312 316 312 315 310 306 309 309 309 310 310 314 314 316 316 316 315 315 317 316 316 316 318 318 317 317 318 318 318 317 318
309 309 307 308 309 308 308 310 311 312 311 311 312 312 316 317 317 314 312 308 309 310 311 310 313 315 316 316 315 316 316 316 316 316 317 317 318 319 317 317 319 319 317 317 316
309 308 307 308 308 308 308 309 312 311 315 312 311 313 313 312 315 314 310 313 311 311 313 312 315 316 316 315 316 316 317 317 316 315 316 318 318 318 319 318 318 317 317 318 319
308 307 306 307 308 308 310 312 310 312 314 315 313 310 310 315 317 314 312 313 312 313 315 315 316 315 315 315 317 316 317 317 317 316 316 317 318 318 318 316 316 317 320 321 321
307 307 306 308 310 313 313 314 311 312 319 319 318 316 318 319 319 314 314 314 314 315 314 316 314 315 316 316 316 317 316 317 317 318 318 315 318 318 318 319 317 322 321 320 320
306 305 308 309 310 311 315 316 313 311 325 320 318 318 319 318 316 313 314 315 317 314 314 315 315 315 316 316 316 317 316 317 317 318 317 316 318 319 315 318 322 321 320 321 321
306 306 309 311 312 313 316 314 312 319 326 320 319 318 320 317 316 311 314 315 315 315 315 316 315 317 317 316 316 316 316 315 315 316 319 319 319 319 318 320 324 320 319 319 320
305 309 312 312 315 317 315 312 319 325 324 320 318 319 319 318 316 313 314 316 318 318 316 316 317 316 316 319 319 316 318 318 319 319 319 316 317 319 318 321 320 320 319 319 319
306 313 314 314 315 314 313 317 324 325 324 323 318 318 319 318 318 313 314 315 316 318 318 317 317 319 319 318 319 320 319 319 318 318 318 318 320 322 321 319 319 320 321 322 322
309 315 316 316 314 314 314 321 323 325 324 325 321 319 320 319 318 317 314 316 317 318 319 319 320 319 319 319 320 320 320 317 320 320 321 320 320 323 322 322 320 318 317 318 319
311 318 317 317 316 315 320 320 323 323 323 323 321 320 322 321 320 320 318 320 320 318 317 319 322 320 319 318 318 321 319 324 323 325 323 322 322 321 325 323 319 318 316 316 316
313 318 319 316 316 317 323 320 321 321 321 324 321 322 321 321 320 320 321 320 319 318 318 319 320 321 319 319 321 321 322 321 322 323 324 322 321 320 325 322 320 318 315 315 315
312 319 318 316 319 319 322 321 320 320 319 321 319 320 321 320 321 321 322 320 317 319 320 318 320 322 319 315 315 316 319 322 326 324 325 325 325 321 322 319 317 315 314 315 316
311 313 318 317 323 323 320 319 320 320 318 320 319 318 317 319 322 321 319 316 317 318 320 319 320 320 318 317 316 318 318 318 319 320 325 325 321 320 319 320 317 315 314 314 315
310 319 314 318 317 320 321 322 321 316 314 314 315 316 318 318 318 320 319 318 317 318 315 316 316 320 322 314 318 318 317 317 318 321 318 320 318 317 318 319 317 314 314 313 312
311 314 311 319 315 315 319 318 317 317 315 314 316 317 318 318 317 318 318 317 315 314 312 317 319 316 314 314 315 314 314 315 316 316 316 315 314 314 314 315 314 313 313 312 311
311 311 311 313 313 315 315 317 316 314 315 316 318 314 315 318 317 318 317 317 318 315 315 313 317 315 316 314 314 315 314 314 314 314 314 314 315 314 314 313 313 313 312 312 311
309 310 310 313 314 315 315 316 318 314 313 313 314 314 315 313 312 312 311 313 316 316 315 317 318 318 316 314 313 313 313 313 313 313 314 315 315 315 316 315 314 313 312 312 312